[[{"header":{"parameterUnit":"m.s-1","parameterCategory":1,"la1":30.6,"la2":28.766,"lo1":-90.7593,"lo2":-88.6598,"dy":0.0162,"dx":0.0183,"nx":116,"ny":114,"refTime":"2023-07-26T06:00:00:Z","depth":0,"parameterNumber":2,"parameterNumberName":"U-component_of_WINDS"},"data":[0.0,0.0,0.0,0.0,0.0,0.0,0.0,0.0,0.0,0.0,0.0,0.0,0.0,0.0,0.0,0.0,0.0,0.0,0.0,0.0,0.0,0.0,0.0,0.0,0.0,0.0,0.0,0.0,0.0,0.0,0.0,0.0,0.0,0.0,0.0,0.0,0.0,0.0,0.0,0.0,0.0,0.0,0.0,0.0,0.0,0.0,0.0,0.0,0.0,0.0,0.0,0.0,0.0,0.0,0.0,0.0,0.0,0.0,0.0,0.0,0.0,0.0,0.0,0.0,0.0,0.0,0.0,0.0,0.0,0.0,0.0,0.0,0.0,0.0,0.0,0.0,0.0,0.0,0.0,0.0,0.0,0.0,0.0,0.0,0.0,0.0,0.0,0.0,0.0,0.0,0.0,0.0,0.0,0.0,0.0,0.0,0.0,0.0,0.0,0.0,0.0,0.0,0.0,0.0,0.0,0.0,0.0,0.0,0.0,0.0,0.0,0.0,0.0,0.0,0.0,0.0,0.0,0.0,0.0,0.0,0.0,0.0,0.0,0.0,0.0,0.0,0.0,0.0,0.0,0.0,0.0,0.0,0.0,0.0,0.0,0.0,0.0,0.0,0.0,0.0,0.0,0.0,0.0,0.0,0.0,0.0,0.0,0.0,0.0,0.0,0.0,0.0,0.0,0.0,0.0,0.0,0.0,0.0,0.0,0.0,0.0,0.0,0.0,0.0,0.0,0.0,0.0,0.0,0.0,0.0,0.0,0.0,0.0,0.0,0.0,0.0,0.0,0.0,0.0,0.0,0.0,0.0,0.0,0.0,0.0,0.0,0.0,0.0,0.0,0.0,0.0,0.0,0.0,0.0,0.0,0.0,0.0,0.0,0.0,0.0,0.0,0.0,0.0,0.0,0.0,0.0,0.0,0.0,0.0,0.0,0.0,0.0,0.0,0.0,0.0,0.0,0.0,0.0,0.0,0.0,0.0,0.0,0.0,0.0,0.0,0.0,0.0,0.0,0.0,0.0,0.0,0.0,0.0,0.0,0.0,0.0,0.0,0.0,0.0,0.0,0.0,0.0,0.0,0.0,0.0,0.0,0.0,0.0,0.0,0.0,0.0,0.0,0.0,0.0,0.0,0.0,0.0,0.0,0.0,0.0,0.0,0.0,0.0,0.0,0.0,0.0,0.0,0.0,0.0,0.0,0.0,0.0,0.0,0.0,0.0,0.0,0.0,0.0,0.0,0.0,0.0,0.0,0.0,0.0,0.0,0.0,0.0,0.0,0.0,0.0,0.0,0.0,0.0,0.0,0.0,0.0,0.0,0.0,0.0,0.0,0.0,0.0,0.0,0.0,0.0,0.0,0.0,0.0,0.0,0.0,0.0,0.0,0.0,0.0,0.0,0.0,0.0,0.0,0.0,0.0,0.0,0.0,0.0,0.0,0.0,0.0,0.0,0.0,0.0,0.0,0.0,0.0,0.0,0.0,0.0,0.0,0.0,0.0,0.0,0.0,0.0,0.0,0.0,0.0,0.0,0.0,0.0,0.0,0.0,0.0,0.0,0.0,0.0,0.0,0.0,0.0,0.0,0.0,0.0,0.0,0.0,0.0,0.0,0.0,0.0,0.0,0.0,0.0,0.0,0.0,0.0,0.0,0.0,0.0,0.0,0.0,0.0,0.0,0.0,0.0,0.0,0.0,0.0,0.0,0.0,0.0,0.0,0.0,0.0,0.0,0.0,0.0,0.0,0.0,0.0,0.0,0.0,0.0,0.0,0.0,0.0,0.0,0.0,0.0,0.0,0.0,0.0,0.0,0.0,0.0,0.0,0.0,0.0,0.0,0.0,0.0,0.0,0.0,0.0,0.0,0.0,0.0,0.0,0.0,0.0,0.0,0.0,0.0,0.0,0.0,0.0,0.0,0.0,0.0,0.0,0.0,0.0,0.0,0.0,0.0,0.0,0.0,0.0,0.0,0.0,0.0,0.0,0.0,0.0,0.0,0.0,0.0,0.0,0.0,0.0,0.0,0.0,0.0,0.0,0.0,0.0,0.0,0.0,0.0,0.0,0.0,0.0,0.0,0.0,0.0,0.0,0.0,0.0,0.0,0.0,0.0,0.0,0.0,0.0,0.0,0.0,0.0,0.0,0.0,0.0,0.0,0.0,0.0,0.0,0.0,0.0,0.0,0.0,0.0,0.0,0.0,0.0,0.0,0.0,0.0,0.0,0.0,0.0,0.0,0.0,0.0,0.0,0.0,0.0,0.0,0.0,0.0,0.0,0.0,0.0,0.0,0.0,0.0,0.0,0.0,0.0,0.0,0.0,0.0,0.0,0.0,0.0,0.0,0.0,0.0,0.0,0.0,0.0,0.0,0.0,0.0,0.0,0.0,0.0,0.0,0.0,0.0,0.0,0.0,0.0,0.0,0.0,0.0,0.0,0.0,0.0,0.0,0.0,0.0,0.0,0.0,0.0,0.0,0.0,0.0,0.0,0.0,0.0,0.0,0.0,0.0,0.0,0.0,0.0,0.0,0.0,0.0,0.0,0.0,0.0,0.0,0.0,0.0,0.0,0.0,0.0,0.0,0.0,0.0,0.0,0.0,0.0,0.0,0.0,0.0,0.0,0.0,0.0,0.0,0.0,0.0,0.0,0.0,0.0,0.0,0.0,0.0,0.0,0.0,0.0,0.0,0.0,0.0,0.0,0.0,0.0,0.0,0.0,0.0,0.0,0.0,0.0,0.0,0.0,0.0,0.0,0.0,0.0,0.0,0.0,0.0,0.0,0.0,0.0,0.0,0.0,0.0,0.0,0.0,0.0,0.0,0.0,0.0,0.0,0.0,0.0,0.0,0.0,0.0,0.0,0.0,0.0,0.0,0.0,0.0,0.0,0.0,0.0,0.0,0.0,0.0,0.0,0.0,0.0,0.0,0.0,0.0,0.0,0.0,0.0,0.0,0.0,0.0,0.0,0.0,0.0,0.0,0.0,0.0,0.0,0.0,0.0,0.0,0.0,0.0,0.0,0.0,0.0,0.0,0.0,0.0,0.0,0.0,0.0,0.0,0.0,0.0,0.0,0.0,0.0,0.0,0.0,0.0,0.0,0.0,0.0,0.0,0.0,0.0,0.0,0.0,0.0,0.0,0.0,0.0,0.0,0.0,0.0,0.0,0.0,0.0,0.0,0.0,0.0,0.0,0.0,0.0,0.0,0.0,0.0,0.0,0.0,0.0,0.0,0.0,0.0,0.0,0.0,0.0,0.0,0.0,0.0,0.0,0.0,0.0,0.0,0.0,0.0,0.0,0.0,0.0,0.0,0.0,0.0,0.0,0.0,0.0,0.0,0.0,0.0,0.0,0.0,0.0,0.0,0.0,0.0,0.0,0.0,0.0,0.0,0.0,0.0,0.0,0.0,0.0,0.0,0.0,0.0,0.0,0.0,0.0,0.0,0.0,0.0,0.0,0.0,0.0,0.0,0.0,0.0,0.0,0.0,0.0,0.0,0.0,0.0,0.0,0.0,0.0,0.0,0.0,0.0,0.0,0.0,0.0,0.0,0.0,0.0,0.0,0.0,0.0,0.0,0.0,0.0,0.0,0.0,0.0,0.0,0.0,0.0,0.0,0.0,0.0,0.0,0.0,0.0,0.0,0.0,0.0,0.0,0.0,0.0,0.0,0.0,0.0,0.0,0.0,0.0,0.0,0.0,0.0,0.0,0.0,0.0,0.0,0.0,0.0,0.0,0.0,0.0,0.0,0.0,0.0,0.0,0.0,0.0,0.0,0.0,0.0,0.0,0.0,0.0,0.0,0.0,0.0,0.0,0.0,0.0,0.0,0.0,0.0,0.0,0.0,0.0,0.0,0.0,0.0,0.0,0.0,0.0,0.0,0.0,0.0,0.0,0.0,0.0,0.0,0.0,0.0,0.0,0.0,0.0,0.0,0.0,0.0,0.0,0.0,0.0,0.0,0.0,0.0,0.0,0.0,0.0,0.0,0.0,0.0,0.0,0.0,0.0,0.0,0.0,0.0,0.0,0.0,0.0,0.0,0.0,0.0,0.0,0.0,0.0,0.0,0.0,0.0,0.0,0.0,0.0,0.0,0.0,0.0,0.0,0.0,0.0,0.0,0.0,0.0,0.0,0.0,0.0,0.0,0.0,0.0,0.0,0.0,0.0,0.0,0.0,0.0,0.0,0.0,0.0,0.0,0.0,0.0,0.0,0.0,0.0,0.0,0.0,0.0,0.0,0.0,0.0,0.0,0.0,0.0,0.0,0.0,0.0,0.0,0.0,0.0,0.0,0.0,0.0,0.0,0.0,0.0,0.0,0.0,0.0,0.0,0.0,0.0,0.0,0.0,0.0,0.0,0.0,0.0,0.0,0.0,0.0,0.0,0.0,0.0,0.0,0.0,0.0,0.0,0.0,0.0,0.0,0.0,0.0,0.0,0.0,0.0,0.0,0.0,0.0,0.0,0.0,0.0,0.0,0.0,0.0,0.0,0.0,0.0,0.0,0.0,0.0,0.0,0.0,0.0,0.0,0.0,0.0,0.0,0.0,0.0,0.0,0.0,0.0,0.0,0.0,0.0,0.0,0.0,0.0,0.0,0.0,0.0,0.0,0.0,0.0,0.0,0.0,0.0,0.0,0.0,0.0,0.0,0.0,0.0,0.0,0.0,0.0,0.0,0.0,0.0,0.0,0.0,0.0,0.0,0.0,0.0,0.0,0.0,0.0,0.0,0.0,0.0,0.0,0.0,0.0,0.0,0.0,0.0,0.0,0.0,0.0,0.0,0.0,0.0,0.0,0.0,0.0,0.0,0.0,0.0,0.0,0.0,0.0,0.0,0.0,0.0,0.0,0.0,0.0,0.0,0.0,0.0,0.0,0.0,0.0,0.0,0.0,0.0,0.0,0.0,0.0,0.0,0.0,0.0,0.0,0.0,0.0,0.0,0.0,0.0,0.0,0.0,0.0,0.0,0.0,0.0,0.0,0.0,0.0,0.0,0.0,0.0,0.0,0.0,0.0,0.0,0.0,0.0,0.0,0.0,0.0,0.0,0.0,0.0,0.0,0.0,0.0,0.0,0.0,0.0,0.0,0.0,0.0,0.0,0.0,0.0,0.0,0.0,0.0,0.0,0.0,0.0,0.0,0.0,0.0,0.0,0.0,0.0,0.0,0.0,0.0,0.0,0.0,0.0,0.0,0.0,0.0,0.0,0.0,0.0,0.0,0.0,0.0,0.0,0.0,0.0,0.0,0.0,0.0,0.0,0.0,0.0,0.0,0.0,0.0,0.0,0.0,0.0,0.0,0.0,0.0,0.0,0.0,0.0,0.0,0.0,0.0,0.0,0.0,0.0,0.0,0.0,0.0,0.0,0.0,0.0,0.0,0.0,0.0,0.0,0.0,0.0,0.0,0.0,0.0,0.0,0.0,0.0,0.0,0.0,0.0,0.0,0.0,0.0,0.0,0.0,0.0,0.0,0.0,0.0,0.0,0.0,0.0,0.0,0.0,0.0,0.0,0.0,0.0,0.0,0.0,0.0,0.0,0.0,0.0,0.0,0.0,0.0,0.0,0.0,0.0,0.0,0.0,0.0,0.0,0.0,0.0,0.0,0.0,0.0,0.0,0.0,0.0,0.0,0.0,0.0,0.0,0.0,0.0,0.0,0.0,0.0,0.0,0.0,0.0,0.0,0.0,0.0,0.0,0.0,0.0,0.0,0.0,0.0,0.0,0.0,0.0,0.0,0.0,0.0,0.0,0.0,0.0,0.0,0.0,0.0,0.0,0.0,0.0,0.0,0.0,0.0,0.0,0.0,0.0,0.0,0.0,0.0,0.0,0.0,0.0,0.0,0.0,0.0,0.0,0.0,0.0,0.0,0.0,0.0,0.0,0.0,0.0,0.0,0.0,0.0,0.0,0.0,0.0,0.0,0.0,0.0,0.0,0.0,0.0,0.0,0.0,0.0,0.0,0.0,0.0,0.0,0.0,0.0,0.0,0.0,0.0,0.0,0.0,0.0,0.0,0.0,0.0,0.0,0.0,0.0,0.0,0.0,0.0,0.0,0.0,0.0,0.0,0.0,0.0,0.0,0.0,0.0,0.0,0.0,0.0,0.0,-2.1481,0.0,0.0,0.0,0.0,0.0,0.0,0.0,0.0,0.0,0.0,0.0,0.0,0.0,0.0,0.0,0.0,0.0,0.0,0.0,0.0,0.0,0.0,0.0,0.0,0.0,0.0,0.0,0.0,0.0,0.0,0.0,0.0,0.0,0.0,0.0,0.0,0.0,0.0,0.0,0.0,0.0,0.0,0.0,0.0,0.0,0.0,0.0,0.0,0.0,0.0,0.0,0.0,0.0,0.0,0.0,0.0,0.0,0.0,0.0,0.0,0.0,0.0,0.0,0.0,0.0,0.0,0.0,0.0,0.0,0.0,0.0,0.0,0.0,0.0,0.0,0.0,0.0,0.0,0.0,0.0,0.0,0.0,0.0,0.0,0.0,0.0,0.0,0.0,0.0,0.0,0.0,0.0,0.0,0.0,0.0,0.0,0.0,0.0,0.0,0.0,0.0,0.0,0.0,0.0,0.0,0.0,0.0,0.0,0.0,0.0,0.0,0.0,0.0,0.0,0.0,0.0,-2.2005,0.0,0.0,0.0,0.0,0.0,0.0,0.0,0.0,0.0,0.0,0.0,0.0,0.0,0.0,0.0,0.0,0.0,0.0,0.0,0.0,0.0,0.0,0.0,0.0,0.0,0.0,0.0,0.0,0.0,0.0,0.0,0.0,0.0,0.0,0.0,0.0,0.0,0.0,0.0,0.0,0.0,0.0,0.0,0.0,0.0,0.0,0.0,0.0,0.0,0.0,0.0,0.0,0.0,0.0,0.0,0.0,0.0,0.0,0.0,0.0,0.0,0.0,0.0,0.0,0.0,0.0,0.0,0.0,0.0,0.0,0.0,0.0,0.0,0.0,0.0,0.0,0.0,0.0,0.0,0.0,0.0,0.0,0.0,0.0,0.0,0.0,0.0,0.0,0.0,0.0,0.0,0.0,0.0,0.0,0.0,0.0,0.0,0.0,0.0,0.0,0.0,0.0,0.0,0.0,0.0,0.0,0.0,0.0,-2.4103,-2.4423,-2.488,-2.4745,-2.4372,-2.3731,-2.3004,-2.2192,-2.1444,-2.2057,0.0,0.0,0.0,0.0,0.0,0.0,0.0,0.0,0.0,0.0,0.0,0.0,0.0,0.0,0.0,0.0,0.0,0.0,0.0,0.0,0.0,0.0,0.0,0.0,0.0,0.0,0.0,0.0,0.0,0.0,0.0,0.0,0.0,0.0,0.0,0.0,0.0,0.0,-2.7572,-2.8929,-3.0118,-3.1058,0.0,0.0,0.0,0.0,0.0,0.0,0.0,0.0,0.0,0.0,0.0,0.0,0.0,0.0,0.0,0.0,0.0,0.0,0.0,0.0,0.0,0.0,0.0,0.0,0.0,0.0,0.0,0.0,0.0,0.0,0.0,0.0,0.0,0.0,0.0,0.0,0.0,0.0,0.0,0.0,0.0,0.0,0.0,0.0,-2.206,-2.1727,0.0,0.0,0.0,0.0,0.0,0.0,0.0,0.0,0.0,0.0,0.0,0.0,0.0,-2.5473,-2.6116,-2.6759,-2.6793,-2.6268,-2.6911,-2.6945,-2.6387,-2.5744,-2.5406,-2.527,-2.4541,0.0,-2.2175,-2.2245,0.0,0.0,0.0,0.0,0.0,0.0,0.0,0.0,0.0,0.0,0.0,0.0,0.0,0.0,0.0,0.0,0.0,0.0,0.0,0.0,0.0,0.0,0.0,0.0,0.0,0.0,0.0,0.0,0.0,0.0,0.0,0.0,0.0,0.0,0.0,0.0,-2.5148,-2.7477,-2.9529,-3.1347,-3.2887,-3.4117,-3.3136,-3.2324,-3.1599,-3.0277,0.0,0.0,0.0,0.0,0.0,0.0,0.0,0.0,0.0,0.0,0.0,0.0,0.0,0.0,0.0,0.0,0.0,0.0,0.0,0.0,0.0,0.0,0.0,0.0,0.0,0.0,0.0,0.0,0.0,0.0,0.0,0.0,0.0,0.0,0.0,0.0,0.0,0.0,0.0,-2.3432,-2.3114,-2.17,-2.2709,-2.3207,0.0,0.0,0.0,0.0,0.0,0.0,0.0,0.0,0.0,-2.6996,-2.7351,-2.7673,-2.7994,-2.8298,-2.8298,-2.7994,-2.8315,-2.8298,-2.7977,-2.7655,-2.7503,-2.7486,-2.7165,-2.6404,-2.5254,-2.3613,-2.2919,-2.2883,0.0,0.0,0.0,0.0,-2.2272,-2.1945,0.0,0.0,0.0,0.0,0.0,0.0,0.0,0.0,0.0,0.0,0.0,0.0,0.0,0.0,0.0,-2.5236,0.0,0.0,0.0,0.0,0.0,0.0,0.0,0.0,0.0,0.0,0.0,0.0,-2.7998,-3.0459,-3.2292,-3.4213,-3.5706,-3.6755,-3.6755,-3.5436,-3.3139,-3.2111,-3.0207,0.0,0.0,0.0,0.0,0.0,0.0,0.0,0.0,0.0,0.0,0.0,0.0,0.0,0.0,0.0,0.0,0.0,0.0,0.0,0.0,0.0,0.0,0.0,0.0,0.0,0.0,0.0,0.0,0.0,0.0,0.0,0.0,0.0,0.0,0.0,0.0,0.0,0.0,-2.3922,-2.4004,-2.1691,-2.3743,-2.4678,0.0,0.0,0.0,0.0,0.0,0.0,-2.7233,-2.7994,-2.8737,-2.9551,-2.9754,-2.9924,-3.0127,-3.0144,-3.0144,-3.0144,-3.0144,-3.0025,-2.9839,-2.9653,-2.9467,-2.9281,-2.9077,-2.8653,-2.7908,-2.5524,-2.4408,-2.4171,-2.3444,-2.3141,-2.3108,-2.2936,-2.275,-2.2504,0.0,0.0,0.0,0.0,0.0,0.0,0.0,0.0,0.0,0.0,0.0,0.0,0.0,0.0,-2.532,-2.7452,-2.7097,-2.6708,0.0,0.0,0.0,0.0,0.0,0.0,0.0,0.0,0.0,-2.909,-3.1435,-3.3985,-3.6713,-3.8094,-3.9157,-3.9876,-3.9876,-3.9402,-3.836,-3.4541,-3.2887,-3.2511,0.0,0.0,0.0,0.0,0.0,0.0,0.0,0.0,0.0,0.0,0.0,0.0,0.0,0.0,0.0,0.0,0.0,0.0,0.0,0.0,0.0,0.0,0.0,0.0,0.0,0.0,0.0,0.0,0.0,0.0,0.0,0.0,0.0,0.0,0.0,0.0,0.0,0.0,0.0,-2.1488,-2.5,0.0,0.0,0.0,0.0,-2.7587,-2.8315,-2.8807,-2.8874,-2.9583,-3.0328,-3.1055,-3.1769,-3.2479,-3.3169,-3.3186,-3.3186,-3.3186,-3.3186,-3.2814,-3.2107,-3.1413,-3.0717,-3.0023,-2.9314,-2.8976,-2.8874,-2.7942,-2.7164,-2.6454,-2.5727,-2.5439,-2.5355,-2.466,-2.3949,-2.3241,0.0,0.0,0.0,0.0,0.0,0.0,0.0,0.0,0.0,0.0,0.0,0.0,0.0,-2.6065,-2.7537,-2.9786,-3.0176,-2.9704,-2.8282,0.0,0.0,0.0,0.0,0.0,0.0,0.0,-2.8535,-3.0874,-3.3994,-3.6224,-3.768,-3.9059,-3.9859,-4.0096,-4.0096,-4.015,-4.0081,-3.7685,-3.5615,-3.3702,-3.0711,-2.8312,0.0,0.0,0.0,0.0,0.0,0.0,0.0,0.0,0.0,0.0,0.0,0.0,0.0,0.0,0.0,0.0,0.0,0.0,0.0,0.0,0.0,0.0,0.0,0.0,0.0,0.0,0.0,0.0,0.0,0.0,0.0,0.0,0.0,0.0,0.0,0.0,0.0,-2.6962,-2.9583,0.0,-2.8993,-2.9533,-3.0176,-3.0649,-3.1393,-3.2256,-3.3203,-3.3981,-3.4742,-3.5487,-3.5774,-3.6028,-3.6299,-3.5825,-3.5334,-3.4805,-3.4336,-3.3711,-3.2983,-3.2242,-3.1769,-3.1461,-3.0753,-3.0431,-3.0378,-3.0108,-2.8687,-2.6623,-2.5896,-2.5321,-2.4863,-2.4592,-2.4321,-2.3992,0.0,0.0,0.0,0.0,0.0,0.0,0.0,0.0,0.0,0.0,0.0,-2.4154,-2.6116,-2.7672,-2.9582,-3.2087,-3.209,-3.1353,-3.0026,0.0,0.0,0.0,0.0,0.0,0.0,-2.8694,-3.0945,-3.312,-3.6174,-3.802,-3.8744,-3.9657,-4.0096,-4.0096,-4.0096,-4.0497,-4.1153,-4.0163,-3.8125,-3.5331,-3.2814,-3.1021,-2.9475,0.0,0.0,0.0,0.0,0.0,0.0,0.0,0.0,0.0,0.0,0.0,0.0,0.0,0.0,0.0,0.0,0.0,0.0,0.0,0.0,0.0,0.0,0.0,0.0,0.0,0.0,0.0,0.0,0.0,0.0,0.0,0.0,0.0,0.0,0.0,-3.048,-3.048,-3.2882,-3.3863,-3.2104,-3.2628,-3.3292,-3.3783,-3.4489,-3.5329,-3.6309,-3.6874,-3.7398,-3.7889,-3.7905,-3.7905,-3.7905,-3.7185,-3.6518,-3.6011,-3.5233,-3.4489,-3.3744,-3.3275,-3.2919,-3.2649,-3.2138,-3.1799,-3.1582,-3.1582,-3.0091,-2.7807,-2.7317,-2.6826,-2.6336,-2.5811,-2.5609,-2.5411,0.0,0.0,0.0,0.0,0.0,0.0,0.0,0.0,0.0,0.0,-2.2987,-2.4577,-2.7486,-2.9193,-3.1309,-3.4201,-3.2408,-3.13,-3.1696,-2.7467,0.0,0.0,0.0,0.0,0.0,0.0,0.0,0.0,-3.8034,-3.9394,-4.0096,-4.0096,-4.0096,-4.0096,-4.0121,-4.0744,-4.181,-4.1832,-4.0339,-3.775,-3.5035,-3.3917,-3.3366,0.0,0.0,0.0,0.0,0.0,0.0,0.0,0.0,0.0,0.0,0.0,0.0,0.0,0.0,0.0,0.0,0.0,0.0,0.0,0.0,0.0,0.0,0.0,0.0,0.0,0.0,0.0,0.0,0.0,0.0,0.0,0.0,0.0,-2.742,-3.0946,-3.3017,-3.1664,-3.4747,-3.6101,-3.3863,-3.5639,-3.6931,-3.6897,-3.755,-3.7973,-3.7973,-3.7973,-3.7973,-3.7973,-3.7973,-3.7973,-3.7973,-3.7195,-3.6829,-3.6829,-3.6011,-3.5233,-3.4523,-3.4506,-3.4117,-3.344,-3.3423,-3.2983,-3.2293,-3.2293,-3.1427,-3.0123,-3.0125,-3.0074,-2.9835,-2.8348,-2.7772,-2.7379,0.0,0.0,0.0,0.0,0.0,0.0,0.0,0.0,0.0,0.0,-2.3868,-2.5711,-2.7587,-2.9632,-3.1647,-3.3541,-3.119,-2.9658,-2.9751,0.0,0.0,0.0,0.0,0.0,0.0,0.0,0.0,0.0,0.0,0.0,0.0,0.0,-4.0096,-4.0121,-4.0521,-4.1105,-4.1832,-4.2282,-4.2246,-4.1659,-3.8588,-3.6652,-3.5202,0.0,0.0,0.0,0.0,0.0,0.0,0.0,0.0,0.0,0.0,0.0,0.0,0.0,0.0,0.0,0.0,0.0,0.0,0.0,0.0,0.0,0.0,0.0,0.0,0.0,0.0,0.0,0.0,0.0,0.0,0.0,0.0,-3.2485,-3.2485,-3.4435,-3.6502,-3.8244,-3.9817,-4.0324,-3.9174,-3.9614,-3.9766,-3.9233,-3.9385,-3.9503,-3.9503,-3.9503,-3.9503,-3.9503,-3.9503,-3.9503,-3.9503,-3.8227,-3.7601,-3.7584,-3.6225,-3.5481,-3.5278,-3.4742,-3.4387,-3.4167,-3.3643,-3.2983,-3.2293,-3.2293,-3.1752,-3.0835,-3.0311,-2.9413,-2.8382,-2.7959,-2.7011,-2.5824,0.0,0.0,0.0,0.0,0.0,0.0,0.0,0.0,0.0,0.0,-2.4296,-2.6032,-2.7198,-2.9093,-3.0751,-3.1918,-2.9567,-2.8098,-2.8271,0.0,0.0,0.0,0.0,0.0,0.0,0.0,0.0,0.0,0.0,0.0,0.0,0.0,0.0,-4.0121,-4.0655,-4.1246,-4.1853,-4.244,-4.3014,-4.3349,-4.146,-4.0139,-3.8906,-3.4945,-3.3568,-3.3421,-3.076,-3.0503,-3.1066,-2.8851,0.0,0.0,0.0,0.0,0.0,0.0,0.0,0.0,0.0,0.0,0.0,0.0,0.0,0.0,0.0,0.0,0.0,0.0,0.0,0.0,0.0,0.0,0.0,0.0,-3.3485,-3.5994,-3.7533,-3.8261,-3.9377,-4.1424,-4.2033,-4.1999,-4.1271,-4.1204,-4.0882,-4.0163,-4.0096,-4.0096,-4.0096,-4.0096,-4.0096,-4.0096,-4.0096,-4.0096,-4.0096,-3.8633,-3.7905,-3.7889,-3.6326,-3.56,-3.5583,-3.5165,-3.4962,-3.4945,-3.4501,-3.3897,-3.3207,-3.2903,-3.2344,0.0,0.0,0.0,0.0,0.0,-2.6842,-2.5486,0.0,0.0,0.0,0.0,0.0,0.0,0.0,0.0,0.0,0.0,0.0,-2.5541,-2.6015,-2.752,-2.879,-2.9588,-2.7605,-2.6516,0.0,0.0,0.0,0.0,0.0,0.0,0.0,0.0,0.0,0.0,0.0,0.0,0.0,0.0,0.0,0.0,-4.0726,-4.1313,-4.1835,-4.2519,-4.305,-4.3515,-4.3515,-4.346,-4.289,-3.8505,-3.7661,-3.8322,-3.4417,-3.2724,-3.2186,-3.0999,0.0,0.0,0.0,0.0,0.0,0.0,0.0,0.0,0.0,0.0,0.0,0.0,0.0,0.0,0.0,0.0,0.0,0.0,0.0,0.0,0.0,0.0,0.0,0.0,-3.6882,-3.8589,-4.1948,-4.1931,-4.183,-4.2472,-4.2557,-4.2269,-4.1525,-4.1373,-4.1018,-4.0282,-4.0146,-4.0096,-4.0096,0.0,0.0,0.0,0.0,-4.0096,-4.0096,-3.8717,-3.799,-3.7889,-3.6411,-3.5684,-3.56,-3.56,-3.56,-3.56,-3.56,-3.5182,-3.4438,-3.3795,-3.3034,-3.2226,-3.1393,-3.0632,-2.9803,-2.8331,-2.7037,-2.5924,0.0,0.0,0.0,0.0,0.0,0.0,0.0,0.0,0.0,-2.109,-2.2617,-2.3441,-2.2375,-2.4118,-2.5771,-2.6792,-2.5137,-2.4318,0.0,0.0,0.0,0.0,0.0,0.0,0.0,0.0,0.0,0.0,0.0,0.0,0.0,0.0,0.0,0.0,0.0,-4.1686,-4.1874,-4.2903,-4.341,-4.3515,-4.3515,-4.3112,-4.2359,-4.0781,-3.9974,-3.9313,-3.656,-3.6743,-3.7716,-3.4266,-3.3788,-3.4284,-3.2118,0.0,0.0,0.0,0.0,0.0,0.0,0.0,0.0,0.0,0.0,0.0,0.0,0.0,0.0,0.0,0.0,0.0,0.0,0.0,0.0,-3.6395,-3.9223,-4.1677,-4.3014,-4.3623,-4.4005,-4.4141,-4.4175,-4.3826,-4.3037,-4.2439,-4.1779,-4.1035,-4.0451,-4.0096,-4.0096,-4.0096,-4.0096,-4.0096,-4.0096,-4.0096,-4.0096,-3.9249,-3.8481,-3.7889,0.0,0.0,-3.56,-3.56,-3.56,-3.56,-3.56,-3.5182,-3.4472,-3.4336,-3.3491,-3.2175,-3.0835,-2.9854,-2.9093,-2.8145,-2.7037,-2.5995,0.0,0.0,0.0,0.0,0.0,0.0,0.0,0.0,0.0,0.0,-2.2902,-2.3374,-2.262,-2.3664,-2.4629,-2.515,-2.3881,0.0,0.0,0.0,0.0,0.0,0.0,0.0,0.0,0.0,0.0,0.0,0.0,0.0,0.0,0.0,0.0,0.0,0.0,-4.2569,-4.2933,-4.4181,-4.447,-4.4103,-4.4103,-4.3626,-4.2855,-4.2451,-4.2047,-4.1423,-3.9423,-3.9221,-3.946,-3.6611,-3.5936,-3.6009,-3.4325,-3.2693,-3.1005,0.0,0.0,0.0,0.0,0.0,0.0,0.0,0.0,0.0,0.0,0.0,0.0,0.0,0.0,-3.2195,0.0,0.0,-3.7922,-3.98,-4.1982,-4.369,-4.4451,-4.4891,-4.4993,-4.4649,-4.4615,-4.4265,-4.3477,-4.3081,-4.2405,-4.1288,-4.0849,-4.0476,-4.013,-4.0096,-4.0096,-4.0096,-4.0096,-4.0096,-4.0096,-3.9634,-3.9088,-3.843,-3.761,-3.6836,-3.618,-3.5769,-3.56,-3.56,-3.56,-3.538,-3.4996,-3.4252,-3.3309,-3.2192,-3.1072,-3.0192,-2.9397,-2.8229,-2.7413,-2.6815,0.0,0.0,0.0,0.0,0.0,0.0,0.0,0.0,0.0,0.0,0.0,-2.334,-2.3059,-2.336,-2.362,0.0,0.0,0.0,0.0,0.0,0.0,0.0,0.0,0.0,0.0,0.0,0.0,0.0,0.0,0.0,0.0,0.0,0.0,0.0,0.0,0.0,-4.4216,-4.5387,-4.5535,-4.4929,-4.4746,-4.4305,-4.3718,-4.357,-4.3387,-4.3039,-4.1277,-4.0029,-3.8982,-3.7496,-3.6578,-3.5973,-3.5591,-3.4926,-3.3678,-3.0601,-2.9372,0.0,0.0,0.0,0.0,0.0,0.0,0.0,0.0,0.0,-3.1359,-3.2423,-3.4066,-3.5758,-3.7331,-3.8935,-4.079,-4.3031,-4.4079,-4.4869,-4.5602,-4.5585,-4.5263,-4.4682,-4.4615,-4.4361,-4.3707,-4.3477,-4.2861,-4.1508,-4.1375,-4.1053,-4.0288,-4.036,-4.0417,-4.0417,-4.0311,-4.0254,-4.0254,-4.0076,-3.9668,-3.8996,-3.8338,-3.7593,-3.6778,-3.6129,-3.5735,-3.5583,-3.5447,-3.5295,-3.5059,-3.3744,-3.2831,-3.2226,-3.1478,-3.0835,-3.0159,-2.8753,-2.806,-2.7653,0.0,0.0,0.0,0.0,0.0,0.0,0.0,0.0,0.0,0.0,0.0,0.0,0.0,0.0,0.0,0.0,0.0,0.0,0.0,0.0,0.0,0.0,0.0,0.0,0.0,0.0,0.0,0.0,0.0,0.0,0.0,0.0,0.0,0.0,0.0,0.0,0.0,-4.5644,-4.5847,-4.57,-4.5002,-4.4636,-4.4488,-4.3754,-4.3057,-4.2139,-3.9808,-3.7991,-3.656,-3.5591,-3.5224,-3.5389,-3.678,-3.6684,-3.5514,-3.2949,0.0,-2.8767,-2.7695,-2.8117,-2.9555,-3.2412,-3.2221,-3.2983,0.0,0.0,-3.7593,-3.9878,-4.1237,-4.1705,-4.0723,-4.231,-4.3709,-4.3434,-4.4079,-4.4869,-4.5602,-4.5128,-4.4699,-4.4615,-4.4615,-4.4564,-4.4479,-4.3826,-4.3064,-4.2236,-4.2063,-4.1667,-4.0838,-4.1313,-4.1617,-4.1617,-4.1087,-4.0803,-4.0803,-4.0787,-4.0184,-3.9012,-3.9382,-3.8585,-3.6795,-3.6711,-3.6282,-3.5566,-3.4912,-3.4252,-3.3592,-3.2767,-3.2378,-3.2226,-3.1478,-3.114,-3.097,-3.0159,-2.8973,-2.7772,0.0,0.0,0.0,0.0,0.0,0.0,0.0,0.0,0.0,0.0,0.0,0.0,0.0,0.0,0.0,0.0,0.0,0.0,0.0,0.0,0.0,0.0,0.0,0.0,0.0,0.0,0.0,0.0,0.0,0.0,0.0,0.0,0.0,0.0,0.0,0.0,0.0,-4.6982,-4.6764,-4.5865,-4.5535,-4.4837,-4.3864,-4.2598,-4.1117,-3.953,-3.8419,-3.7028,0.0,0.0,-3.3605,-3.4507,-3.46,-3.4743,-3.4266,-3.1353,-3.0454,0.0,-3.0558,-3.1518,0.0,0.0,-3.6288,-3.7992,-4.0559,-4.0708,-4.069,-4.2161,-4.349,-4.4205,-4.3615,-4.463,-4.5369,0.0,-4.5253,-4.5751,-4.571,-4.506,-4.4615,-4.4615,-4.3819,-4.3278,-4.3278,-4.2946,-4.2455,-4.1711,-4.1933,-4.1745,-4.0955,-4.1468,-4.181,-4.181,-4.1556,-4.1424,-4.1424,-4.1771,-4.1502,-4.0629,-4.0425,-3.9465,-3.7887,-3.7126,-3.6349,-3.5583,-3.5261,-3.4726,-3.3981,-3.3237,-3.2933,-3.2814,-3.1647,-3.1464,-3.1701,-3.0531,-2.9683,-2.9007,0.0,0.0,0.0,0.0,0.0,0.0,0.0,0.0,0.0,0.0,0.0,0.0,0.0,0.0,0.0,0.0,0.0,0.0,0.0,0.0,0.0,0.0,0.0,0.0,0.0,0.0,0.0,0.0,0.0,0.0,0.0,0.0,0.0,0.0,0.0,0.0,0.0,-4.7388,-4.6966,-4.5865,-4.5424,-4.4397,-4.2945,-4.0937,-3.877,-3.6729,-3.6362,-3.4958,0.0,0.0,-3.1308,-3.2298,-3.2022,-3.2504,-3.2687,-3.0356,-3.0485,-3.1525,-3.2118,0.0,0.0,-3.7239,-4.0072,-4.2396,-4.2232,-4.3001,-4.3899,-4.4414,-4.5215,-4.5752,-4.5597,-4.5815,-4.5841,-4.5275,-4.5624,-4.5895,-4.5721,-4.4874,-4.4265,-4.4265,-4.2912,-4.1914,-4.1721,-4.2049,-4.1982,-4.1271,-4.1916,-4.1986,-4.119,-4.1856,-4.2266,-4.2266,-4.2124,-4.2059,-4.2059,-4.248,-4.24,-4.1793,-4.1265,-4.0303,-3.895,-3.7467,-3.6248,-3.5295,-3.5295,-3.4878,-3.415,-3.3626,-3.3406,-3.3305,-3.2222,-3.2002,-3.2175,-3.1106,-3.0446,-2.9937,0.0,0.0,0.0,0.0,0.0,0.0,0.0,0.0,0.0,0.0,0.0,0.0,0.0,0.0,0.0,0.0,0.0,0.0,0.0,0.0,0.0,0.0,0.0,0.0,0.0,0.0,0.0,0.0,0.0,0.0,0.0,0.0,0.0,0.0,0.0,0.0,0.0,0.0,-4.5938,-4.5755,-4.4212,-4.3075,-4.2026,-3.9017,-3.6366,-3.4105,-3.3314,0.0,0.0,0.0,-2.8112,-2.8257,-2.9787,-3.0834,0.0,-3.136,-3.136,0.0,0.0,0.0,-3.7019,-4.0159,-4.2801,-4.5003,-4.6544,-4.7516,-4.8121,-4.8139,-4.7552,-4.6867,-4.6292,-4.5557,-4.4889,-4.4396,-4.4361,-4.4672,-4.5569,-4.4401,-4.3426,-4.3426,-4.2134,-4.095,0.0,-4.1467,-4.1982,-4.1271,-4.2253,-4.2564,-4.1803,-4.2829,-4.3444,-4.3444,-4.2939,-4.2674,-4.2674,-4.2692,-4.24,-4.181,-4.1775,-4.1051,-3.9708,-3.77,-3.5983,-3.4523,-3.4523,-3.4117,-3.344,-3.3423,-3.3406,-3.3406,-3.3355,-3.2899,-3.2293,-3.2242,-3.1326,-3.0089,0.0,0.0,0.0,0.0,0.0,0.0,0.0,0.0,0.0,0.0,0.0,0.0,0.0,0.0,0.0,0.0,0.0,0.0,0.0,0.0,0.0,0.0,0.0,0.0,0.0,0.0,0.0,0.0,0.0,0.0,0.0,0.0,0.0,0.0,0.0,0.0,0.0,0.0,-4.2511,-4.202,-4.0249,-3.9224,-3.8415,-3.5039,-3.2739,-3.113,0.0,0.0,0.0,0.0,0.0,0.0,-2.6293,0.0,0.0,-3.0136,-3.0595,-3.1311,0.0,0.0,-4.0928,-4.3608,-4.6122,-4.8086,-4.8636,-4.8526,-4.8159,-4.7608,-4.6012,-4.4655,-4.4455,-4.3901,-4.3281,-4.266,-4.3565,-4.4156,-4.3529,-4.3436,-4.3037,-4.2066,-4.1508,0.0,0.0,0.0,0.0,-4.0476,-4.1528,-4.2076,-4.181,-4.2884,-4.3515,-4.3515,-4.3321,-4.3232,-4.3232,-4.3232,-4.3124,-4.2903,-4.1669,-4.0438,-3.9218,-3.8051,-3.6975,-3.6034,-3.6034,-3.5284,-3.4134,-3.4134,-3.4333,-3.4576,-3.3722,-3.3775,-3.418,-3.3332,-3.2408,-3.141,0.0,0.0,0.0,0.0,0.0,0.0,0.0,0.0,0.0,0.0,0.0,0.0,0.0,0.0,0.0,0.0,0.0,0.0,0.0,0.0,0.0,0.0,0.0,0.0,0.0,0.0,0.0,0.0,0.0,0.0,0.0,0.0,0.0,0.0,0.0,0.0,0.0,0.0,-3.7968,-3.7533,-3.6091,-3.52,-3.4449,-3.1686,-2.9962,0.0,0.0,0.0,0.0,0.0,0.0,0.0,0.0,-2.6135,-2.8246,-3.0081,-3.1458,-3.3385,0.0,-4.113,-4.3883,-4.6893,-4.8838,-4.9939,-4.9665,-4.893,-4.7829,-4.6159,-4.4121,-4.247,-4.1882,-4.0788,-4.0113,-4.0622,-4.1508,-4.2243,-4.2552,-4.2605,-4.2371,-4.1677,-4.1373,-4.0916,0.0,0.0,0.0,-4.041,-4.1263,-4.1895,-4.2121,-4.3014,-4.3515,-4.3515,-4.3515,-4.3515,-4.3515,-4.3515,-4.341,-4.3214,-4.1767,-4.0456,-3.9259,-3.8594,-3.7889,-3.7161,-3.6914,-3.6237,-3.5306,-3.5013,-3.5095,-3.5328,-3.4736,-3.4796,-3.5206,-3.4249,-3.3431,-3.264,0.0,0.0,0.0,0.0,0.0,0.0,0.0,0.0,0.0,0.0,0.0,0.0,0.0,0.0,0.0,0.0,0.0,0.0,0.0,0.0,0.0,0.0,0.0,0.0,0.0,0.0,0.0,0.0,0.0,0.0,0.0,0.0,0.0,0.0,0.0,0.0,0.0,0.0,0.0,-3.2664,-3.1947,0.0,-3.0415,-2.9028,0.0,0.0,0.0,0.0,0.0,0.0,0.0,0.0,0.0,0.0,-3.0503,-3.1452,-3.3972,-3.7349,-4.1387,-4.3699,-4.5902,-4.9829,-5.0802,-5.0582,-4.9739,-4.8728,-4.7095,-4.3956,-4.1901,-4.0178,0.0,0.0,-3.5772,-3.831,-3.8475,-3.9402,-4.2614,-4.2074,-4.1593,0.0,0.0,0.0,0.0,0.0,0.0,-4.1123,0.0,-4.2101,-4.2655,-4.3214,-4.3515,-4.3515,-4.3515,-4.3515,-4.3515,-4.3515,-4.3232,-4.2693,-4.2121,-4.1147,-3.9869,-3.9351,-3.8706,-3.8001,-3.7242,-3.692,-3.6824,-3.5994,-3.5695,-3.579,-3.6241,-3.6006,-3.5379,-3.5063,-3.4429,-3.3704,0.0,0.0,0.0,0.0,0.0,0.0,0.0,0.0,0.0,0.0,0.0,0.0,0.0,0.0,0.0,0.0,0.0,0.0,0.0,0.0,0.0,0.0,0.0,0.0,0.0,0.0,0.0,0.0,0.0,0.0,0.0,0.0,0.0,0.0,0.0,0.0,0.0,0.0,0.0,-3.0396,0.0,-2.8487,-2.8428,0.0,0.0,0.0,0.0,0.0,0.0,0.0,0.0,0.0,0.0,0.0,-3.2522,-3.5179,-3.7401,-3.9845,-4.3883,-4.6581,-4.8673,-5.038,-5.0802,-5.0417,-4.8967,-4.614,-4.3259,-4.1222,-3.7588,-3.4454,0.0,0.0,0.0,-3.6082,-3.8936,0.0,-4.2241,-4.3167,0.0,0.0,0.0,-4.2557,-4.1796,-4.249,0.0,0.0,-4.2781,-4.2539,-4.2692,-4.3214,-4.3515,-4.3515,-4.3515,-4.3515,-4.3515,-4.3515,-4.3232,-4.2711,-4.2539,-4.2073,-4.1274,-4.0672,-4.0273,-3.9921,-3.8875,-3.8342,-3.8141,-3.6962,-3.6933,-3.7528,-3.6724,-3.6742,-3.7184,-3.6753,-3.5704,-3.4552,0.0,0.0,0.0,0.0,0.0,0.0,0.0,0.0,0.0,0.0,0.0,0.0,0.0,0.0,0.0,0.0,0.0,0.0,0.0,0.0,0.0,0.0,0.0,0.0,0.0,0.0,0.0,0.0,0.0,0.0,0.0,0.0,0.0,0.0,0.0,0.0,0.0,0.0,0.0,0.0,0.0,0.0,0.0,0.0,0.0,0.0,0.0,0.0,0.0,0.0,0.0,-2.9849,-3.172,-3.3665,-3.5862,-3.8744,0.0,-4.3259,-4.6599,-4.9022,-5.071,-5.1206,-5.0802,-4.9462,-4.6379,-4.3369,-4.0286,-3.6872,-3.3697,0.0,0.0,0.0,0.0,0.0,0.0,0.0,-4.0787,-4.2236,-4.2895,0.0,-4.2963,0.0,-4.2792,-4.3273,-4.3715,0.0,-4.3526,-4.3333,-4.3577,-4.3522,-4.3515,-4.3515,-4.3515,-4.3515,-4.3515,-4.3515,-4.3357,-4.305,-4.2826,-4.2519,-4.2162,-4.1578,-4.1244,-4.112,0.0,-3.9685,-3.9501,-3.8465,-3.8133,-3.8286,-3.7787,-3.7718,-3.7857,-3.7481,-3.6762,-3.5966,0.0,0.0,0.0,0.0,0.0,0.0,0.0,0.0,0.0,0.0,0.0,0.0,0.0,0.0,0.0,0.0,0.0,0.0,0.0,0.0,0.0,0.0,0.0,0.0,0.0,0.0,0.0,0.0,0.0,0.0,0.0,0.0,0.0,0.0,0.0,0.0,0.0,0.0,0.0,0.0,0.0,0.0,0.0,0.0,0.0,0.0,0.0,0.0,0.0,0.0,-3.065,-3.1568,-3.4784,-3.7499,-3.9955,-4.2268,-4.4507,-4.6728,-4.9115,-5.0859,-5.1958,-5.1867,-5.0527,-4.8012,-4.324,-4.0561,-3.7584,-3.2192,0.0,-2.9108,-2.7603,0.0,-2.7901,-3.1422,0.0,-3.5192,-3.9376,-4.073,-4.1586,-4.2364,-4.3095,-4.3568,-4.3605,-4.4021,-4.427,-4.4207,-4.4072,-4.4158,-4.4508,-4.3883,-4.3515,-4.3515,-4.3515,-4.3551,-4.3644,-4.3551,-4.3551,-4.3644,-4.3087,-4.2807,-4.2788,-4.2183,-4.1958,-4.1967,-4.1189,-4.0887,-4.0895,-4.0091,-3.9309,-3.8657,-3.8978,-3.8649,-3.7975,-3.776,-3.7584,-3.7401,0.0,0.0,0.0,0.0,0.0,0.0,0.0,0.0,0.0,0.0,0.0,0.0,0.0,0.0,0.0,0.0,0.0,0.0,0.0,0.0,0.0,0.0,0.0,0.0,0.0,0.0,0.0,0.0,0.0,0.0,0.0,0.0,0.0,0.0,0.0,0.0,0.0,0.0,0.0,0.0,0.0,0.0,0.0,0.0,0.0,0.0,0.0,0.0,0.0,0.0,-3.3012,-3.5807,-3.9022,-4.1701,-4.3994,-4.5755,-4.7021,-4.8288,-5.0105,-5.1279,-5.183,-5.1169,-4.926,-4.6434,-4.2251,-3.7973,0.0,0.0,0.0,-2.5944,-2.4997,-2.6337,0.0,-3.1942,0.0,0.0,0.0,0.0,-4.22,0.0,0.0,0.0,0.0,0.0,0.0,0.0,0.0,-4.4308,-4.3736,-4.3588,-4.3515,-4.3515,-4.3515,-4.3809,-4.4488,-4.3828,-4.3828,-4.4488,-4.3703,-4.3375,-4.3339,-4.2789,-4.2789,-4.3142,-4.2065,0.0,-4.225,-4.1011,-4.0249,-3.9841,-3.9301,-3.8873,-3.8562,-3.8511,-3.8065,-3.7474,0.0,0.0,0.0,0.0,0.0,0.0,0.0,0.0,0.0,0.0,0.0,0.0,0.0,0.0,0.0,0.0,0.0,0.0,0.0,0.0,0.0,0.0,0.0,0.0,0.0,0.0,0.0,0.0,0.0,0.0,0.0,0.0,0.0,0.0,0.0,0.0,0.0,0.0,0.0,0.0,0.0,0.0,0.0,0.0,0.0,0.0,0.0,0.0,0.0,0.0,-3.1751,-3.4669,-4.0047,-4.3094,-4.5021,-4.6636,-4.7957,-4.9205,-5.0453,-5.1683,-5.2325,-5.1114,-4.8618,-4.5094,-3.9808,0.0,0.0,0.0,0.0,-2.4658,-2.4263,0.0,0.0,0.0,0.0,0.0,0.0,0.0,0.0,0.0,0.0,0.0,0.0,0.0,0.0,0.0,0.0,-4.4085,-4.4121,-4.3718,-4.3515,-4.3515,-4.3515,-4.3681,-4.4066,-4.3681,-4.3681,-4.4066,-4.3681,-4.3515,-4.3479,-4.3232,-4.325,-4.3462,-4.2922,-4.2847,-4.3069,-4.243,-4.1814,-4.123,-4.0447,-3.9814,-3.9276,-3.8854,-3.8469,-3.812,0.0,0.0,0.0,0.0,0.0,0.0,0.0,0.0,0.0,0.0,0.0,0.0,0.0,0.0,0.0,0.0,0.0,0.0,0.0,0.0,0.0,0.0,0.0,0.0,0.0,0.0,0.0,0.0,0.0,0.0,0.0,0.0,0.0,0.0,0.0,0.0,0.0,0.0,0.0,0.0,0.0,0.0,0.0,0.0,0.0,0.0,0.0,0.0,0.0,0.0,-2.9731,-3.2047,-3.8264,-4.1809,-4.3956,-4.5388,-4.7333,-4.9205,-5.0251,-5.1591,-5.238,-5.1132,-4.8067,-4.3791,-3.7679,-3.3623,0.0,0.0,-2.419,-2.419,-2.419,0.0,0.0,0.0,0.0,0.0,0.0,0.0,0.0,0.0,0.0,0.0,0.0,0.0,0.0,0.0,0.0,0.0,-4.4415,-4.3828,-4.3515,-4.3515,-4.3515,-4.3588,-4.3754,-4.3589,-4.3589,-4.3754,-4.3588,-4.3515,-4.3515,-4.3515,-4.3515,-4.3515,-4.3515,-4.3515,-4.3515,-4.3515,-4.302,-4.2213,-4.1407,-4.0726,-4.0047,-3.9056,-3.8817,-3.8927,0.0,0.0,0.0,0.0,0.0,0.0,0.0,0.0,0.0,0.0,0.0,0.0,0.0,0.0,0.0,0.0,0.0,0.0,0.0,0.0,0.0,0.0,0.0,0.0,0.0,0.0,0.0,0.0,0.0,0.0,0.0,0.0,0.0,0.0,0.0,0.0,0.0,0.0,0.0,0.0,0.0,0.0,0.0,0.0,0.0,0.0,0.0,0.0,0.0,0.0,0.0,-2.9961,-3.2641,-3.6652,-4.0506,-4.1389,0.0,0.0,-4.9279,-5.0343,-5.0986,-5.0839,-4.7223,-4.2431,-3.7422,0.0,0.0,0.0,-2.419,-2.419,-2.419,-2.4263,-2.5061,0.0,0.0,0.0,0.0,0.0,0.0,0.0,0.0,0.0,0.0,0.0,0.0,0.0,0.0,0.0,-4.3625,-4.3551,-4.3515,-4.3515,-4.3515,-4.3846,-4.458,-4.3864,-4.3864,-4.458,-4.3846,-4.3515,-4.3515,-4.3515,-4.3515,-4.3515,-4.3515,-4.3515,0.0,-4.3515,-4.302,-4.2213,-4.1407,-4.104,-4.0802,-3.9276,-3.9166,-3.968,0.0,0.0,0.0,0.0,0.0,0.0,0.0,0.0,0.0,0.0,0.0,0.0,0.0,0.0,0.0,0.0,0.0,0.0,0.0,0.0,0.0,0.0,0.0,0.0,0.0,0.0,0.0,0.0,0.0,0.0,0.0,0.0,0.0,0.0,0.0,0.0,0.0,0.0,0.0,0.0,0.0,0.0,0.0,0.0,0.0,0.0,0.0,0.0,0.0,0.0,0.0,0.0,-2.7625,-3.024,0.0,0.0,-4.1748,-4.452,-4.7853,-4.954,-5.025,-4.9769,-4.5922,-4.1089,-3.6694,0.0,0.0,-2.5014,-2.4284,-2.419,-2.419,-2.419,-2.4502,0.0,0.0,0.0,0.0,0.0,0.0,0.0,0.0,0.0,0.0,0.0,0.0,0.0,0.0,0.0,-4.3533,-4.3515,-4.3718,-4.4213,-4.3754,-4.3883,-4.4691,-4.3901,-4.3644,-4.3975,-4.3662,-4.3515,-4.3515,-4.3515,-4.3515,-4.3515,-4.3515,-4.3515,0.0,-4.3515,-4.302,-4.2213,-4.1407,-4.0802,-4.0249,-3.9111,-3.8909,-3.9129,0.0,0.0,0.0,0.0,0.0,0.0,0.0,0.0,0.0,0.0,0.0,0.0,0.0,0.0,0.0,0.0,0.0,0.0,0.0,0.0,0.0,0.0,0.0,0.0,0.0,0.0,0.0,0.0,0.0,0.0,0.0,0.0,0.0,0.0,0.0,0.0,0.0,0.0,0.0,0.0,0.0,0.0,0.0,0.0,0.0,0.0,0.0,0.0,0.0,0.0,0.0,0.0,0.0,0.0,0.0,0.0,-3.8327,-4.144,-4.5303,-4.7541,-4.8716,-4.8392,-4.4371,-3.9546,0.0,0.0,-2.7204,-2.4959,-2.4393,-2.4266,-2.4209,-2.419,-2.419,0.0,0.0,0.0,0.0,0.0,0.0,0.0,0.0,0.0,0.0,0.0,0.0,0.0,0.0,0.0,-4.3716,-4.3646,-4.3855,-4.4323,-4.3791,-4.3754,-4.4342,-4.3773,-4.3515,-4.3515,-4.3515,-4.3515,-4.3515,-4.3515,-4.3515,-4.3515,-4.3515,-4.3515,0.0,-4.3515,-4.302,-4.2213,-4.1407,-4.0747,-4.012,-3.9093,-3.8854,-3.9019,0.0,0.0,0.0,0.0,0.0,0.0,0.0,0.0,0.0,0.0,0.0,0.0,0.0,0.0,0.0,0.0,0.0,0.0,0.0,0.0,0.0,0.0,0.0,0.0,0.0,0.0,0.0,0.0,0.0,0.0,0.0,0.0,0.0,0.0,0.0,0.0,0.0,0.0,0.0,0.0,0.0,0.0,0.0,0.0,0.0,0.0,0.0,0.0,0.0,0.0,0.0,0.0,0.0,0.0,0.0,0.0,-3.3751,-3.8787,-4.1292,-4.3826,-4.5937,-4.6713,-4.2592,-3.7679,0.0,0.0,-2.6685,-2.4881,-2.4503,-2.4445,-2.4237,-2.419,-2.419,-2.419,0.0,0.0,0.0,0.0,0.0,0.0,0.0,0.0,0.0,0.0,0.0,0.0,0.0,0.0,-4.4069,-4.3982,-4.3852,-4.3515,-4.3515,-4.3515,-4.3497,-4.3515,-4.3515,-4.3515,-4.3515,-4.3515,-4.3515,-4.3515,-4.3515,-4.3515,-4.3515,-4.3515,0.0,-4.3515,-4.302,-4.2213,-4.1407,-4.1095,-4.0893,-3.9294,-3.9203,-3.9772,0.0,0.0,0.0,0.0,0.0,0.0,0.0,0.0,0.0,0.0,0.0,0.0,0.0,0.0,0.0,0.0,0.0,0.0,0.0,0.0,0.0,0.0,0.0,0.0,0.0,0.0,0.0,0.0,0.0,0.0,0.0,0.0,0.0,0.0,0.0,0.0,0.0,0.0,0.0,0.0,0.0,0.0,0.0,0.0,0.0,0.0,0.0,0.0,0.0,0.0,0.0,0.0,0.0,0.0,0.0,0.0,0.0,0.0,-3.6629,-3.8327,-3.9207,-3.9513,-3.6905,-3.3762,-3.1832,-2.8897,-2.6246,-2.5079,-2.4655,-2.4478,-2.4428,-2.4294,-2.4557,-2.5658,-2.6043,0.0,0.0,0.0,0.0,0.0,0.0,0.0,0.0,0.0,0.0,0.0,0.0,0.0,-4.4471,-4.4419,-4.4382,-4.4322,-4.3791,-4.3754,-4.4305,-4.3754,-4.3515,-4.3515,-4.3515,-4.3515,-4.3515,-4.3515,-4.3515,-4.3515,-4.3515,-4.3515,-4.3515,-4.3515,-4.269,-4.1444,-4.1187,-4.0416,-3.9405,-3.8891,-3.8854,-3.8964,0.0,0.0,0.0,0.0,0.0,0.0,0.0,0.0,0.0,0.0,0.0,0.0,0.0,0.0,0.0,0.0,0.0,0.0,0.0,0.0,0.0,0.0,0.0,0.0,0.0,0.0,0.0,0.0,0.0,0.0,0.0,0.0,0.0,0.0,0.0,0.0,0.0,0.0,0.0,0.0,0.0,0.0,-2.3144,0.0,0.0,0.0,0.0,0.0,0.0,0.0,0.0,0.0,0.0,0.0,0.0,0.0,-2.6274,0.0,0.0,-3.4457,-3.5384,-3.542,-3.3524,0.0,0.0,-2.7624,-2.5653,-2.51,-2.4718,-2.4528,-2.4591,-2.4444,-2.4644,-2.5631,-2.6056,0.0,0.0,0.0,0.0,0.0,0.0,0.0,0.0,0.0,0.0,0.0,0.0,0.0,-4.485,-4.48,-4.4672,-4.445,-4.3822,-4.3736,-4.425,-4.3736,-4.3515,-4.3515,-4.3515,-4.3515,-4.3496,-4.3629,-4.3677,-4.3693,-4.3836,-4.3915,0.0,-4.3426,-4.2474,-4.1258,-4.0929,-3.9988,-3.8873,-3.898,-3.8837,-3.847,0.0,0.0,0.0,0.0,0.0,0.0,0.0,0.0,0.0,0.0,0.0,0.0,0.0,0.0,0.0,0.0,0.0,0.0,0.0,0.0,0.0,0.0,0.0,0.0,0.0,0.0,0.0,-2.0219,-2.0273,-2.0852,-2.1912,0.0,0.0,0.0,0.0,0.0,0.0,-2.2286,-2.1751,-2.0523,-2.2021,-2.2209,0.0,0.0,0.0,0.0,0.0,0.0,0.0,0.0,0.0,0.0,0.0,0.0,0.0,0.0,0.0,0.0,0.0,0.0,0.0,0.0,0.0,0.0,0.0,-2.6855,0.0,-2.5022,-2.4754,-2.461,-2.4865,-2.4692,-2.4595,-2.4801,-2.5547,0.0,0.0,0.0,0.0,0.0,0.0,0.0,0.0,0.0,0.0,0.0,0.0,0.0,-4.5197,-4.5107,-4.4793,-4.4102,-4.3758,-4.3546,-4.3531,-4.3513,-4.3513,-4.3582,-4.3548,-4.3548,-4.358,-4.3896,-4.4028,0.0,-4.4447,-4.4555,-4.4416,-4.3301,-4.2323,-4.1446,-4.0654,-3.9834,-3.916,-3.9493,-3.9059,-3.8301,0.0,0.0,0.0,0.0,0.0,0.0,0.0,0.0,0.0,0.0,0.0,0.0,0.0,0.0,0.0,0.0,0.0,0.0,0.0,0.0,0.0,0.0,0.0,0.0,0.0,0.0,0.0,-2.0436,-2.1093,-2.1956,-2.2967,-2.3572,0.0,0.0,0.0,-2.157,-2.0608,-2.0801,-2.1071,-2.1349,-2.102,-2.1555,0.0,0.0,0.0,0.0,-2.4793,-2.5135,0.0,0.0,0.0,0.0,0.0,0.0,0.0,0.0,-2.3586,-2.4322,-2.5317,0.0,-2.7385,-2.7385,0.0,0.0,0.0,0.0,0.0,0.0,0.0,0.0,0.0,-2.5277,-2.5496,-2.7858,-2.9092,0.0,0.0,0.0,0.0,0.0,0.0,0.0,0.0,0.0,0.0,0.0,0.0,-4.578,-4.5495,-4.5232,-4.5011,-4.4842,-4.4527,-4.4194,-4.3896,-4.3629,-4.3775,-4.4337,-4.4016,-4.4031,-4.4337,-4.4419,-4.446,-4.4474,-4.4553,-4.4221,-4.3573,-4.3307,-4.2327,-4.0961,-4.0773,-4.0183,-3.9486,-3.9576,-3.9059,-3.8301,0.0,0.0,0.0,0.0,0.0,0.0,0.0,0.0,0.0,0.0,0.0,0.0,0.0,0.0,0.0,0.0,0.0,0.0,0.0,0.0,0.0,0.0,0.0,0.0,0.0,0.0,0.0,0.0,0.0,-2.238,0.0,0.0,0.0,0.0,0.0,-2.1396,-2.031,-2.031,-2.0604,-2.1064,-2.0548,0.0,0.0,0.0,0.0,0.0,-2.4466,-2.4755,0.0,-2.4293,-2.3543,-2.2816,0.0,0.0,0.0,0.0,-2.2547,-2.3086,-2.3879,-2.4697,-2.5308,-2.5308,-2.5308,-2.5308,0.0,0.0,0.0,0.0,0.0,0.0,0.0,0.0,0.0,0.0,0.0,0.0,0.0,0.0,0.0,0.0,0.0,0.0,0.0,0.0,0.0,0.0,0.0,-4.5594,-4.5594,-4.5429,-4.5253,-4.5096,-4.4919,-4.4657,-4.4276,-4.4095,-4.4213,-4.4612,-4.4392,-4.4392,-4.4612,-4.4745,-4.4837,-4.483,-4.457,-4.4176,-4.3689,-4.2746,-4.1855,-4.0983,-4.0612,-4.0206,-3.984,-3.9974,-3.9481,-3.8766,0.0,0.0,0.0,0.0,0.0,0.0,0.0,0.0,0.0,0.0,0.0,0.0,0.0,0.0,0.0,0.0,0.0,0.0,0.0,0.0,0.0,0.0,0.0,0.0,0.0,0.0,0.0,0.0,0.0,0.0,0.0,0.0,-2.4247,0.0,0.0,-2.108,-2.0327,-2.0338,-2.0363,-2.043,-2.0423,0.0,0.0,0.0,0.0,0.0,0.0,0.0,0.0,-2.3252,-2.2925,-2.2693,-2.1961,0.0,0.0,0.0,0.0,0.0,-2.3451,-2.4582,-2.5308,-2.5308,-2.5308,-2.5308,0.0,0.0,0.0,0.0,0.0,0.0,0.0,0.0,0.0,0.0,0.0,0.0,0.0,0.0,0.0,0.0,0.0,0.0,0.0,0.0,0.0,0.0,0.0,-4.5594,-4.5594,-4.5594,-4.5476,-4.5191,-4.518,-4.5052,-4.4745,-4.4644,-4.4644,-4.4745,-4.4695,-4.4695,-4.4757,-4.4919,-4.4989,-4.4942,0.0,0.0,-4.378,-4.2077,-4.1294,-4.1103,-4.0425,-4.0158,-4.0186,-4.0425,-3.9996,-3.9304,0.0,0.0,0.0,0.0,0.0,0.0,0.0,0.0,0.0,0.0,0.0,0.0,0.0,0.0,0.0,0.0,0.0,0.0,0.0,0.0,0.0,0.0,0.0,0.0,0.0,0.0,0.0,0.0,0.0,0.0,-2.3674,-2.4524,-2.4221,-2.2905,-2.1987,-2.1147,-2.04,-2.0441,-2.0511,-2.0564,-2.0511,0.0,0.0,0.0,0.0,0.0,0.0,0.0,0.0,-2.4033,-2.3531,-2.295,-2.2817,0.0,0.0,0.0,0.0,0.0,-2.274,-2.4139,-2.5308,-2.5308,-2.5308,-2.5308,0.0,0.0,0.0,0.0,0.0,0.0,0.0,0.0,0.0,0.0,0.0,0.0,0.0,0.0,0.0,0.0,0.0,0.0,0.0,0.0,0.0,0.0,0.0,-4.5594,-4.5594,-4.5594,-4.5577,-4.5522,-4.5522,-4.5504,-4.5448,-4.4877,-4.4877,-4.5438,-4.515,-4.5161,-4.5428,-4.4746,-4.4418,-4.4379,0.0,-4.2874,-4.2154,-4.1852,-4.1286,-4.0622,-4.0487,-4.0449,-4.043,-4.0481,-3.9996,-3.9304,0.0,0.0,0.0,0.0,0.0,0.0,0.0,0.0,0.0,0.0,0.0,0.0,0.0,0.0,0.0,0.0,0.0,0.0,0.0,0.0,0.0,0.0,0.0,0.0,0.0,0.0,0.0,0.0,0.0,-2.3281,-2.4207,-2.4412,-2.3928,-2.2821,-2.1972,-2.1162,-2.0449,-2.0458,-2.0488,-2.0541,0.0,0.0,0.0,0.0,0.0,0.0,0.0,0.0,0.0,0.0,-2.3701,-2.2998,-2.2998,0.0,0.0,0.0,0.0,0.0,-2.2624,-2.3722,-2.4755,-2.5192,-2.6,-2.6582,0.0,0.0,0.0,0.0,0.0,0.0,0.0,0.0,0.0,0.0,0.0,0.0,0.0,0.0,0.0,0.0,0.0,0.0,0.0,0.0,0.0,0.0,0.0,0.0,-4.5594,-4.5594,-4.5594,-4.5594,-4.5594,-4.5594,-4.5594,-4.5283,-4.5312,-4.5594,-4.5438,-4.5189,-4.4874,-4.447,-4.4066,-4.3605,0.0,-4.2181,-4.175,-4.1296,-4.0854,-4.0458,-4.0015,-4.0112,-4.0496,-4.0496,-4.0265,-3.9823,0.0,0.0,0.0,0.0,0.0,0.0,0.0,0.0,0.0,0.0,0.0,0.0,0.0,0.0,0.0,0.0,0.0,0.0,0.0,0.0,0.0,0.0,0.0,0.0,0.0,0.0,-2.145,-2.2066,-2.3078,-2.3935,-2.4632,-2.4065,-2.3372,0.0,-2.17,-2.1018,-2.051,-2.0449,-2.0444,-2.0507,0.0,0.0,0.0,0.0,0.0,0.0,0.0,0.0,0.0,0.0,0.0,0.0,0.0,0.0,0.0,-2.1523,-2.1619,-2.21,-2.2966,-2.3798,-2.4546,0.0,0.0,0.0,0.0,0.0,0.0,0.0,0.0,0.0,0.0,0.0,0.0,0.0,0.0,0.0,0.0,0.0,0.0,0.0,0.0,0.0,0.0,0.0,0.0,0.0,0.0,0.0,-4.5594,-4.5594,-4.5594,-4.5594,-4.5594,-4.5594,-4.5594,-4.5594,-4.5594,-4.5594,-4.5594,-4.5152,-4.4297,-4.4105,-4.3566,-4.2758,-4.1873,-4.1508,-4.145,-4.0785,-4.0496,-4.0419,-3.9611,-3.9688,-4.0189,-3.9996,-4.0035,-4.0015,0.0,0.0,0.0,0.0,0.0,0.0,0.0,0.0,0.0,0.0,0.0,0.0,0.0,0.0,0.0,0.0,0.0,0.0,0.0,0.0,0.0,0.0,0.0,0.0,0.0,-2.0026,-2.1612,-2.2273,-2.3289,-2.3919,-2.414,-2.3288,-2.2462,-2.1665,-2.0842,-2.049,-2.0491,-2.0485,-2.051,-2.0486,-2.0432,0.0,0.0,0.0,0.0,0.0,0.0,0.0,0.0,0.0,0.0,0.0,0.0,0.0,-2.4199,-2.4121,-2.3533,-2.3071,-2.3889,-2.4686,-2.531,-2.5298,0.0,0.0,0.0,0.0,0.0,0.0,0.0,0.0,0.0,0.0,0.0,0.0,0.0,0.0,0.0,0.0,0.0,0.0,0.0,0.0,0.0,0.0,0.0,0.0,0.0,0.0,-4.5594,-4.5594,-4.5594,-4.5594,-4.5594,-4.5594,-4.5594,-4.5594,-4.5594,-4.5594,-4.5594,-4.5152,-4.4278,-4.3528,-4.272,-4.1827,-4.0969,-4.0593,-4.0593,-4.0535,-4.0496,-4.0419,-3.9611,-3.9342,-3.9284,-3.8469,-3.8681,-3.9246,0.0,0.0,0.0,0.0,0.0,0.0,0.0,0.0,0.0,0.0,0.0,0.0,0.0,0.0,0.0,0.0,0.0,0.0,0.0,0.0,0.0,0.0,0.0,-1.716,-1.7616,-2.0653,-2.2296,-2.2417,-2.3355,-2.3632,-2.3278,-2.2389,0.0,0.0,-2.0787,-2.047,-2.0564,-2.052,-2.0477,-2.0435,-2.0416,-2.0387,0.0,0.0,0.0,0.0,0.0,0.0,0.0,0.0,-2.334,-2.3281,0.0,0.0,0.0,0.0,-2.3696,-2.3876,-2.4127,-2.5173,-2.6068,-2.5452,0.0,0.0,0.0,0.0,0.0,0.0,0.0,0.0,0.0,0.0,0.0,0.0,0.0,0.0,0.0,0.0,0.0,0.0,0.0,0.0,0.0,0.0,0.0,0.0,0.0,0.0,-4.5594,-4.5594,-4.5344,-4.4797,-4.4778,-4.4547,-4.4047,-4.4528,-4.4528,-4.4066,-4.5094,-4.4883,-4.3547,-4.3239,-4.2335,-4.0969,-4.065,-4.0496,-4.0496,-4.0496,-4.0208,-3.9669,-3.8815,-3.8161,-3.7719,-3.7911,-3.82,-3.8373,0.0,0.0,0.0,0.0,0.0,0.0,0.0,0.0,0.0,0.0,0.0,0.0,0.0,0.0,0.0,0.0,0.0,0.0,0.0,0.0,0.0,0.0,0.0,-1.6756,-1.7314,-2.0408,-2.2076,-2.2185,-2.3056,-2.3107,-2.237,0.0,0.0,0.0,0.0,0.0,-2.0605,-2.0537,-2.0476,-2.043,-2.0416,-2.0354,0.0,0.0,0.0,0.0,0.0,0.0,0.0,0.0,-2.2964,0.0,0.0,0.0,0.0,0.0,-2.3493,-2.3906,-2.3833,-2.4841,-2.5816,0.0,0.0,0.0,0.0,0.0,0.0,0.0,0.0,0.0,0.0,0.0,0.0,0.0,0.0,0.0,0.0,0.0,0.0,0.0,0.0,0.0,0.0,0.0,0.0,0.0,0.0,0.0,-4.521,-4.519,-4.4797,-4.3951,-4.3912,-4.3662,-4.3104,-4.3643,-4.3643,-4.3104,-4.4259,-4.4066,-4.2701,-4.297,-4.2143,-4.0496,-4.0496,-4.0496,-4.0477,-4.0227,-3.9477,-3.8411,-3.7815,-3.7238,-3.6731,-3.7084,-3.7373,-3.7469,0.0,0.0,0.0,0.0,0.0,0.0,0.0,0.0,0.0,0.0,0.0,0.0,0.0,0.0,0.0,0.0,0.0,0.0,0.0,0.0,0.0,0.0,0.0,-1.6487,-1.6506,-1.8984,-2.0696,-2.1504,-2.235,-2.2331,-2.1485,-2.1485,0.0,0.0,0.0,0.0,0.0,-2.0537,-2.0508,-2.0486,-2.045,-2.0376,-2.0299,0.0,0.0,0.0,0.0,0.0,0.0,0.0,-2.1028,0.0,0.0,0.0,0.0,0.0,-2.3105,-2.3103,-2.3028,-2.3618,0.0,0.0,0.0,0.0,0.0,0.0,0.0,0.0,0.0,0.0,0.0,0.0,0.0,0.0,0.0,0.0,0.0,0.0,0.0,0.0,0.0,0.0,0.0,0.0,0.0,0.0,0.0,-4.521,-4.4335,-4.4297,-4.3912,-4.3104,-4.3085,-4.3085,-4.3085,-4.3085,-4.3085,-4.3085,-4.3085,-4.2643,-4.1827,-4.2701,-4.2143,-4.0496,-4.0496,-4.0477,-4.0419,-3.9611,-3.8257,-3.6712,-3.6692,-3.6692,-3.6596,-3.5788,-3.6,-3.6577,0.0,0.0,0.0,0.0,0.0,0.0,0.0,0.0,0.0,0.0,0.0,0.0,0.0,0.0,0.0,0.0,0.0,0.0,0.0,0.0,0.0,0.0,0.0,0.0,0.0,0.0,-2.0137,-2.1504,-2.1754,-2.1466,0.0,0.0,0.0,-2.0391,0.0,0.0,0.0,-2.0526,-2.0468,-2.0486,-2.1089,-2.0919,-2.0373,0.0,0.0,0.0,0.0,0.0,0.0,0.0,0.0,0.0,0.0,0.0,0.0,-2.3116,-2.3533,-2.4003,-2.3938,0.0,0.0,0.0,0.0,0.0,0.0,0.0,0.0,0.0,0.0,0.0,0.0,0.0,0.0,0.0,0.0,0.0,0.0,0.0,0.0,0.0,0.0,0.0,0.0,0.0,0.0,0.0,0.0,-4.372,-4.347,-4.3451,-4.3066,-4.222,-4.22,-4.1893,-4.1285,-4.1873,-4.1873,-4.1285,-4.2508,-4.2643,-4.1808,-4.2066,-4.1258,-3.9669,-3.9669,-3.9304,-3.8681,-3.7815,-3.7526,-3.7507,-3.6327,-3.5865,-3.5827,-3.5596,-3.5654,-3.5827,0.0,0.0,0.0,0.0,0.0,0.0,0.0,0.0,0.0,0.0,0.0,0.0,0.0,0.0,0.0,0.0,0.0,0.0,0.0,0.0,0.0,0.0,0.0,0.0,0.0,-1.8105,-1.9413,0.0,0.0,0.0,0.0,0.0,0.0,-2.0901,0.0,-2.0734,0.0,-2.0673,-2.0477,-2.0485,-2.0987,-2.0839,-2.038,0.0,0.0,0.0,0.0,0.0,0.0,0.0,0.0,0.0,0.0,0.0,0.0,-2.2069,-2.2432,-2.2929,-2.323,0.0,0.0,0.0,0.0,0.0,0.0,0.0,0.0,0.0,0.0,0.0,0.0,0.0,0.0,0.0,0.0,0.0,0.0,0.0,0.0,0.0,0.0,0.0,0.0,0.0,0.0,0.0,-4.3374,-4.2951,-4.2604,-4.2585,-4.2047,-4.0835,-4.0816,-4.0392,-3.9515,-4.0027,-4.0027,-3.9515,-4.0566,-4.0796,-4.0315,-4.1327,-4.0893,-3.9284,-3.8931,-3.8296,-3.745,-3.6923,-3.6808,-3.6911,-3.5885,-3.55,-3.55,-3.55,-3.55,-3.55,0.0,0.0,0.0,0.0,0.0,0.0,0.0,0.0,0.0,0.0,0.0,0.0,0.0,0.0,0.0,0.0,0.0,0.0,0.0,0.0,0.0,0.0,0.0,0.0,0.0,0.0,0.0,0.0,0.0,0.0,0.0,0.0,-2.0777,-2.1554,0.0,-2.097,0.0,-2.0867,-2.0484,-2.0482,-2.0506,-2.0476,-2.039,-2.0418,0.0,0.0,0.0,0.0,0.0,0.0,0.0,0.0,0.0,0.0,-2.0393,-2.0475,-2.0545,-2.081,0.0,0.0,0.0,0.0,0.0,0.0,0.0,0.0,0.0,0.0,0.0,0.0,0.0,0.0,0.0,0.0,0.0,0.0,0.0,0.0,0.0,0.0,0.0,0.0,0.0,0.0,0.0,-4.2854,-4.272,-4.2297,-4.15,-4.1442,-4.0758,-3.9227,-3.9188,-3.8796,-3.8007,-3.8007,-3.8007,-3.8007,-3.8007,-3.8007,-3.8084,-4.0412,-4.0585,-3.9015,-3.8142,-3.7353,-3.6692,-3.6615,-3.6192,-3.5596,-3.5538,-3.55,-3.55,-3.55,-3.55,-3.55,0.0,0.0,0.0,0.0,0.0,0.0,0.0,0.0,0.0,0.0,0.0,0.0,0.0,0.0,0.0,0.0,0.0,0.0,0.0,0.0,0.0,0.0,0.0,0.0,0.0,0.0,0.0,0.0,0.0,0.0,0.0,0.0,0.0,-2.0754,0.0,-2.0683,-2.0859,-2.0554,-2.0425,-2.0483,-2.1158,-2.1009,-2.0474,-2.1136,-2.0961,0.0,0.0,0.0,0.0,0.0,0.0,0.0,-2.0304,-2.0308,-2.0329,-2.0391,-2.0937,0.0,0.0,0.0,0.0,0.0,0.0,0.0,0.0,0.0,0.0,0.0,0.0,0.0,0.0,0.0,0.0,0.0,0.0,0.0,0.0,0.0,0.0,0.0,0.0,0.0,0.0,0.0,0.0,-4.1054,-3.9835,-3.9027,-3.8834,-3.8815,-3.8642,-3.8296,-3.8277,-3.818,-3.8007,-3.8007,-3.8007,-3.8007,-3.8007,-3.8007,-3.8027,-3.8565,-3.8257,-3.7219,-3.6385,-3.6288,-3.6654,-3.6019,-3.6038,-3.6385,-3.575,-3.55,-3.55,-3.55,-3.55,-3.55,0.0,0.0,0.0,0.0,0.0,0.0,0.0,0.0,0.0,0.0,0.0,0.0,0.0,0.0,0.0,0.0,0.0,0.0,0.0,0.0,0.0,0.0,0.0,0.0,0.0,0.0,0.0,0.0,0.0,0.0,0.0,0.0,0.0,-2.2346,0.0,-2.1816,-2.1816,-2.1286,-2.0834,-2.048,-2.0908,-2.0809,-2.0455,-2.0864,-2.0749,-2.0354,-2.0306,0.0,0.0,0.0,0.0,0.0,0.0,0.0,-2.0807,-2.0443,-2.1017,-2.1862,0.0,0.0,0.0,0.0,0.0,0.0,0.0,0.0,0.0,0.0,0.0,0.0,0.0,0.0,0.0,0.0,0.0,0.0,0.0,0.0,0.0,0.0,0.0,0.0,0.0,0.0,0.0,-3.9296,-3.8488,-3.8007,-3.8007,-3.8007,-3.7815,-3.7392,-3.7373,-3.7199,-3.6815,-3.6796,-3.6796,-3.6796,-3.6796,-3.6818,-3.6877,-3.7283,-3.7249,-3.6804,-3.5929,-3.5797,-3.6138,-3.5688,-3.5765,-3.6125,-3.57,-3.5574,-3.559,-3.5556,-3.5546,-3.5546,0.0,0.0,0.0,0.0,0.0,0.0,0.0,0.0,0.0,0.0,0.0,0.0,0.0,0.0,0.0,0.0,0.0,0.0,0.0,0.0,0.0,0.0,0.0,0.0,0.0,0.0,0.0,0.0,0.0,0.0,0.0,0.0,0.0,-2.4169,0.0,0.0,-2.293,-2.2139,-2.1309,-2.0506,-2.0437,-2.0406,-2.039,-2.0337,-2.0393,-2.0511,-2.0519,-2.05,-2.05,-2.05,0.0,0.0,0.0,0.0,-2.1155,-2.0498,-2.0844,-2.1506,0.0,0.0,0.0,0.0,0.0,0.0,0.0,0.0,0.0,0.0,0.0,0.0,0.0,0.0,0.0,0.0,0.0,0.0,0.0,0.0,0.0,0.0,0.0,0.0,0.0,0.0,-3.7623,-3.7777,-3.7373,-3.718,-3.7334,-3.7199,-3.6796,-3.6058,-3.6038,-3.5712,-3.5058,-3.5058,-3.5129,-3.5297,-3.5464,-3.5502,-3.546,-3.6328,-3.6757,-3.674,-3.5959,-3.5626,-3.5616,-3.554,-3.555,-3.5621,-3.5596,-3.5629,-3.5696,-3.5644,-3.5626,-3.5626,0.0,0.0,0.0,0.0,0.0,0.0,0.0,0.0,0.0,0.0,0.0,0.0,0.0,0.0,0.0,0.0,0.0,0.0,-1.4697,0.0,0.0,-1.509,-1.5857,0.0,0.0,0.0,0.0,0.0,0.0,0.0,0.0,0.0,0.0,-2.3359,0.0,0.0,0.0,-2.1885,-2.1309,-2.0507,-2.0484,-2.046,-2.039,-2.0392,-2.0823,-2.1417,-2.1367,-2.135,-2.135,-2.135,-2.0942,0.0,0.0,0.0,-2.0443,-2.0324,-2.0396,0.0,0.0,0.0,0.0,0.0,0.0,0.0,0.0,0.0,0.0,0.0,0.0,0.0,0.0,0.0,0.0,0.0,0.0,0.0,0.0,0.0,0.0,0.0,0.0,0.0,0.0,0.0,-3.6115,-3.6808,-3.4834,-3.391,-3.4667,-3.3987,-3.3526,-3.341,-3.341,-3.3353,-3.3256,-3.3256,-3.3658,-3.4462,-3.5273,-3.534,-3.4766,-3.5646,-3.5972,-3.5878,-3.5732,-3.5686,-3.5678,-3.5616,-3.5621,-3.5678,-3.5616,-3.5629,-3.5703,-3.5689,-3.5686,-3.5686,0.0,0.0,0.0,0.0,0.0,0.0,0.0,0.0,0.0,0.0,0.0,0.0,0.0,0.0,0.0,-1.4511,-1.4393,-1.4392,-1.4589,-1.471,-1.4814,-1.486,-1.583,-1.6571,-1.7047,0.0,0.0,0.0,0.0,0.0,0.0,-2.3613,-2.4081,0.0,0.0,0.0,0.0,0.0,0.0,-2.1228,-2.1262,-2.0664,0.0,0.0,-2.0358,-2.026,-2.0718,-2.0853,-2.0832,-2.0832,-2.122,-2.1543,-2.0596,0.0,0.0,0.0,0.0,0.0,0.0,0.0,0.0,0.0,0.0,0.0,0.0,0.0,0.0,0.0,0.0,0.0,0.0,0.0,0.0,0.0,0.0,0.0,0.0,0.0,0.0,0.0,0.0,0.0,0.0,0.0,-3.4352,-3.4715,-3.3698,-3.3238,-3.3621,-3.3207,-3.2952,-3.2952,-3.2915,-3.2891,-3.2891,-3.2931,-3.3194,-3.3685,-3.4149,-3.4198,-3.3888,-3.4303,-3.5006,-3.5832,-3.5314,-3.5083,-3.5039,-3.4482,-3.4581,-3.5081,-3.5045,-3.5373,-3.5869,-3.5821,-3.5807,-3.5807,0.0,0.0,0.0,0.0,0.0,0.0,0.0,0.0,0.0,0.0,0.0,0.0,0.0,0.0,0.0,0.0,-1.4433,-1.4453,-1.4781,-1.508,-1.5269,-1.5312,-1.6314,-1.691,-1.7006,0.0,0.0,0.0,0.0,0.0,-2.3105,-2.3789,-2.4626,0.0,-2.5602,0.0,0.0,0.0,0.0,0.0,0.0,0.0,0.0,0.0,0.0,0.0,-2.0091,-2.0514,-2.0684,-2.0897,-2.1642,-2.2277,-2.0993,-2.1295,0.0,0.0,0.0,0.0,0.0,0.0,0.0,0.0,0.0,0.0,0.0,0.0,0.0,0.0,0.0,0.0,0.0,0.0,0.0,0.0,0.0,0.0,0.0,0.0,0.0,0.0,0.0,0.0,0.0,0.0,0.0,-3.3177,-3.2788,-3.2636,-3.2866,-3.2567,-3.2385,-3.2385,-3.2338,-3.2329,-3.2329,-3.2589,-3.2683,-3.2569,-3.3083,-3.3221,-3.3027,-3.3279,-3.4101,-3.5293,-3.4599,-3.4295,-3.4254,-3.377,-3.3977,-3.4627,-3.4615,-3.5045,-3.5644,-3.536,-3.5409,-3.5605,0.0,0.0,0.0,0.0,0.0,0.0,0.0,0.0,0.0,0.0,0.0,0.0,0.0,-1.5089,-1.5026,-1.4885,-1.4756,-1.4945,-1.5594,-1.6353,-1.6841,-1.6971,-1.7939,0.0,-1.8665,0.0,0.0,0.0,0.0,0.0,-2.3105,-2.3203,-2.4098,-2.5602,-2.5602,-2.5072,-2.4158,0.0,0.0,0.0,0.0,0.0,0.0,0.0,0.0,0.0,0.0,0.0,-2.1731,-2.2517,-2.2269,-2.1643,0.0,0.0,0.0,0.0,0.0,0.0,0.0,0.0,0.0,0.0,0.0,0.0,0.0,0.0,0.0,0.0,0.0,0.0,0.0,0.0,0.0,0.0,0.0,0.0,0.0,0.0,0.0,0.0,0.0,0.0,0.0,0.0,0.0,-3.3138,-3.1667,-3.1106,-3.1919,-3.118,-3.0713,-3.0713,-3.073,-3.0727,-3.0727,-3.1601,-3.1646,-3.0848,-3.2574,-3.3008,-3.2285,-3.3047,-3.3457,-3.3535,-3.3476,-3.3457,-3.3515,-3.4236,-3.4593,-3.4687,-3.4627,-3.4675,-3.4668,-3.3847,-3.4043,-3.4765,0.0,0.0,0.0,0.0,0.0,0.0,0.0,0.0,0.0,0.0,0.0,0.0,0.0,-1.5109,-1.5045,-1.492,-1.5259,-1.5755,-1.6426,-1.6743,-1.6917,-1.6976,-1.7932,-1.8548,-1.8726,-1.9705,0.0,0.0,0.0,-2.1354,-2.3031,-2.2524,-2.3163,-2.4703,-2.4751,-2.4559,-2.4138,-2.3309,0.0,0.0,0.0,0.0,0.0,0.0,0.0,0.0,0.0,0.0,0.0,0.0,0.0,0.0,0.0,0.0,0.0,0.0,0.0,0.0,0.0,0.0,0.0,0.0,0.0,0.0,0.0,0.0,0.0,0.0,0.0,0.0,0.0,0.0,0.0,0.0,0.0,0.0,0.0,0.0,0.0,0.0,0.0,0.0,0.0,0.0,0.0,-3.0878,-3.0315,-3.0081,-3.0412,-2.9551,-2.9065,-2.9065,-2.9024,-2.9021,-2.9065,-2.9396,-2.9709,-2.9996,-3.0644,-3.1094,-3.1387,-3.166,-3.1797,-3.1797,-3.1797,-3.2109,-3.2617,-3.2341,-3.2576,-3.3144,-3.3649,-3.3846,-3.3965,-3.4766,-3.4902,-3.4785,0.0,0.0,0.0,0.0,0.0,0.0,0.0,0.0,0.0,0.0,0.0,0.0,0.0,0.0,-1.5652,-1.5786,-1.6404,-1.6945,-1.7378,-1.7592,-1.7704,-1.7704,-1.8412,-1.8876,-1.9003,-1.9711,0.0,0.0,0.0,0.0,0.0,0.0,-2.2502,-2.3827,-2.3559,-2.3549,0.0,0.0,0.0,-2.1452,0.0,0.0,-1.868,0.0,0.0,0.0,0.0,0.0,0.0,0.0,0.0,0.0,0.0,0.0,0.0,0.0,0.0,0.0,0.0,0.0,0.0,0.0,0.0,0.0,0.0,0.0,0.0,0.0,0.0,0.0,0.0,0.0,0.0,0.0,0.0,0.0,0.0,0.0,0.0,0.0,0.0,0.0,0.0,0.0,0.0,-2.916,-2.916,0.0,-2.916,-2.8569,-2.8229,-2.8229,-2.8184,-2.8182,-2.8229,-2.8229,-2.8686,-2.9609,-2.9609,-3.0059,-3.0898,-3.0898,-3.0898,-3.0898,-3.0898,-3.123,-3.1738,-3.1445,-3.168,-3.2246,-3.2793,-3.3008,-3.3105,-3.3965,-3.4101,-3.3945,0.0,0.0,0.0,0.0,0.0,0.0,0.0,0.0,0.0,0.0,0.0,0.0,0.0,0.0,0.0,-1.758,-1.8165,-1.8486,-1.8441,-1.8991,-1.9297,-1.9297,-1.9492,-1.9582,-1.9608,-1.9912,0.0,0.0,0.0,0.0,0.0,0.0,-2.2176,0.0,-2.2127,-2.2139,-2.2762,0.0,-2.1466,-2.1254,0.0,-1.8805,-2.0155,0.0,0.0,0.0,-2.0527,-2.1094,0.0,-2.182,0.0,0.0,0.0,0.0,0.0,0.0,0.0,0.0,0.0,0.0,0.0,0.0,0.0,0.0,0.0,0.0,0.0,0.0,0.0,0.0,0.0,0.0,0.0,0.0,0.0,0.0,0.0,0.0,0.0,0.0,0.0,0.0,0.0,0.0,0.0,-2.8262,-2.8262,-2.8262,-2.8262,-2.8242,-2.8223,-2.8223,-2.8223,-2.8223,-2.8223,-2.8223,-2.8652,-2.9512,-2.9512,-2.998,-3.082,-3.082,-3.082,-3.082,-3.0859,-3.0859,-3.0937,-3.1797,-3.2168,-3.2168,-3.2187,-3.2187,-3.207,-3.1269,-3.1484,-3.2207,0.0,0.0,0.0,0.0,0.0,0.0,0.0,0.0,0.0,0.0,0.0,0.0,0.0,0.0,-1.779,-1.8403,-1.8527,-1.8766,-1.9243,-1.9298,-1.9297,-1.9297,-1.935,-1.9456,-1.9608,-1.9695,0.0,0.0,0.0,0.0,0.0,0.0,0.0,0.0,-2.2472,-2.2085,-2.1133,-2.0779,0.0,0.0,-1.9865,-1.9143,0.0,0.0,0.0,0.0,0.0,-1.9687,-2.1055,0.0,-2.1418,-2.0826,0.0,0.0,0.0,0.0,0.0,0.0,-1.9732,0.0,0.0,0.0,0.0,0.0,0.0,0.0,0.0,0.0,0.0,0.0,0.0,0.0,0.0,0.0,0.0,0.0,0.0,0.0,0.0,0.0,0.0,0.0,0.0,0.0,-2.7363,0.0,-2.7363,-2.7363,-2.7363,-2.6758,-2.6426,-2.6426,-2.6426,-2.6426,-2.6426,-2.6426,-2.6855,-2.7715,-2.7715,-2.8184,-2.9023,-2.9023,-2.9023,-2.9043,-2.9687,-2.9961,-3.0039,-3.0898,-3.1269,-3.1328,-3.1953,-3.1816,-3.1387,-3.2344,-3.248,-3.2285,0.0,0.0,0.0,0.0,0.0,0.0,0.0,0.0,0.0,0.0,0.0,0.0,0.0,0.0,0.0,-1.9428,-1.9265,-1.9294,-1.9663,-1.9452,-1.9297,-1.9297,-1.9297,-1.935,-1.9478,-1.9555,0.0,0.0,0.0,0.0,0.0,0.0,0.0,0.0,0.0,0.0,0.0,0.0,0.0,0.0,-1.9686,0.0,0.0,-1.8643,-1.8882,0.0,0.0,0.0,-2.1641,-2.1426,-2.0972,0.0,0.0,0.0,0.0,0.0,0.0,0.0,0.0,0.0,0.0,0.0,0.0,0.0,-1.8709,-1.8003,-1.7344,0.0,0.0,0.0,0.0,0.0,0.0,0.0,0.0,0.0,0.0,0.0,0.0,0.0,0.0,0.0,0.0,-2.5625,-2.6074,-2.6426,-2.6465,-2.6465,-2.6465,-2.5977,-2.5703,-2.5703,-2.5703,-2.5703,-2.5703,-2.5703,-2.6133,-2.6992,-2.6992,-2.7656,-2.8828,-2.8476,-2.8496,-2.8867,-2.9375,-2.9609,-2.9668,-3.0547,-3.0898,-3.0957,-3.1465,-3.1348,-3.1016,-3.1992,-3.2051,-3.1719,0.0,0.0,0.0,0.0,0.0,0.0,0.0,0.0,0.0,0.0,0.0,0.0,0.0,0.0,0.0,0.0,-2.0106,-1.9921,-1.9934,-1.9641,0.0,-1.9572,-1.9481,-1.941,-1.9395,-1.9508,0.0,0.0,0.0,0.0,0.0,0.0,0.0,0.0,0.0,0.0,0.0,0.0,0.0,-2.1412,-1.9024,-1.9418,0.0,0.0,-2.0132,-2.1465,-2.1465,-2.2031,-2.2539,-2.1094,-2.0484,0.0,0.0,0.0,0.0,0.0,-1.9949,0.0,0.0,0.0,0.0,0.0,0.0,0.0,-1.8754,-1.8622,-1.8152,-1.6126,0.0,0.0,0.0,0.0,0.0,0.0,0.0,0.0,0.0,0.0,0.0,0.0,0.0,0.0,-2.418,-2.4258,-2.4629,-2.5488,-2.5644,-2.5664,-2.5566,-2.5644,-2.5703,-2.5703,-2.5703,-2.5703,-2.5703,-2.5703,-2.6094,-2.6855,-2.6855,-2.7676,-2.9141,-2.8359,-2.8437,-2.918,-2.9277,-2.9375,-2.9512,-3.0293,-3.0723,-3.0898,-3.0898,-3.0898,-3.0898,-3.0898,-3.0898,-3.0898,-1.5389,0.0,0.0,0.0,0.0,0.0,0.0,0.0,0.0,0.0,0.0,0.0,0.0,0.0,0.0,0.0,0.0,-2.0318,-2.0745,0.0,0.0,-2.1288,-2.0647,-2.0199,-2.0028,-1.9599,0.0,0.0,0.0,0.0,0.0,0.0,0.0,0.0,0.0,0.0,0.0,0.0,0.0,-2.1645,-2.0341,0.0,-1.9656,-1.9327,-1.9014,-1.8769,-1.8769,-1.9316,-2.0117,-2.0488,-2.0094,-1.9568,0.0,0.0,0.0,0.0,0.0,0.0,0.0,0.0,0.0,0.0,0.0,0.0,-2.005,-1.9296,-1.882,0.0,0.0,0.0,0.0,0.0,0.0,0.0,0.0,0.0,0.0,0.0,0.0,0.0,0.0,0.0,-2.334,-2.3359,-2.3711,-2.459,-2.5293,-2.5391,-2.4687,-2.5312,-2.5703,-2.5703,-2.5703,-2.5703,-2.5703,-2.5703,-2.5781,-2.5957,-2.5957,-2.6133,-2.6465,-2.6289,-2.6309,-2.6504,-2.7207,-2.791,-2.8574,-2.873,-2.9629,-3.0898,-3.0898,-3.0898,-3.0898,-3.0898,-3.0898,-3.0898,-1.6025,0.0,0.0,0.0,0.0,0.0,0.0,0.0,0.0,0.0,0.0,0.0,0.0,0.0,0.0,0.0,0.0,0.0,0.0,0.0,0.0,0.0,-2.1412,-2.084,-2.0201,0.0,0.0,0.0,0.0,0.0,0.0,0.0,0.0,0.0,0.0,0.0,0.0,0.0,-2.1412,-2.1729,-2.0313,0.0,-1.98,-1.9403,-1.9001,-1.8652,-1.8652,-1.8652,-1.8789,-1.9668,-1.9647,0.0,0.0,-1.9741,-2.032,0.0,-1.9983,-2.0294,0.0,0.0,0.0,-2.077,0.0,0.0,0.0,-2.031,-1.9654,0.0,0.0,0.0,0.0,0.0,0.0,0.0,0.0,0.0,0.0,0.0,0.0,0.0,0.0,0.0,-2.1753,-2.2176,-2.278,-2.3687,-2.416,-2.4219,-2.3769,-2.457,-2.5059,-2.5059,-2.5469,-2.5703,-2.5703,-2.5703,-2.5703,-2.5703,-2.5703,-2.5937,-2.6328,-2.5898,-2.5917,-2.6322,-2.6752,-2.7436,-2.8276,-2.8725,-2.9686,-3.0859,-3.0387,-3.0442,-3.0793,-3.0759,-3.0764,-3.0794,-1.6909,0.0,0.0,0.0,0.0,0.0,0.0,0.0,0.0,0.0,0.0,0.0,0.0,0.0,0.0,0.0,0.0,0.0,0.0,0.0,0.0,0.0,0.0,-2.1256,-2.0481,-2.0282,0.0,0.0,0.0,0.0,0.0,0.0,0.0,0.0,0.0,0.0,0.0,0.0,0.0,-2.1543,0.0,-2.0238,-2.0882,-1.9921,-1.9551,-1.9512,-1.918,-1.8379,-1.7676,-1.8887,-1.9199,-1.8965,-1.8541,-1.9336,0.0,0.0,0.0,0.0,0.0,0.0,0.0,0.0,0.0,-2.0065,0.0,0.0,0.0,0.0,0.0,0.0,0.0,0.0,0.0,0.0,0.0,0.0,0.0,0.0,0.0,0.0,0.0,0.0,-2.0168,-2.0984,-2.176,-2.2512,-2.2904,-2.3027,-2.2851,-2.3691,-2.418,-2.418,-2.5,-2.5449,-2.5449,-2.5625,-2.5703,-2.5703,-2.5703,-2.6074,-2.6738,-2.6015,-2.6049,-2.6657,-2.6631,-2.7117,-2.7977,-2.8505,-2.9479,-3.0565,-2.9963,-3.0127,-3.069,-3.0614,-3.0624,-3.0682,-1.7752,0.0,0.0,0.0,0.0,0.0,0.0,0.0,0.0,0.0,0.0,0.0,0.0,0.0,0.0,0.0,0.0,0.0,-2.3624,0.0,0.0,0.0,0.0,0.0,-2.143,-2.0581,0.0,0.0,0.0,0.0,0.0,0.0,0.0,0.0,-2.1202,0.0,0.0,0.0,-2.1562,0.0,-2.1367,-2.2089,0.0,-2.1055,-2.0449,-2.0254,-1.8691,-1.709,-1.6055,0.0,-1.8789,-1.8398,0.0,-2.0349,-2.0451,0.0,0.0,0.0,0.0,0.0,0.0,0.0,-2.1408,0.0,0.0,0.0,0.0,-2.0308,0.0,0.0,0.0,0.0,0.0,0.0,0.0,0.0,0.0,0.0,0.0,0.0,0.0,0.0,-1.9257,-2.0075,-2.0599,-2.0692,-2.2197,-2.276,-2.1997,-2.283,-2.334,-2.334,-2.4121,-2.4551,-2.4551,-2.5312,-2.5703,-2.5703,-2.5703,-2.5742,-2.584,-2.5675,-2.5664,-2.5737,-2.5679,-2.6147,-2.6911,-2.6227,-2.7411,-2.9729,-3.0327,-3.0617,-3.069,-3.0614,-3.0609,-3.0617,-1.8416,0.0,0.0,0.0,0.0,0.0,0.0,0.0,0.0,0.0,0.0,0.0,0.0,0.0,0.0,0.0,0.0,-2.309,0.0,0.0,0.0,0.0,0.0,0.0,0.0,-2.1752,-2.143,0.0,-2.199,0.0,0.0,0.0,0.0,0.0,-2.2275,0.0,-2.1167,0.0,0.0,0.0,0.0,0.0,0.0,-2.1185,-1.9915,-1.8939,-1.8242,-1.6875,-1.5566,0.0,-1.7435,0.0,0.0,0.0,0.0,0.0,0.0,0.0,0.0,0.0,0.0,0.0,0.0,0.0,-2.0927,0.0,-1.9713,0.0,0.0,0.0,0.0,0.0,0.0,0.0,-1.845,0.0,0.0,0.0,0.0,0.0,0.0,0.0,-1.9007,-1.9415,-1.9648,-1.9643,-2.0852,-2.1427,-2.1075,-2.1931,-2.2441,-2.2441,-2.3711,-2.418,-2.3711,-2.5039,-2.5449,-2.4941,-2.5426,-2.5636,-2.5636,-2.5567,-2.5529,-2.5473,-2.5443,-2.5935,-2.6718,-2.6346,-2.7176,-2.8714,-2.9021,-2.9747,-3.0638,-3.0513,-3.0511,-3.0548,0.0,0.0,0.0,0.0,0.0,0.0,0.0,0.0,0.0,0.0,0.0,0.0,-2.5278,-2.5066,0.0,0.0,-2.3775,-2.3724,0.0,0.0,-2.3586,0.0,0.0,0.0,0.0,0.0,0.0,0.0,0.0,0.0,0.0,0.0,0.0,0.0,0.0,-2.2288,-2.0703,0.0,0.0,-2.1621,-2.2437,-2.2601,-2.2217,-2.0948,-1.9402,-1.788,-1.7687,-1.6656,-1.5405,-1.5646,-1.6691,0.0,-1.667,0.0,0.0,0.0,0.0,0.0,-2.0308,0.0,0.0,0.0,0.0,0.0,0.0,0.0,0.0,0.0,0.0,0.0,0.0,0.0,0.0,0.0,0.0,0.0,0.0,0.0,0.0,0.0,0.0,0.0,0.0,-1.8908,-1.9055,-1.9333,-1.9983,-2.0416,-2.0475,-2.1144,-2.1523,-2.1543,-2.2969,-2.3535,-2.3184,-2.4629,-2.5156,-2.4766,-2.5321,-2.5602,-2.5599,-2.55,-2.545,-2.5406,-2.5379,-2.5739,-2.6323,-2.6323,-2.6876,-2.771,-2.7644,-2.8555,-2.9874,-2.9771,-3.0034,-3.0448,0.0,-2.0063,0.0,0.0,0.0,0.0,0.0,0.0,0.0,0.0,0.0,0.0,0.0,0.0,0.0,0.0,0.0,-2.2302,-2.308,0.0,-2.1854,0.0,0.0,-2.2628,0.0,0.0,0.0,0.0,0.0,0.0,0.0,0.0,0.0,0.0,0.0,-2.1627,-2.0742,-2.2988,-2.2676,-2.0723,-2.1582,-2.1355,-2.0472,0.0,-1.9369,-1.7784,-1.6959,0.0,0.0,-1.6278,-1.7169,0.0,0.0,0.0,0.0,0.0,0.0,0.0,0.0,0.0,0.0,-2.0327,0.0,0.0,0.0,0.0,-1.9935,0.0,0.0,0.0,0.0,0.0,0.0,0.0,0.0,0.0,0.0,0.0,0.0,0.0,0.0,0.0,0.0,-1.8529,-1.8925,-1.9898,-2.006,-2.0199,-2.0387,-2.0492,-2.0577,-2.0644,-2.1504,-2.2344,-2.3105,-2.3984,-2.4844,-2.5664,-2.5614,-2.5602,-2.5599,-2.5465,-2.5402,-2.5395,-2.5326,-2.5313,-2.5332,-2.5332,-2.5906,-2.6741,-2.667,-2.7233,-2.8059,-2.8005,-2.9006,-3.0275,0.0,0.0,0.0,0.0,0.0,0.0,0.0,-2.4099,0.0,0.0,0.0,0.0,0.0,-2.5,-2.4609,0.0,0.0,-2.2812,-2.3083,-2.2818,0.0,0.0,0.0,-2.4139,0.0,0.0,0.0,0.0,0.0,0.0,0.0,0.0,0.0,0.0,0.0,-2.2297,0.0,0.0,0.0,0.0,0.0,-2.1068,-2.1119,0.0,-1.9648,-1.8593,-1.7752,-1.6906,0.0,-1.6445,-1.6723,-1.7108,-1.7823,-1.8624,-1.9311,-1.9311,-1.9621,-1.9996,0.0,0.0,-1.9996,-2.0088,0.0,0.0,0.0,0.0,0.0,0.0,0.0,0.0,0.0,0.0,0.0,0.0,0.0,0.0,0.0,0.0,0.0,0.0,0.0,0.0,0.0,0.0,0.0,-1.8971,-1.9762,-2.0227,-2.0196,-2.0384,-2.0511,-2.0538,-2.1425,-2.2031,-2.2305,-2.3691,-2.453,-2.4774,-2.529,-2.5517,-2.5468,-2.536,-2.533,-2.5326,-2.5303,-2.5308,-2.5308,-2.5308,-2.5491,-2.5763,-2.575,-2.6285,-2.721,-2.8296,-2.8717,-2.8775,-2.1445,0.0,0.0,0.0,0.0,0.0,0.0,0.0,0.0,0.0,-2.5352,0.0,-2.5703,0.0,-2.5352,0.0,-2.3594,-2.3105,-2.3105,-2.2828,0.0,-2.2634,-2.3859,0.0,0.0,0.0,0.0,0.0,0.0,-2.3118,0.0,0.0,0.0,0.0,0.0,0.0,0.0,0.0,-2.248,0.0,0.0,-2.0773,0.0,0.0,-1.9976,-1.9349,0.0,-1.7044,-1.6508,-1.6164,-1.6213,-1.6554,-1.7277,-1.807,-1.8783,-1.9131,-1.9525,-1.9906,-2.006,-2.0031,0.0,-2.0093,-1.9997,0.0,-1.9927,0.0,0.0,0.0,0.0,0.0,0.0,0.0,0.0,0.0,0.0,0.0,0.0,-1.8242,0.0,0.0,0.0,0.0,0.0,0.0,-1.8256,-1.8354,-1.9456,-2.0114,0.0,-2.0327,-2.0477,-2.0507,-2.1111,-2.1582,-2.1894,-2.3281,-2.4079,-2.431,-2.5128,-2.5451,-2.5398,-2.5326,-2.5308,-2.5308,-2.5308,-2.5308,-2.5308,-2.5308,-2.5308,-2.5308,-2.5308,-2.5635,-2.6269,-2.7351,-2.7813,-2.803,0.0,0.0,0.0,0.0,-2.416,0.0,0.0,0.0,-2.4672,0.0,-2.5703,-2.5703,-2.5703,-2.5703,-2.5371,-2.4531,-2.3672,-2.3144,-2.3105,-2.2383,0.0,0.0,-2.2539,-2.2463,-2.1344,0.0,0.0,0.0,0.0,0.0,0.0,0.0,0.0,0.0,-2.3439,0.0,-2.0681,-2.2341,-2.209,-2.0586,-2.0537,-2.0528,-2.054,-2.0371,-2.0324,-2.0027,-1.7487,-1.6564,-1.6426,-1.5596,-1.5734,-1.6403,-1.7335,-1.8047,-1.8731,-1.9711,-1.9964,-1.9988,-2.0214,-2.0257,-2.0215,-2.0261,-2.0105,0.0,0.0,0.0,-1.9485,0.0,0.0,0.0,0.0,0.0,0.0,0.0,0.0,0.0,0.0,0.0,0.0,0.0,0.0,0.0,0.0,-1.7848,-1.8606,-1.8183,-1.912,0.0,0.0,-2.0277,-2.0429,-2.0485,-2.0564,-2.1016,-2.1894,-2.2754,-2.3571,-2.4308,-2.5106,-2.5451,-2.5379,-2.5326,-2.5308,-2.5308,-2.5308,-2.5308,-2.5308,-2.5308,-2.5308,-2.5308,-2.5308,-2.5308,-2.5308,-2.5308,-2.6428,-2.8068,-2.3095,-2.3848,-2.4462,0.0,-2.5022,-2.5149,0.0,0.0,0.0,0.0,-2.5662,-2.5703,-2.5703,-2.5703,-2.5605,-2.5391,-2.457,0.0,0.0,0.0,0.0,-2.0899,-2.2172,-2.2498,-2.1545,-2.3025,0.0,-2.3419,0.0,0.0,-2.2398,0.0,0.0,0.0,0.0,0.0,-2.1709,-2.2003,-2.1539,-2.0605,-2.0585,-2.093,-2.1399,0.0,-2.0796,-2.0927,-1.8319,-1.7391,-1.7353,-1.7122,-1.6353,-1.5932,-1.8537,-1.864,-1.8061,-1.9559,-1.9471,-1.9068,-1.9864,-1.954,-1.9133,-1.9898,-1.9473,-1.9076,0.0,0.0,0.0,0.0,0.0,0.0,0.0,0.0,0.0,0.0,0.0,0.0,0.0,0.0,0.0,-1.8002,0.0,0.0,-1.6329,-1.6054,-1.6685,-1.8608,-1.8436,0.0,0.0,0.0,-2.0291,-2.0427,-2.054,-2.1016,-2.1894,-2.2754,-2.3546,-2.4241,-2.5087,-2.5441,-2.5336,-2.5303,-2.5308,-2.5308,-2.5308,-2.5308,-2.5308,-2.5308,-2.5308,-2.5308,-2.5308,-2.5308,-2.5308,-2.5308,-2.6774,-2.8742,-2.3967,0.0,0.0,-2.5308,0.0,0.0,-2.5449,-2.5468,0.0,-2.5598,-2.5605,0.0,-2.5659,-2.5633,-2.5611,-2.5659,-2.4546,0.0,-2.3727,0.0,0.0,-2.1009,-2.1487,-2.154,-2.1048,-2.2191,0.0,-2.2938,0.0,0.0,-2.1998,0.0,0.0,0.0,0.0,-2.2727,0.0,-2.1979,-2.1554,-2.1133,-2.0742,-2.0877,0.0,-2.0672,-2.0706,-2.0828,-1.8944,-1.8026,-1.7699,-1.7699,-1.6807,-1.6122,-1.8667,-1.8778,-1.8246,-1.9593,-1.9353,-1.8763,-1.9385,-1.8862,-1.8283,-1.8858,-1.8816,-1.8772,-1.9354,-1.9206,-1.9095,0.0,-1.955,-1.9445,0.0,0.0,0.0,0.0,0.0,0.0,0.0,0.0,0.0,0.0,-1.7162,0.0,-1.561,-1.5608,-1.6105,-1.7132,-1.7956,0.0,0.0,0.0,-2.0218,-2.0349,-2.0836,-2.1135,-2.1235,-2.2834,-2.3642,-2.3648,-2.4874,-2.5406,-2.5308,-2.5308,-2.5308,-2.5308,-2.5308,-2.5308,-2.5308,-2.5308,-2.5308,-2.5308,-2.5308,-2.5308,-2.5346,-2.5731,-2.7024,-2.8511,0.0,0.0,0.0,0.0,0.0,0.0,0.0,-2.5491,0.0,-2.5577,0.0,-2.5511,-2.5572,-2.5522,-2.5474,-2.5437,0.0,-2.3642,-2.4176,-2.2081,-2.105,-2.1573,-2.0772,-2.0299,-2.0292,-2.1096,0.0,0.0,0.0,0.0,0.0,0.0,0.0,0.0,0.0,0.0,0.0,-2.2133,-2.1858,-2.1816,-2.0937,-2.0586,-2.0565,-2.0468,-2.0391,-2.0288,-1.9452,-1.8617,-1.7872,-1.7872,-1.7243,-1.6785,-1.848,-1.8831,-1.8848,-1.9774,-1.9454,-1.8846,-1.8966,-1.8453,-1.7872,-1.7872,-1.8355,-1.8857,-1.8972,-1.9347,-1.9705,-1.9805,-1.9713,-1.9656,-1.9786,0.0,0.0,0.0,0.0,0.0,0.0,0.0,0.0,0.0,0.0,0.0,-1.4899,-1.5867,-1.6238,-1.5252,0.0,0.0,0.0,0.0,-2.0092,-2.0124,-2.1034,-2.1221,-2.0583,-2.2877,-2.3717,-2.3088,-2.464,-2.5363,-2.5308,-2.5308,-2.5308,-2.5308,-2.5308,-2.5308,-2.5308,-2.5308,-2.5308,-2.5308,-2.5308,-2.5279,-2.5379,-2.6359,-2.7209,-2.7887,0.0,0.0,0.0,0.0,0.0,-2.6318,-2.5452,-2.5962,-2.6223,-2.5522,-2.546,-2.5496,-2.5526,-2.5517,-2.5245,-2.4579,-2.4867,0.0,0.0,0.0,0.0,-2.163,-2.0764,-2.0308,-2.0308,-2.1096,-2.1727,0.0,0.0,0.0,0.0,0.0,0.0,0.0,0.0,0.0,-2.2862,-2.2289,0.0,-2.1739,-2.0864,-2.0514,-2.0513,-2.0484,-2.042,-2.0308,-2.0127,-1.9516,-1.8761,-1.8761,-1.8192,-1.7752,-1.9496,-1.9538,-1.9104,-1.9987,-1.9635,-1.897,-1.8988,-1.8895,-1.878,-1.8769,-1.8866,-1.9143,-1.9876,-1.9485,-1.9164,-1.984,-1.9858,-1.9774,-1.9803,0.0,0.0,0.0,0.0,0.0,0.0,0.0,0.0,0.0,0.0,-1.6448,0.0,-1.5752,0.0,0.0,0.0,0.0,0.0,0.0,-1.9682,0.0,-2.0109,-2.0893,0.0,0.0,-2.3442,-2.3906,-2.4926,-2.5363,-2.5308,-2.5308,-2.5308,-2.5308,-2.5308,-2.5308,-2.5308,-2.5308,-2.5308,-2.5308,-2.5308,-2.5203,-2.5237,-2.6785,-2.7466,-2.7771,0.0,0.0,0.0,0.0,0.0,0.0,0.0,-2.6073,-2.6339,-2.5507,-2.5398,-2.5417,-2.5444,-2.5427,-2.5246,-2.4907,-2.4807,-2.4454,-2.3667,-2.3166,-2.2501,-2.1597,-2.1143,0.0,-2.0308,-2.0673,-2.1301,-2.2195,0.0,0.0,0.0,0.0,0.0,0.0,0.0,-2.3422,0.0,0.0,0.0,-2.1669,-2.0794,-2.0443,-2.044,-2.0416,-2.0352,-2.0304,-2.0299,-2.0025,-1.9681,-1.9681,-1.9104,-1.8603,-1.9888,-2.0019,-1.9769,-2.0173,-1.9681,-1.8992,-1.8992,-1.8665,-1.8334,-1.833,-1.8677,-1.91,-1.9527,-1.9599,-1.9692,-2.008,-2.0022,-1.9893,-1.9893,-2.0137,0.0,0.0,0.0,0.0,0.0,0.0,0.0,0.0,0.0,0.0,0.0,0.0,0.0,0.0,0.0,0.0,0.0,0.0,-1.9721,0.0,0.0,0.0,-2.0962,0.0,-2.3515,-2.3438,-2.4735,-2.5326,-2.5303,-2.5198,-2.5146,-2.5146,-2.5066,-2.505,-2.5056,-2.5118,-2.5208,-2.5308,-2.5308,-2.5168,-2.5157,-2.6403,-2.6833,-2.6982,0.0,-2.5544,0.0,0.0,-2.6033,0.0,-2.5673,-2.6154,-2.6309,-2.5491,-2.533,-2.5327,-2.5375,-2.5326,-2.525,-2.5132,-2.466,-2.4293,-2.4184,-2.3535,-2.284,-2.2085,-2.1889,-2.1485,-2.085,-2.0654,-2.1125,0.0,0.0,0.0,0.0,0.0,0.0,0.0,0.0,0.0,0.0,0.0,-2.1787,-2.1604,-2.0724,-2.0372,-2.0366,-2.0313,-2.0298,-2.0296,-2.03,-2.0308,-2.0308,-2.0308,-1.9831,-1.9392,-2.0081,-2.0308,-2.0308,-2.0308,-1.9812,-1.9242,-1.9049,-1.8623,-1.8219,-1.8026,-1.8623,-1.928,-1.928,-1.9812,-2.0308,-2.0308,-2.0165,-2.0007,-1.9816,-2.0318,0.0,0.0,0.0,0.0,0.0,0.0,0.0,0.0,0.0,0.0,-1.3929,0.0,0.0,0.0,0.0,0.0,-1.7319,0.0,0.0,0.0,0.0,-2.137,-2.1119,0.0,-2.3663,-2.3351,-2.4673,-2.5274,-2.5224,-2.5077,-2.4986,-2.4949,-2.4849,-2.4804,-2.4811,-2.4917,-2.5065,-2.5248,-2.5248,-2.5124,-2.507,-2.592,-2.6221,-2.6426,0.0,0.0,0.0,0.0,0.0,0.0,-2.6486,-2.6544,-2.6294,-2.5418,-2.5293,-2.5293,-2.5303,-2.5293,-2.5005,-2.4278,-2.4807,-2.4884,-2.4167,-2.4027,-2.3946,-2.386,-2.3105,-2.2643,-2.2566,-2.1793,-2.1737,0.0,0.0,-2.2183,0.0,0.0,0.0,0.0,0.0,0.0,0.0,-2.3084,-2.2269,-2.1539,-2.0667,-2.0302,-2.0319,-2.0294,-2.0302,-2.03,-2.0292,-2.0308,-2.0308,-2.0308,-2.025,-2.0192,-2.0269,-2.0308,-2.0308,-2.0308,-2.0231,-2.0004,-1.9203,-1.9527,-1.9869,-1.9088,-1.9527,-2.0173,-2.0173,-2.0231,-2.0308,-2.0308,-2.0281,-2.0023,-1.9231,-1.9544,-1.9633,0.0,0.0,0.0,0.0,0.0,0.0,0.0,0.0,0.0,0.0,-1.4641,0.0,0.0,-1.528,0.0,0.0,0.0,0.0,-1.9934,-2.0943,-2.2216,-2.3725,-2.3201,-2.3639,-2.5077,-2.5231,-2.5208,-2.5028,-2.5016,-2.4924,-2.4825,-2.4811,-2.4804,-2.4804,-2.4799,-2.4897,-2.5028,-2.5028,-2.4949,-2.492,-2.5721,-2.6368,-2.6953,0.0,0.0,0.0,0.0,0.0,0.0,0.0,-2.5827,-2.5692,-2.5346,-2.5308,-2.5308,-2.5308,-2.5308,-2.5173,-2.4851,-2.5006,-2.4982,-2.4657,-2.4637,-2.4427,-2.3943,-2.3698,-2.3336,-2.2816,-2.247,-2.2614,0.0,0.0,0.0,0.0,0.0,0.0,0.0,0.0,-2.4105,-2.3259,-2.2389,-2.1567,-2.0792,-2.0445,-2.031,-2.031,-2.031,-2.0304,-2.0308,-2.0308,-2.0308,-2.0308,-2.0308,-2.0308,-2.0308,-2.0308,-2.0308,-2.0308,-2.0308,-2.0308,-2.0212,-1.9869,-2.0023,-2.0212,-1.9869,-2.0042,-2.0308,-2.0308,-2.0308,-2.0308,-2.0308,-2.0308,-2.0019,-1.9158,-1.9835,-2.0074,-1.8719,0.0,0.0,0.0,0.0,0.0,0.0,0.0,0.0,0.0,0.0,0.0,0.0,0.0,0.0,0.0,0.0,0.0,-2.0605,0.0,-2.2081,-2.3317,-2.349,-2.3913,-2.4586,-2.5077,-2.5184,-2.5004,-2.4923,-2.4727,-2.4435,-2.4435,-2.4512,-2.4615,-2.4615,-2.4719,-2.4877,-2.4877,-2.4778,-2.4653,-2.4982,-2.5473,-2.6059,-2.5653,0.0,-2.517,0.0,-2.5262,-2.5385,-2.5635,-2.5412,-2.5214,-2.5214,-2.5214,-2.5224,-2.5284,-2.5308,-2.5274,-2.5214,-2.5088,-2.4986,-2.4937,-2.4937,-2.4708,-2.4179,-2.4284,0.0,-2.3543,-2.3297,-2.3405,-2.3883,-2.3833,0.0,0.0,0.0,0.0,0.0,-2.3932,-2.3374,-2.274,-2.187,-2.1038,-2.0308,-2.0308,-2.0308,-2.0308,-2.0308,-2.0308,-2.0308,-2.0308,-2.0308,-2.0308,-2.0308,-2.0269,-2.021,-2.0281,-2.0308,-2.0308,-2.0308,-2.0308,-2.0308,-2.0308,-2.0308,-2.0308,-2.0308,-2.0308,-2.0308,-2.0308,-2.0308,-2.0308,-2.0308,-2.0308,-2.0023,-1.9165,-1.9931,-2.0221,-1.8744,0.0,0.0,0.0,-1.8229,0.0,0.0,-1.6854,-1.5717,-1.5286,-1.5212,0.0,0.0,0.0,0.0,0.0,0.0,0.0,0.0,0.0,0.0,-2.3163,-2.3722,-2.4164,-2.4452,-2.5019,-2.5184,-2.4979,-2.4788,-2.451,-2.419,-2.419,-2.4275,-2.4419,-2.4419,-2.4537,-2.4716,-2.4716,-2.4623,-2.4541,-2.4774,-2.5236,-2.5762,-2.6155,-2.5982,-2.6053,-2.6244,-2.5732,-2.5596,-2.6447,-2.5682,-2.4991,-2.4991,-2.4991,-2.5082,-2.5274,-2.5308,-2.5219,-2.5022,-2.501,-2.4937,-2.4818,-2.4804,-2.4869,0.0,0.0,-2.508,-2.5264,-2.449,-2.4091,-2.4105,0.0,0.0,-2.4105,0.0,-2.4524,-2.5212,-2.3543,-2.2816,-2.274,-2.187,-2.1038,-2.0308,-2.0308,-2.0308,-2.0308,-2.0308,-2.0308,-2.0308,-2.0308,-2.0308,-2.0308,-2.0308,-2.0165,-2.0031,-2.0237,-2.0308,-2.0308,-2.0308,-2.0308,-2.0308,-2.0308,-2.0308,-2.0308,-2.0308,-2.0308,-2.0308,-2.0308,-2.0308,-2.0308,-2.0308,-2.0308,-2.0023,-1.9165,-1.9554,-1.9673,-1.8653,0.0,0.0,0.0,0.0,0.0,-1.9468,-1.943,-1.8972,-1.804,-1.8543,0.0,0.0,0.0,0.0,0.0,0.0,0.0,-2.1299,-2.207,0.0,-2.4072,-2.3894,-2.429,-2.5288,-2.5308,-2.5184,-2.4998,-2.4666,-2.4393,-2.419,-2.419,-2.419,-2.4199,-2.4199,-2.433,-2.4503,-2.4503,-2.4503,-2.4596,-2.539,-2.6069,-2.6594,-2.5596,-2.5259,-2.504,-2.5239,-2.5184,-2.5242,-2.5639,-2.5313,-2.5004,-2.5004,-2.493,-2.4917,-2.5077,-2.5214,-2.5219,0.0,-2.4923,-2.4792,0.0,-2.4086,-2.3806,-2.3836,-2.3403,-2.3516,-2.4255,-2.403,-2.422,-2.4928,0.0,0.0,0.0,-2.4659,-2.4755,-2.449,-2.4505,-2.387,-2.2778,-2.2509,-2.1581,-2.0308,-2.0308,-2.0308,-2.0308,-2.0308,-2.0308,-2.0308,-2.0308,-2.0205,-2.0106,-2.0106,-1.9983,-1.9874,-1.9936,-2.0012,-2.0106,-2.0106,-2.0197,-2.0273,-2.0124,-2.0106,-2.0106,-2.0106,-2.0106,-2.0124,-2.0273,-2.0308,-2.0308,-2.0308,-2.0308,-2.0023,-1.9165,-1.9554,-1.9673,-1.8653,-1.9126,0.0,-1.8585,0.0,-1.8217,-1.7993,-1.7888,-1.7504,-1.6655,-1.6552,0.0,0.0,0.0,0.0,0.0,0.0,0.0,0.0,-2.2394,0.0,-2.4698,-2.4646,-2.478,-2.5099,-2.5229,-2.5149,-2.4862,-2.4615,-2.4266,-2.3876,-2.4094,-2.4074,-2.3886,-2.4103,-2.4237,-2.4294,-2.4294,-2.4294,-2.4331,-2.4579,-2.514,-2.5778,-2.4901,-2.4709,-2.4551,-2.4768,-2.4917,-2.504,-2.5163,-2.5036,-2.491,-2.4818,-2.4749,-2.4719,-2.4797,-2.4981,0.0,-2.4943,-2.4785,-2.4599,-2.4401,-2.3633,-2.3221,-2.3292,-2.2906,-2.3031,-2.3774,-2.4093,0.0,-2.5308,-2.5308,-2.5038,-2.4567,-2.4755,-2.4736,-2.4543,-2.4336,-2.385,-2.3141,-2.2755,-2.1979,-2.1014,-2.1096,-2.1138,-2.1123,-2.1214,-2.1043,-2.0746,-2.0685,-2.0379,-1.9984,-1.9929,-1.9836,-1.9719,-1.9719,-1.9792,-1.9874,-1.9959,-2.0083,-2.0161,-2.0031,-1.9988,-1.9998,-1.9948,-1.9954,-2.0041,-2.0245,-2.0308,-2.0308,-2.0308,-2.0308,-2.0135,-1.9584,-1.9837,-1.9864,-1.9109,-1.9375,-1.9404,-1.8665,0.0,-1.8366,0.0,0.0,0.0,0.0,-1.7194,-1.7693,0.0,0.0,0.0,0.0,0.0,-2.066,-2.2144,-2.2713,-2.3528,-2.4651,-2.4881,-2.5034,-2.5111,-2.5248,-2.5154,-2.4864,-2.4682,-2.4389,-2.4011,-2.4142,-2.4084,-2.3907,-2.4103,-2.419,-2.419,-2.419,-2.419,-2.4245,-2.4548,-2.497,-2.5393,-2.4384,-2.4441,-2.4534,-2.4746,-2.4897,-2.4992,-2.4992,-2.4877,-2.4731,-2.4528,-2.4486,-2.4486,-2.4503,-2.4654,-2.4768,-2.4782,0.0,0.0,-2.4209,-2.3456,-2.3077,-2.3268,-2.3239,-2.3382,-2.3753,-2.451,-2.5008,-2.5278,-2.5269,-2.5274,-2.5254,-2.4524,-2.4582,-2.5192,-2.3447,-2.3088,-2.3705,-2.2703,-2.2258,-2.2215,-2.2392,-2.2481,-2.2498,-2.269,-2.2237,-2.1447,-2.1345,-2.0722,-1.9944,-1.9824,-1.9682,-1.9569,-1.9569,-1.9569,-1.9624,-1.9882,-1.9988,-1.9974,-1.9964,-1.9964,-1.9934,-1.9813,-1.989,-2.0046,-2.0225,-2.0273,-2.0277,-2.0277,-2.0285,-2.0308,-2.0308,-2.0308,-2.0199,-1.986,-1.979,-1.9663,-1.9276,-1.8721,-1.8936,0.0,0.0,0.0,-1.8496,-1.9736,-1.9653,0.0,0.0,0.0,0.0,0.0,-2.2216,-2.1675,-2.3056,-2.3922,-2.4154,-2.4717,-2.5099,-2.5308,-2.5308,-2.5184,-2.5004,-2.4869,-2.4685,-2.4469,-2.4275,-2.418,-2.417,-2.419,-2.419,-2.419,-2.419,-2.419,-2.4281,-2.5044,-2.5319,-2.5319,0.0,0.0,-2.4321,-2.4545,-2.4719,-2.4849,-2.4849,-2.4814,-2.4731,-2.4528,-2.4366,-2.4339,-2.4486,-2.441,-2.441,-2.4569,-2.4537,-2.44,-2.4209,-2.3456,-2.3015,-2.3078,-2.2479,-2.2547,-2.3409,-2.3596,-2.4105,-2.4929,-2.5018,-2.5077,-2.5063,-2.5032,-2.5046,-2.5057,-2.4616,-2.4106,-2.3547,-2.3304,-2.2818,-2.2202,-2.2248,-2.2268,-2.2287,-2.2492,-2.1972,-2.1129,-2.1254,-2.0613,-1.9695,-1.9669,-1.9523,-1.9365,-1.9365,-1.9365,-1.9409,-1.9637,-1.9768,-1.9819,-1.9713,-1.9701,-1.9688,-1.9669,-1.975,-1.9858,-1.9909,-1.9997,-2.0069,-2.0069,-2.0197,-2.0308,-2.0308,-2.0308,-2.0199,-1.986,-1.979,-1.9476,-1.8521,-1.8776,-1.9028,0.0,-1.923,-1.9154,-1.8472,-1.8603,-1.9,0.0,0.0,-2.1115,-2.2558,-2.3484,-2.3759,-2.3277,-2.3618,-2.412,-2.4776,-2.4933,-2.5099,-2.5308,-2.5308,-2.5184,-2.5004,-2.4869,-2.4551,-2.4118,-2.4182,-2.4046,-2.3837,-2.4094,-2.419,-2.419,-2.419,-2.419,-2.4226,-2.441,-2.4483,-2.4483,-2.5358,-2.4795,-2.4257,-2.4461,-2.4583,-2.4662,-2.4662,-2.4662,-2.4583,-2.4393,-2.4257,-2.4247,-2.4348,-2.4275,-2.4247,-2.4348,-2.4357,-2.4321,-2.4199,-2.3456,-2.3006,-2.3006,-2.2575,-2.2652,-2.3292,-2.3665,-2.4169,-2.4804,-2.4864,-2.493,-2.501,-2.5105,-2.5099,-2.5004,-2.4949,-2.4556,-2.3956,-2.3854,-2.3555,-2.3119,-2.3221,-2.3259,-2.3262,-2.3466,-2.2969,-2.2091,-2.1752,-2.0984,-2.0078,-1.9629,-1.9387,-1.9297,-1.9297,-1.9297,-1.932,-1.9423,-1.9584,-1.977,-2.0063,-1.9887,-1.9608,-1.9608,-1.9643,-1.9719,-1.9792,-1.9858,-1.9933,-1.9998,-2.0097,-2.0193,-2.0281,-2.0214,-2.0079,-1.9849,-1.975,-1.9456,-1.8746,-1.9022,-1.9177,-1.8841,-1.9107,-1.9177,-1.8841,-1.9044,-1.9557,-2.0429,-2.1208,0.0,-2.3056,-2.3989,-2.4229,-2.3683,-2.4118,-2.4566,-2.501,-2.5094,-2.5198,-2.5308,-2.5308,-2.5234,-2.516,-2.5387,-2.5077,-2.4395,-2.4726,-2.4523,-2.3927,-2.3966,-2.4064,-2.418,-2.4026,-2.4074,-2.4245,-2.4622,-2.453,-2.43,-2.4355,-2.4281,-2.4238,-2.4418,-2.4478,-2.4486,-2.4452,-2.4478,-2.4436,-2.4228,-2.419,-2.419,-2.419,-2.419,-2.419,-2.419,-2.419,-2.419,-2.419,-2.3566,-2.3171,-2.3171,-2.3171,-2.3252,-2.343,-2.4118,-2.4545,-2.4708,-2.4738,-2.4802,-2.493,-2.4962,-2.4955,-2.4924,-2.4814,-2.4639,-2.4435,-2.4266,-2.419,-2.4209,-2.4384,-2.4452,-2.4478,-2.4678,-2.4121,-2.3149,-2.2447,-2.1496,-2.0455,-1.9737,-1.9407,-1.9297,-1.9297,-1.9297,-1.9297,-1.9297,-1.9409,-1.9734,-2.0552,-2.0254,-1.9715,-1.9585,-1.9548,-1.957,-1.9707,-1.9756,-1.9796,-1.9922,-1.9963,-2.0012,-2.0184,-2.0088,-1.9971,-1.9948,-1.9744,-1.9564,-1.9485,0.0,-1.9352,-1.9481,-1.9481,-1.9536,-1.9664,-2.0299,-2.0749,-2.0878,-2.2199,-2.3043,-2.3171,-2.3987,-2.4184,-2.3618,-2.4498,-2.498,-2.5004,-2.5168,-2.5269,-2.5308,-2.5308,-2.5365,-2.5514,-2.591,-2.5697,-2.4997,-2.5356,-2.5013,-2.418,-2.3896,-2.3917,-2.4094,-2.3876,-2.399,-2.4379,-2.4987,-2.4934,-2.474,-2.5081,-2.4677,-2.4209,-2.4247,-2.4393,-2.4435,-2.4266,-2.4393,-2.4436,-2.4228,-2.419,-2.419,-2.419,-2.419,-2.419,-2.419,-2.419,-2.419,-2.419,-2.408,-2.4006,-2.4006,-2.4006,-2.4025,-2.4063,-2.4173,-2.4257,-2.4294,-2.4461,-2.4551,-2.4572,-2.4749,-2.4734,-2.4583,-2.4551,-2.4426,-2.4247,-2.4209,-2.419,-2.4199,-2.4237,-2.4256,-2.4266,-2.4469,-2.3514,-2.2142,-2.2853,-2.1554,-1.9611,-2.0142,-1.9858,-1.9297,-1.9297,-1.9297,-1.9297,-1.9297,-1.932,-1.9526,-2.032,-2.0468,-2.0192,-1.9526,-1.9342,-1.935,-1.9361,-1.9509,-1.9642,-1.9669,-1.975,-1.9836,-1.9877,-1.9841,-2.0018,-2.0552,-2.0057,-1.9762,-2.0249,0.0,-1.9546,-2.0236,-2.0309,-2.0603,-2.1335,-2.1519,-2.1877,-2.2566,-2.2859,-2.3299,-2.3988,-2.4154,-2.4192,-2.4091,-2.4572,-2.4884,-2.5004,-2.5028,-2.5122,-2.5308,-2.5308,-2.5692,-2.6365,-2.5572,-2.5431,-2.5778,-2.5003,-2.4504,-2.4208,-2.4151,-2.3986,-2.3806,-2.4026,-2.4405,-2.4766,-2.4496,-2.5162,-2.6172,-2.4677,-2.4447,-2.419,-2.419,-2.4275,-2.4312,-2.4209,-2.4275,-2.4312,-2.4209,-2.419,-2.419,-2.419,-2.419,-2.419,-2.419,-2.419,-2.419,-2.419,-2.419,-2.419,-2.419,-2.419,-2.419,-2.419,-2.419,-2.419,-2.419,-2.4401,-2.4503,-2.4503,-2.4708,-2.4693,-2.4503,-2.4503,-2.4393,-2.419,-2.419,-2.419,-2.419,-2.419,-2.419,-2.4172,-2.3823,-2.3446,-2.2978,-2.2097,-2.1297,-2.0564,-2.0023,-1.9601,-1.9297,-1.9297,-1.9297,-1.9297,-1.9297,-1.9601,-1.9932,-1.9877,-2.0162,-2.0309,-1.9499,-1.9297,-1.9297,-1.9297,-1.9365,-1.9478,-1.9569,-1.9656,-1.9707,-1.9797,-1.9738,-1.995,-2.0676,-2.0033,-1.969,-2.0391,-2.0181,-2.0071,-2.0456,-2.0914,-2.1528,-2.2373,-2.2446,-2.2776,-2.3584,-2.3657,-2.3804,-2.4171,-2.419,-2.419,-2.419,-2.4583,-2.485,-2.5004,-2.5105,-2.5208,-2.5308,-2.5308,-2.5519,-2.5918,-2.621,-2.5975,-2.5374,-2.565,-2.5199,-2.418,-2.4006,-2.3837,-2.3747,-2.4107,-2.4382,-2.4653,-2.5303,-2.5863,-2.635,-2.4245,-2.419,-2.419,-2.419,-2.419,-2.419,-2.419,-2.419,-2.419,-2.419,-2.419,-2.419,-2.419,-2.419,-2.419,-2.419,-2.419,-2.419,-2.419,-2.419,-2.419,-2.419,-2.419,-2.419,-2.419,-2.419,-2.419,-2.419,-2.4401,-2.4503,-2.4503,-2.4708,-2.4693,-2.4503,-2.4503,-2.4393,-2.419,-2.419,-2.419,-2.419,-2.419,-2.419,-2.4135,-2.3511,-2.3547,-2.3676,-2.1758,-2.1272,-2.1298,-2.0005,-1.9444,-1.9297,-1.9297,-1.9297,-1.9334,-1.951,-2.017,-2.0658,-2.005,-2.0464,-2.0896,-2.0087,-1.9885,-1.9885,-1.9885,-1.9719,-1.9684,-2.0037,-1.9947,-1.9904,-2.0206,-2.0026,-2.0133,-2.1146,0.0,-1.9932,-2.0933,-2.0914,-2.0878,-2.1061,-2.1675,-2.2391,-2.3189,-2.3281,-2.3547,-2.4153,-2.419,-2.419,-2.419,-2.419,-2.419,-2.419,-2.4503,-2.4734,-2.4885,-2.5084,-2.5192,-2.5224,-2.5224,-2.543,-2.5841,-2.6746,-2.6581,-2.5618,-2.6513,-2.6079,-2.473,-2.4291,-2.3995,-2.3907,-2.4278,-2.4443,-2.4646,-2.5941,-2.6441,-2.6595,-2.4337,-2.419,-2.419,-2.419,-2.419,-2.419,-2.419,-2.419,-2.419,-2.419,-2.419,-2.419,-2.419,-2.419,-2.419,-2.419,-2.419,-2.419,-2.419,-2.419,-2.419,-2.419,-2.419,-2.419,-2.419,-2.419,-2.419,-2.419,-2.4401,-2.4503,-2.4503,-2.4708,-2.4693,-2.4503,-2.4503,-2.4393,-2.419,-2.419,-2.419,-2.419,-2.419,-2.419,-2.419,-2.4135,-2.3694,-2.3061,-2.2878,-2.1868,-2.0584,-2.0456,-1.9913,-1.9297,-1.9297,-1.9297,-1.9444,-2.0181,-2.1033,-2.1684,-2.1629,-2.2208,-2.2621,-2.1812,-2.161,-2.161,-2.161,-2.0996,-2.0647,-2.1462,-2.1003,-2.0682,-2.1506,-2.0974,-2.0949,-2.2574,0.0,0.0,-2.2584,-2.2171,-2.1978,-2.2731,-2.2878,-2.3226,-2.4025,-2.4116,-2.4135,-2.419,-2.419,-2.419,-2.419,-2.419,-2.419,-2.419,-2.4228,-2.433,-2.4526,-2.4746,-2.491,-2.5022,-2.5022,-2.5837,-2.7318,-2.6502,-2.6752,-2.7811,-2.7186,-2.6717,-2.6363,-2.5593,-2.4922,-2.439,-2.4646,-2.4885,-2.5091,-2.5442,-2.6507,-2.7715,-2.4263,-2.419,-2.419,-2.419,-2.419,-2.419,-2.419,-2.419,-2.419,-2.419,-2.419,-2.419,-2.419,-2.419,-2.419,-2.419,-2.419,-2.419,-2.419,-2.419,-2.419,-2.419,-2.419,-2.419,-2.419,-2.419,-2.419,-2.419,-2.4528,-2.4615,-2.4512,-2.4795,-2.4773,-2.4503,-2.4503,-2.4393,-2.419,-2.419,-2.419,-2.419,-2.419,-2.419,-2.4153,-2.3657,-2.3584,-2.3621,-2.2611,-2.2171,-2.1887,-2.0859,-2.0309,-1.9968,-1.9462,-1.9297,-1.9554,-2.0904,-2.1896,-2.2648,-2.3144,-2.2776,-2.218,-2.1886,-2.1794,-2.1794,-2.1794,-2.1537,-2.14,-2.1721,-2.1537,-2.1408,-2.1739,-2.1537,-2.1675,-2.2822,0.0,-2.1694,-2.2841,-2.274,-2.2666,-2.2951,-2.3428,-2.3859,-2.4171,-2.419,-2.419,-2.419,-2.419,-2.419,-2.419,-2.4677,-2.4934,-2.4934,-2.4934,-2.5032,-2.5241,-2.5448,-2.5823,-2.6363,-2.6363,-2.6696,-2.7312,-2.73,-2.7326,-2.7363,-2.7438,-2.7119,-2.6594,-2.6264,-2.5726,-2.5131,-2.574,-2.5754,-2.5485,-2.6038,-2.6786,-2.7539,-2.4245,-2.419,-2.419,-2.419,-2.419,-2.419,-2.419,-2.419,-2.419,-2.419,-2.419,-2.419,-2.419,-2.419,-2.419,-2.419,-2.419,-2.419,-2.419,-2.419,-2.419,-2.419,-2.419,-2.419,-2.419,-2.419,-2.419,-2.419,-2.4599,-2.4731,-2.4599,-2.4872,-2.4852,-2.4583,-2.4537,-2.4393,-2.419,-2.419,-2.419,-2.419,-2.419,-2.419,-2.4135,-2.3584,-2.3731,-2.4025,-2.2648,-2.2538,-2.2786,-2.1373,-2.0914,-2.0813,-2.027,-2.027,-2.0629,-2.1537,-2.2538,-2.3511,-2.4043,-2.3391,-2.2547,-2.2547,-2.2547,-2.2547,-2.2547,-2.2363,-2.2253,-2.251,-2.2345,-2.2253,-2.251,-2.2345,-2.2446,-2.3254,-2.2703,-2.2464,-2.3263,-2.3373,-2.3373,-2.3373,-2.3764,-2.4036,-2.4036,-2.3955,-2.3927,-2.4044,-2.4036,-2.4084,-2.419,-2.4713,-2.5026,-2.5026,-2.5026,-2.5325,-2.5977,-2.5923,-2.6314,-2.7112,-2.7112,-2.7244,-2.7489,-2.7846,-2.7838,-2.7588,-2.8011,-2.7786,-2.7155,-2.6881,-2.6357,-2.5776,-2.6297,-2.615,-2.5693,-2.642,-2.6873,-2.7194,-2.4355,-2.419,-2.419,-2.419,-2.419,-2.419,-2.419,-2.419,-2.419,-2.419,-2.419,-2.419,-2.419,-2.419,-2.419,-2.419,-2.419,-2.419,-2.419,-2.419,-2.419,-2.419,-2.419,-2.419,-2.419,-2.419,-2.419,-2.419,-2.4599,-2.4797,-2.4804,-2.4949,-2.4936,-2.479,-2.4583,-2.4393,-2.419,-2.419,-2.419,-2.419,-2.419,-2.419,-2.419,-2.419,-2.419,-2.4098,-2.3299,-2.3006,-2.2896,-2.2088,-2.1812,-2.1812,-2.1794,-2.2354,-2.2841,-2.2051,-2.2951,-2.419,-2.419,-2.419,-2.419,-2.419,-2.419,-2.419,-2.419,-2.3584,-2.3244,-2.4043,-2.3566,-2.3244,-2.4043,-2.3547,-2.3263,-2.4061,-2.3529,-2.3281,-2.408,-2.419,-2.419,-2.4208,-2.3907,-2.3692,-2.3692,-2.3392,-2.3346,-2.3671,-2.3703,-2.3837,-2.418,-2.4208,-2.4208,-2.4208,-2.4208,-2.4997,-2.6583,-2.6005,-2.6098,-2.6916,-2.6916,-2.7326,-2.8097,-2.7906,-2.8246,-2.8994,-2.8994,-2.8761,-2.8335,-2.7541,-2.6819,-2.6209,-2.6135,-2.5908,-2.571,-2.642,-2.6691,-2.6808,-2.4245,-2.419,-2.419,-2.419,-2.419,-2.419,-2.419,-2.419,-2.419,-2.419,-2.419,-2.419,-2.419,-2.419,-2.419,-2.419,-2.419,-2.419,-2.419,-2.419,-2.419,-2.419,-2.419,-2.419,-2.419,-2.419,-2.419,-2.419,-2.4461,-2.4662,-2.4804,-2.4842,-2.4835,-2.479,-2.4583,-2.4393,-2.419,-2.419,-2.419,-2.419,-2.419,-2.419,-2.419,-2.419,-2.419,-2.4171,-2.3933,-2.3841,-2.3712,-2.2905,-2.2648,-2.2538,-2.1978,-2.2354,-2.2951,-2.2712,-2.3382,-2.419,-2.419,-2.419,-2.419,-2.419,-2.419,-2.419,-2.419,-2.4006,-2.3914,-2.4153,-2.4006,-2.3914,-2.4153,-2.4006,-2.3914,-2.4153,-2.4006,-2.3933,-2.4171,-2.419,-2.4103,-2.3886,-2.3764,-2.3599,-2.3369,-2.3247,-2.3346,-2.3671,-2.3917,-2.4094,-2.419,-2.5273,-2.5621,-2.5062,-2.5585,-2.6392,-2.742,-2.6704,-2.703,-2.8364,-2.8364,-2.8493,-2.8732,-2.8378,-2.836,-2.8565,-2.8334,-2.8161,-2.8029,-2.7798,-2.7398,-2.6972,-2.6959,-2.6709,-2.6404,-2.6623,-2.6691,-2.6758,-2.419,-2.419,-2.419,-2.419,-2.419,-2.419,-2.419,-2.419,-2.419,-2.419,-2.419,-2.419,-2.419,-2.419,-2.419,-2.419,-2.419,-2.419,-2.419,-2.419,-2.419,-2.419,-2.419,-2.419,-2.419,-2.419,-2.419,-2.419,-2.4401,-2.4551,-2.4678,-2.4678,-2.4678,-2.467,-2.4469,-2.4321,-2.419,-2.419,-2.419,-2.419,-2.419,-2.419,-2.419,-2.419,-2.419,-2.419,-2.419,-2.419,-2.4135,-2.3639,-2.3465,-2.3327,-2.252,-2.2832,-2.341,-2.3098,-2.3566,-2.419,-2.419,-2.419,-2.419,-2.419,-2.419,-2.419,-2.419,-2.419,-2.419,-2.419,-2.419,-2.419,-2.419,-2.419,-2.419,-2.419,-2.419,-2.419,-2.419,-2.4084,-2.3927,-2.3714,-2.3477,-2.3224,-2.3021,-2.292,-2.3032,-2.3477,-2.4114,-2.4539,-2.4667,-2.5897,-2.6374,-2.5888,-2.6355,-2.6915,-2.7551,-2.7237,-2.7721,-2.9005,-2.9005,-2.8917,-2.8761,-2.8515,-2.8342,-2.8197,-2.7996,-2.7811,-2.7663,-2.7663,-2.7441,-2.7067,-2.7067,-2.6923,-2.6691,-2.6691,-2.6691,-2.6758,-2.419,-2.419,-2.419,-2.419,-2.419,-2.419,-2.419,-2.419,-2.419,-2.419,-2.419,-2.419,-2.419,-2.419,-2.419,-2.419,-2.419,-2.419,-2.419,-2.419,-2.419,-2.419,-2.419,-2.419,-2.419,-2.419,-2.419,-2.419,-2.4384,-2.4478,-2.4503,-2.4478,-2.4478,-2.4495,-2.4284,-2.419,-2.419,-2.419,-2.419,-2.419,-2.419,-2.419,-2.419,-2.419,-2.419,-2.419,-2.419,-2.419,-2.419,-2.419,-2.419,-2.4061,-2.3336,-2.3621,-2.4061,-2.3318,-2.3639,-2.419,-2.419,-2.419,-2.419,-2.419,-2.419,-2.419,-2.419,-2.417,-2.4161,-2.419,-2.417,-2.4161,-2.419,-2.419,-2.419,-2.419,-2.419,-2.418,-2.4161,-2.3896,-2.3682,-2.3628,-2.3069,-2.2682,-2.2673,-2.2463,-2.2558,-2.3105,-2.4139,-2.4918,-2.5283,-2.6062,-2.649,-2.6508,-2.6582,-2.6777,-2.7149,-2.7523,-2.8112,-2.8905,-2.8929,-2.8737,-2.8337,-2.8311,-2.8143,-2.7855,-2.7811,-2.7574,-2.7257,-2.7257,-2.7019,-2.6691,-2.6691,-2.6691,-2.6691,-2.6691,-2.6691,-2.6758,-2.419,-2.419,-2.419,-2.419,-2.419,-2.419,-2.419,-2.419,-2.419,-2.419,-2.419,-2.419,-2.419,-2.419,-2.419,-2.419,-2.419,-2.419,-2.419,-2.419,-2.419,-2.419,-2.419,-2.419,-2.419,-2.419,-2.419,-2.419,-2.4247,-2.4358,-2.4495,-2.4348,-2.4339,-2.4495,-2.4284,-2.419,-2.419,-2.419,-2.419,-2.419,-2.419,-2.419,-2.419,-2.419,-2.419,-2.419,-2.419,-2.419,-2.419,-2.419,-2.419,-2.4171,-2.3988,-2.4061,-2.4171,-2.3988,-2.4061,-2.419,-2.419,-2.419,-2.419,-2.419,-2.419,-2.419,-2.419,-2.3996,-2.3886,-2.4151,-2.3996,-2.3896,-2.4151,-2.419,-2.419,-2.419,-2.419,-2.4103,-2.3855,-2.3753,-2.3511,-2.2984,-2.2797,-2.2625,-2.2415,-2.251,-2.2673,-2.2797,-2.3276,-2.3851,-2.4498,-2.5301,-2.5747,-2.5732,-2.6351,-2.6716,-2.6814,-2.6894,-2.7339,-2.8147,-2.8394,-2.8342,-2.7992,-2.7675,-2.75,-2.7409,-2.7099,-2.6906,-2.6824,-2.6824,-2.6791,-2.6691,-2.6691,-2.6691,-2.6691,-2.6691,-2.6691,-2.6758,-2.419,-2.419,-2.419,-2.419,-2.419,-2.419,-2.419,-2.419,-2.419,-2.419,-2.419,-2.419,-2.419,-2.419,-2.419,-2.419,-2.419,-2.419,-2.419,-2.419,-2.419,-2.419,-2.419,-2.419,-2.419,-2.419,-2.419,-2.419,-2.419,-2.4238,-2.4348,-2.4256,-2.4266,-2.4348,-2.4256,-2.419,-2.419,-2.419,-2.419,-2.419,-2.419,-2.419,-2.419,-2.419,-2.419,-2.419,-2.419,-2.419,-2.419,-2.419,-2.419,-2.419,-2.419,-2.419,-2.419,-2.419,-2.419,-2.419,-2.419,-2.419,-2.419,-2.419,-2.419,-2.419,-2.419,-2.3937,-2.3764,-2.3927,-2.3692,-2.3618,-2.4147,-2.4099,-2.4024,-2.4227,-2.4213,-2.4084,-2.3753,-2.3555,-2.3335,-2.2984,-2.2678,-2.245,-2.2307,-2.2426,-2.2718,-2.3236,-2.3798,-2.4497,-2.5407,-2.6207,-2.6645,-2.6635,-2.7055,-2.7183,-2.6997,-2.7183,-2.7291,-2.7332,-2.789,-2.7978,-2.7622,-2.7411,-2.7194,-2.6987,-2.6791,-2.6691,-2.6691,-2.6691,-2.6691,-2.6691,-2.6691,-2.6691,-2.6691,-2.6691,-2.6691,-2.6725,-2.419,-2.419,-2.419,-2.419,-2.419,-2.419,-2.419,-2.419,-2.419,-2.419,-2.419,-2.419,-2.419,-2.419,-2.419,-2.419,-2.419,-2.419,-2.419,-2.419,-2.417,-2.4132,-2.417,-2.417,-2.4132,-2.417,-2.419,-2.419,-2.419,-2.419,-2.419,-2.419,-2.419,-2.419,-2.419,-2.419,-2.419,-2.419,-2.419,-2.419,-2.419,-2.419,-2.419,-2.419,-2.419,-2.419,-2.419,-2.419,-2.419,-2.419,-2.419,-2.419,-2.419,-2.419,-2.419,-2.419,-2.419,-2.419,-2.419,-2.4161,-2.4103,-2.4103,-2.4213,-2.4323,-2.4323,-2.3956,-2.3621,-2.3692,-2.3392,-2.3312,-2.3989,-2.3838,-2.3726,-2.4056,-2.4071,-2.3907,-2.3577,-2.33,-2.3093,-2.3051,-2.2611,-2.2296,-2.2296,-2.2296,-2.2711,-2.3736,-2.4427,-2.5313,-2.6462,-2.7136,-2.7569,-2.7692,-2.7692,-2.753,-2.721,-2.753,-2.7348,-2.6708,-2.738,-2.7515,-2.7194,-2.7194,-2.702,-2.6691,-2.6691,-2.6691,-2.6691,-2.6691,-2.6691,-2.6691,-2.6691,-2.6691,-2.6691,-2.6691,-2.6691,-2.6691,-2.419,-2.419,-2.419,-2.419,-2.419,-2.419,-2.419,-2.419,-2.419,-2.419,-2.419,-2.419,-2.419,-2.419,-2.419,-2.419,-2.419,-2.419,-2.419,-2.419,-2.4074,-2.3785,-2.4054,-2.4064,-2.3774,-2.4054,-2.419,-2.419,-2.419,-2.419,-2.419,-2.419,-2.419,-2.419,-2.419,-2.419,-2.419,-2.419,-2.419,-2.419,-2.419,-2.419,-2.419,-2.419,-2.419,-2.419,-2.419,-2.419,-2.419,-2.419,-2.419,-2.419,-2.419,-2.419,-2.419,-2.419,-2.419,-2.419,-2.419,-2.3996,-2.3774,-2.3774,-2.4299,-2.4806,-2.4806,-2.4006,-2.3357,-2.3649,-2.32,-2.2895,-2.3283,-2.3295,-2.3301,-2.333,-2.333,-2.3212,-2.2885,-2.2797,-2.2673,-2.2457,-2.2349,-2.2296,-2.2296,-2.2296,-2.2629,-2.3415,-2.3566,-2.4243,-2.5666,-2.5853,-2.621,-2.684,-2.6857,-2.6841,-2.6791,-2.6841,-2.6808,-2.6691,-2.6808,-2.6824,-2.6791,-2.6791,-2.6758,-2.6691,-2.6691,-2.6691,-2.6691,-2.6691,-2.6691,-2.6691,-2.6691,-2.6691,-2.6691,-2.6691,-2.6691,-2.6691,-2.419,-2.419,-2.419,-2.419,-2.419,-2.419,-2.419,-2.419,-2.419,-2.419,-2.419,-2.419,-2.419,-2.419,-2.419,-2.419,-2.419,-2.419,-2.419,-2.4016,-2.3847,-2.3703,-2.3671,-2.366,-2.3692,-2.3837,-2.4006,-2.419,-2.419,-2.419,-2.419,-2.419,-2.419,-2.419,-2.419,-2.419,-2.419,-2.419,-2.419,-2.419,-2.419,-2.419,-2.419,-2.419,-2.419,-2.419,-2.419,-2.419,-2.419,-2.419,-2.419,-2.419,-2.419,-2.4074,-2.3917,-2.3917,-2.3917,-2.3886,-2.3692,-2.3671,-2.3739,-2.398,-2.4308,-2.4682,-2.5134,-2.4706,-2.43,-2.4634,-2.4347,-2.4147,-2.4482,-2.4357,-2.4142,-2.3971,-2.3867,-2.355,-2.2798,-2.2708,-2.2599,-2.2335,-2.2296,-2.2296,-2.2296,-2.2682,-2.3054,-2.3376,-2.4154,-2.4915,-2.5575,-2.5998,-2.6353,-2.6691,-2.6691,-2.6691,-2.6691,-2.6691,-2.6691,-2.6691,-2.6691,-2.6691,-2.6691,-2.6691,-2.6691,-2.6691,-2.6691,-2.6691,-2.6691,-2.6691,-2.6691,-2.6691,-2.6691,-2.6691,-2.6691,-2.6691,-2.6691,-2.6691]},{"header":{"parameterUnit":"m.s-1","parameterCategory":1,"la1":30.6,"la2":28.766,"lo1":-90.7593,"lo2":-88.6598,"dy":0.0162,"dx":0.0183,"nx":116,"ny":114,"refTime":"2023-07-26T06:00:00:Z","depth":0,"parameterNumber":3,"parameterNumberName":"V-component_of_WINDS"},"data":[0.0,0.0,0.0,0.0,0.0,0.0,0.0,0.0,0.0,0.0,0.0,0.0,0.0,0.0,0.0,0.0,0.0,0.0,0.0,0.0,0.0,0.0,0.0,0.0,0.0,0.0,0.0,0.0,0.0,0.0,0.0,0.0,0.0,0.0,0.0,0.0,0.0,0.0,0.0,0.0,0.0,0.0,0.0,0.0,0.0,0.0,0.0,0.0,0.0,0.0,0.0,0.0,0.0,0.0,0.0,0.0,0.0,0.0,0.0,0.0,0.0,0.0,0.0,0.0,0.0,0.0,0.0,0.0,0.0,0.0,0.0,0.0,0.0,0.0,0.0,0.0,0.0,0.0,0.0,0.0,0.0,0.0,0.0,0.0,0.0,0.0,0.0,0.0,0.0,0.0,0.0,0.0,0.0,0.0,0.0,0.0,0.0,0.0,0.0,0.0,0.0,0.0,0.0,0.0,0.0,0.0,0.0,0.0,0.0,0.0,0.0,0.0,0.0,0.0,0.0,0.0,0.0,0.0,0.0,0.0,0.0,0.0,0.0,0.0,0.0,0.0,0.0,0.0,0.0,0.0,0.0,0.0,0.0,0.0,0.0,0.0,0.0,0.0,0.0,0.0,0.0,0.0,0.0,0.0,0.0,0.0,0.0,0.0,0.0,0.0,0.0,0.0,0.0,0.0,0.0,0.0,0.0,0.0,0.0,0.0,0.0,0.0,0.0,0.0,0.0,0.0,0.0,0.0,0.0,0.0,0.0,0.0,0.0,0.0,0.0,0.0,0.0,0.0,0.0,0.0,0.0,0.0,0.0,0.0,0.0,0.0,0.0,0.0,0.0,0.0,0.0,0.0,0.0,0.0,0.0,0.0,0.0,0.0,0.0,0.0,0.0,0.0,0.0,0.0,0.0,0.0,0.0,0.0,0.0,0.0,0.0,0.0,0.0,0.0,0.0,0.0,0.0,0.0,0.0,0.0,0.0,0.0,0.0,0.0,0.0,0.0,0.0,0.0,0.0,0.0,0.0,0.0,0.0,0.0,0.0,0.0,0.0,0.0,0.0,0.0,0.0,0.0,0.0,0.0,0.0,0.0,0.0,0.0,0.0,0.0,0.0,0.0,0.0,0.0,0.0,0.0,0.0,0.0,0.0,0.0,0.0,0.0,0.0,0.0,0.0,0.0,0.0,0.0,0.0,0.0,0.0,0.0,0.0,0.0,0.0,0.0,0.0,0.0,0.0,0.0,0.0,0.0,0.0,0.0,0.0,0.0,0.0,0.0,0.0,0.0,0.0,0.0,0.0,0.0,0.0,0.0,0.0,0.0,0.0,0.0,0.0,0.0,0.0,0.0,0.0,0.0,0.0,0.0,0.0,0.0,0.0,0.0,0.0,0.0,0.0,0.0,0.0,0.0,0.0,0.0,0.0,0.0,0.0,0.0,0.0,0.0,0.0,0.0,0.0,0.0,0.0,0.0,0.0,0.0,0.0,0.0,0.0,0.0,0.0,0.0,0.0,0.0,0.0,0.0,0.0,0.0,0.0,0.0,0.0,0.0,0.0,0.0,0.0,0.0,0.0,0.0,0.0,0.0,0.0,0.0,0.0,0.0,0.0,0.0,0.0,0.0,0.0,0.0,0.0,0.0,0.0,0.0,0.0,0.0,0.0,0.0,0.0,0.0,0.0,0.0,0.0,0.0,0.0,0.0,0.0,0.0,0.0,0.0,0.0,0.0,0.0,0.0,0.0,0.0,0.0,0.0,0.0,0.0,0.0,0.0,0.0,0.0,0.0,0.0,0.0,0.0,0.0,0.0,0.0,0.0,0.0,0.0,0.0,0.0,0.0,0.0,0.0,0.0,0.0,0.0,0.0,0.0,0.0,0.0,0.0,0.0,0.0,0.0,0.0,0.0,0.0,0.0,0.0,0.0,0.0,0.0,0.0,0.0,0.0,0.0,0.0,0.0,0.0,0.0,0.0,0.0,0.0,0.0,0.0,0.0,0.0,0.0,0.0,0.0,0.0,0.0,0.0,0.0,0.0,0.0,0.0,0.0,0.0,0.0,0.0,0.0,0.0,0.0,0.0,0.0,0.0,0.0,0.0,0.0,0.0,0.0,0.0,0.0,0.0,0.0,0.0,0.0,0.0,0.0,0.0,0.0,0.0,0.0,0.0,0.0,0.0,0.0,0.0,0.0,0.0,0.0,0.0,0.0,0.0,0.0,0.0,0.0,0.0,0.0,0.0,0.0,0.0,0.0,0.0,0.0,0.0,0.0,0.0,0.0,0.0,0.0,0.0,0.0,0.0,0.0,0.0,0.0,0.0,0.0,0.0,0.0,0.0,0.0,0.0,0.0,0.0,0.0,0.0,0.0,0.0,0.0,0.0,0.0,0.0,0.0,0.0,0.0,0.0,0.0,0.0,0.0,0.0,0.0,0.0,0.0,0.0,0.0,0.0,0.0,0.0,0.0,0.0,0.0,0.0,0.0,0.0,0.0,0.0,0.0,0.0,0.0,0.0,0.0,0.0,0.0,0.0,0.0,0.0,0.0,0.0,0.0,0.0,0.0,0.0,0.0,0.0,0.0,0.0,0.0,0.0,0.0,0.0,0.0,0.0,0.0,0.0,0.0,0.0,0.0,0.0,0.0,0.0,0.0,0.0,0.0,0.0,0.0,0.0,0.0,0.0,0.0,0.0,0.0,0.0,0.0,0.0,0.0,0.0,0.0,0.0,0.0,0.0,0.0,0.0,0.0,0.0,0.0,0.0,0.0,0.0,0.0,0.0,0.0,0.0,0.0,0.0,0.0,0.0,0.0,0.0,0.0,0.0,0.0,0.0,0.0,0.0,0.0,0.0,0.0,0.0,0.0,0.0,0.0,0.0,0.0,0.0,0.0,0.0,0.0,0.0,0.0,0.0,0.0,0.0,0.0,0.0,0.0,0.0,0.0,0.0,0.0,0.0,0.0,0.0,0.0,0.0,0.0,0.0,0.0,0.0,0.0,0.0,0.0,0.0,0.0,0.0,0.0,0.0,0.0,0.0,0.0,0.0,0.0,0.0,0.0,0.0,0.0,0.0,0.0,0.0,0.0,0.0,0.0,0.0,0.0,0.0,0.0,0.0,0.0,0.0,0.0,0.0,0.0,0.0,0.0,0.0,0.0,0.0,0.0,0.0,0.0,0.0,0.0,0.0,0.0,0.0,0.0,0.0,0.0,0.0,0.0,0.0,0.0,0.0,0.0,0.0,0.0,0.0,0.0,0.0,0.0,0.0,0.0,0.0,0.0,0.0,0.0,0.0,0.0,0.0,0.0,0.0,0.0,0.0,0.0,0.0,0.0,0.0,0.0,0.0,0.0,0.0,0.0,0.0,0.0,0.0,0.0,0.0,0.0,0.0,0.0,0.0,0.0,0.0,0.0,0.0,0.0,0.0,0.0,0.0,0.0,0.0,0.0,0.0,0.0,0.0,0.0,0.0,0.0,0.0,0.0,0.0,0.0,0.0,0.0,0.0,0.0,0.0,0.0,0.0,0.0,0.0,0.0,0.0,0.0,0.0,0.0,0.0,0.0,0.0,0.0,0.0,0.0,0.0,0.0,0.0,0.0,0.0,0.0,0.0,0.0,0.0,0.0,0.0,0.0,0.0,0.0,0.0,0.0,0.0,0.0,0.0,0.0,0.0,0.0,0.0,0.0,0.0,0.0,0.0,0.0,0.0,0.0,0.0,0.0,0.0,0.0,0.0,0.0,0.0,0.0,0.0,0.0,0.0,0.0,0.0,0.0,0.0,0.0,0.0,0.0,0.0,0.0,0.0,0.0,0.0,0.0,0.0,0.0,0.0,0.0,0.0,0.0,0.0,0.0,0.0,0.0,0.0,0.0,0.0,0.0,0.0,0.0,0.0,0.0,0.0,0.0,0.0,0.0,0.0,0.0,0.0,0.0,0.0,0.0,0.0,0.0,0.0,0.0,0.0,0.0,0.0,0.0,0.0,0.0,0.0,0.0,0.0,0.0,0.0,0.0,0.0,0.0,0.0,0.0,0.0,0.0,0.0,0.0,0.0,0.0,0.0,0.0,0.0,0.0,0.0,0.0,0.0,0.0,0.0,0.0,0.0,0.0,0.0,0.0,0.0,0.0,0.0,0.0,0.0,0.0,0.0,0.0,0.0,0.0,0.0,0.0,0.0,0.0,0.0,0.0,0.0,0.0,0.0,0.0,0.0,0.0,0.0,0.0,0.0,0.0,0.0,0.0,0.0,0.0,0.0,0.0,0.0,0.0,0.0,0.0,0.0,0.0,0.0,0.0,0.0,0.0,0.0,0.0,0.0,0.0,0.0,0.0,0.0,0.0,0.0,0.0,0.0,0.0,0.0,0.0,0.0,0.0,0.0,0.0,0.0,0.0,0.0,0.0,0.0,0.0,0.0,0.0,0.0,0.0,0.0,0.0,0.0,0.0,0.0,0.0,0.0,0.0,0.0,0.0,0.0,0.0,0.0,0.0,0.0,0.0,0.0,0.0,0.0,0.0,0.0,0.0,0.0,0.0,0.0,0.0,0.0,0.0,0.0,0.0,0.0,0.0,0.0,0.0,0.0,0.0,0.0,0.0,0.0,0.0,0.0,0.0,0.0,0.0,0.0,0.0,0.0,0.0,0.0,0.0,0.0,0.0,0.0,0.0,0.0,0.0,0.0,0.0,0.0,0.0,0.0,0.0,0.0,0.0,0.0,0.0,0.0,0.0,0.0,0.0,0.0,0.0,0.0,0.0,0.0,0.0,0.0,0.0,0.0,0.0,0.0,0.0,0.0,0.0,0.0,0.0,0.0,0.0,0.0,0.0,0.0,0.0,0.0,0.0,0.0,0.0,0.0,0.0,0.0,0.0,0.0,0.0,0.0,0.0,0.0,0.0,0.0,0.0,0.0,0.0,0.0,0.0,0.0,0.0,0.0,0.0,0.0,0.0,0.0,0.0,0.0,0.0,0.0,0.0,0.0,0.0,0.0,0.0,0.0,0.0,0.0,0.0,0.0,0.0,0.0,0.0,0.0,0.0,0.0,0.0,0.0,0.0,0.0,0.0,0.0,0.0,0.0,0.0,0.0,0.0,0.0,0.0,0.0,0.0,0.0,0.0,0.0,0.0,0.0,0.0,0.0,0.0,0.0,0.0,0.0,0.0,0.0,0.0,0.0,0.0,0.0,0.0,0.0,0.0,0.0,0.0,0.0,0.0,0.0,0.0,0.0,0.0,0.0,0.0,0.0,0.0,0.0,0.0,0.0,0.0,0.0,0.0,0.0,0.0,0.0,0.0,0.0,0.0,0.0,0.0,0.0,0.0,0.0,0.0,0.0,0.0,0.0,0.0,0.0,0.0,0.0,0.0,0.0,0.0,0.0,0.0,0.0,0.0,0.0,0.0,0.0,0.0,0.0,0.0,0.0,0.0,0.0,0.0,0.0,0.0,0.0,0.0,0.0,0.0,0.0,0.0,0.0,0.0,0.0,0.0,0.0,0.0,0.0,0.0,0.0,0.0,0.0,0.0,0.0,0.0,0.0,0.0,0.0,0.0,0.0,0.0,0.0,0.0,0.0,0.0,0.0,0.0,0.0,0.0,0.0,0.0,0.0,0.0,0.0,0.0,0.0,0.0,0.0,0.0,0.0,0.0,0.0,0.0,0.0,0.0,0.0,0.0,0.0,0.0,0.0,0.0,0.0,0.0,0.0,0.0,0.0,0.0,0.0,0.0,0.0,0.0,0.0,0.0,0.0,0.0,0.0,0.0,0.0,0.0,0.0,0.0,0.0,0.0,0.0,0.0,0.0,0.0,0.0,0.0,0.0,0.0,0.0,0.0,0.0,0.0,0.0,0.0,0.0,0.0,0.0,0.0,0.0,0.0,0.0,0.0,0.0,0.0,0.0,0.0,0.0,0.0,0.0,0.0,0.0,0.0,0.0,0.0,0.0,0.0,0.0,0.0,0.0,0.0,0.0,0.0,0.0,0.0,0.0,0.0,0.0,0.0,0.0,0.0,0.0,0.0,0.0,0.0,0.0,0.0,0.0,0.0,0.0,0.0,0.0,0.0,0.0,0.0,0.0,0.0,0.0,0.0,0.0,0.0,0.0,0.0,-1.0535,0.0,0.0,0.0,0.0,0.0,0.0,0.0,0.0,0.0,0.0,0.0,0.0,0.0,0.0,0.0,0.0,0.0,0.0,0.0,0.0,0.0,0.0,0.0,0.0,0.0,0.0,0.0,0.0,0.0,0.0,0.0,0.0,0.0,0.0,0.0,0.0,0.0,0.0,0.0,0.0,0.0,0.0,0.0,0.0,0.0,0.0,0.0,0.0,0.0,0.0,0.0,0.0,0.0,0.0,0.0,0.0,0.0,0.0,0.0,0.0,0.0,0.0,0.0,0.0,0.0,0.0,0.0,0.0,0.0,0.0,0.0,0.0,0.0,0.0,0.0,0.0,0.0,0.0,0.0,0.0,0.0,0.0,0.0,0.0,0.0,0.0,0.0,0.0,0.0,0.0,0.0,0.0,0.0,0.0,0.0,0.0,0.0,0.0,0.0,0.0,0.0,0.0,0.0,0.0,0.0,0.0,0.0,0.0,0.0,0.0,0.0,0.0,0.0,0.0,0.0,0.0,-1.1364,0.0,0.0,0.0,0.0,0.0,0.0,0.0,0.0,0.0,0.0,0.0,0.0,0.0,0.0,0.0,0.0,0.0,0.0,0.0,0.0,0.0,0.0,0.0,0.0,0.0,0.0,0.0,0.0,0.0,0.0,0.0,0.0,0.0,0.0,0.0,0.0,0.0,0.0,0.0,0.0,0.0,0.0,0.0,0.0,0.0,0.0,0.0,0.0,0.0,0.0,0.0,0.0,0.0,0.0,0.0,0.0,0.0,0.0,0.0,0.0,0.0,0.0,0.0,0.0,0.0,0.0,0.0,0.0,0.0,0.0,0.0,0.0,0.0,0.0,0.0,0.0,0.0,0.0,0.0,0.0,0.0,0.0,0.0,0.0,0.0,0.0,0.0,0.0,0.0,0.0,0.0,0.0,0.0,0.0,0.0,0.0,0.0,0.0,0.0,0.0,0.0,0.0,0.0,0.0,0.0,0.0,0.0,0.0,-1.3916,-1.4065,-1.4328,-1.425,-1.4036,-1.3701,-1.3281,-1.2812,-1.235,-1.2734,0.0,0.0,0.0,0.0,0.0,0.0,0.0,0.0,0.0,0.0,0.0,0.0,0.0,0.0,0.0,0.0,0.0,0.0,0.0,0.0,0.0,0.0,0.0,0.0,0.0,0.0,0.0,0.0,0.0,0.0,0.0,0.0,0.0,0.0,0.0,0.0,0.0,0.0,-1.7608,-1.7382,-1.752,-1.7886,0.0,0.0,0.0,0.0,0.0,0.0,0.0,0.0,0.0,0.0,0.0,0.0,0.0,0.0,0.0,0.0,0.0,0.0,0.0,0.0,0.0,0.0,0.0,0.0,0.0,0.0,0.0,0.0,0.0,0.0,0.0,0.0,0.0,0.0,0.0,0.0,0.0,0.0,0.0,0.0,0.0,0.0,0.0,0.0,-0.9707,-1.0832,0.0,0.0,0.0,0.0,0.0,0.0,0.0,0.0,0.0,0.0,0.0,0.0,0.0,-1.4707,-1.5078,-1.5488,-1.5508,-1.5166,-1.5576,-1.5557,-1.5234,-1.4863,-1.4668,-1.459,-1.4133,0.0,-1.2803,-1.2876,0.0,0.0,0.0,0.0,0.0,0.0,0.0,0.0,0.0,0.0,0.0,0.0,0.0,0.0,0.0,0.0,0.0,0.0,0.0,0.0,0.0,0.0,0.0,0.0,0.0,0.0,0.0,0.0,0.0,0.0,0.0,0.0,0.0,0.0,0.0,0.0,-1.7203,-1.836,-1.9684,-1.9493,-1.9517,-1.9697,-1.9131,-1.8662,-1.8198,-1.748,0.0,0.0,0.0,0.0,0.0,0.0,0.0,0.0,0.0,0.0,0.0,0.0,0.0,0.0,0.0,0.0,0.0,0.0,0.0,0.0,0.0,0.0,0.0,0.0,0.0,0.0,0.0,0.0,0.0,0.0,0.0,0.0,0.0,0.0,0.0,0.0,0.0,0.0,0.0,-0.9676,-1.1682,-1.1357,-1.2653,-1.3398,0.0,0.0,0.0,0.0,0.0,0.0,0.0,0.0,0.0,-1.5547,-1.5751,-1.5937,-1.6122,-1.6338,-1.6338,-1.6122,-1.6348,-1.6338,-1.6112,-1.5967,-1.5879,-1.5869,-1.5644,-1.5244,-1.4617,-1.3633,-1.3232,-1.3178,0.0,0.0,0.0,0.0,-1.2314,-1.2258,0.0,0.0,0.0,0.0,0.0,0.0,0.0,0.0,0.0,0.0,0.0,0.0,0.0,0.0,0.0,-1.457,0.0,0.0,0.0,0.0,0.0,0.0,0.0,0.0,0.0,0.0,0.0,0.0,-1.9468,-2.04,-2.1526,-2.1431,-2.1348,-2.1221,-2.1221,-2.0459,-1.9085,-1.8168,-1.6529,0.0,0.0,0.0,0.0,0.0,0.0,0.0,0.0,0.0,0.0,0.0,0.0,0.0,0.0,0.0,0.0,0.0,0.0,0.0,0.0,0.0,0.0,0.0,0.0,0.0,0.0,0.0,0.0,0.0,0.0,0.0,0.0,0.0,0.0,0.0,0.0,0.0,0.0,-1.141,-1.2932,-1.1747,-1.3365,-1.4248,0.0,0.0,0.0,0.0,0.0,0.0,-1.5683,-1.6162,-1.6633,-1.7019,-1.7135,-1.7233,-1.735,-1.736,-1.736,-1.736,-1.736,-1.7291,-1.7184,-1.7077,-1.697,-1.6863,-1.6746,-1.6543,-1.6153,-1.4736,-1.4092,-1.3955,-1.3535,-1.3394,-1.3375,-1.3242,-1.3135,-1.3091,0.0,0.0,0.0,0.0,0.0,0.0,0.0,0.0,0.0,0.0,0.0,0.0,0.0,0.0,-1.4582,-1.5889,-1.5644,-1.542,0.0,0.0,0.0,0.0,0.0,0.0,0.0,0.0,0.0,-2.0464,-2.0268,-2.1133,-2.2996,-2.2607,-2.2607,-2.2964,-2.2964,-2.2691,-2.2035,-1.8657,-1.6938,-1.6165,0.0,0.0,0.0,0.0,0.0,0.0,0.0,0.0,0.0,0.0,0.0,0.0,0.0,0.0,0.0,0.0,0.0,0.0,0.0,0.0,0.0,0.0,0.0,0.0,0.0,0.0,0.0,0.0,0.0,0.0,0.0,0.0,0.0,0.0,0.0,0.0,0.0,0.0,0.0,-1.2313,-1.4434,0.0,0.0,0.0,0.0,-1.5968,-1.6348,-1.659,-1.6629,-1.708,-1.751,-1.793,-1.8295,-1.8705,-1.915,-1.916,-1.916,-1.916,-1.916,-1.8945,-1.849,-1.8091,-1.7734,-1.7334,-1.6882,-1.6687,-1.6629,-1.6173,-1.5723,-1.5273,-1.4853,-1.4687,-1.4639,-1.4202,-1.3792,-1.3418,0.0,0.0,0.0,0.0,0.0,0.0,0.0,0.0,0.0,0.0,0.0,0.0,0.0,-1.5049,-1.5898,-1.7197,-1.7422,-1.7106,-1.6287,0.0,0.0,0.0,0.0,0.0,0.0,0.0,-1.8708,-2.1319,-2.1813,-2.2635,-2.3659,-2.3123,-2.2955,-2.3091,-2.3091,-2.26,-2.1593,-1.9775,-1.7467,-1.4917,-1.3076,-1.126,0.0,0.0,0.0,0.0,0.0,0.0,0.0,0.0,0.0,0.0,0.0,0.0,0.0,0.0,0.0,0.0,0.0,0.0,0.0,0.0,0.0,0.0,0.0,0.0,0.0,0.0,0.0,0.0,0.0,0.0,0.0,0.0,0.0,0.0,0.0,0.0,0.0,-1.5566,-1.708,0.0,-1.6697,-1.7051,-1.7422,-1.7695,-1.8125,-1.8623,-1.917,-1.9619,-2.0059,-2.0488,-2.0654,-2.0801,-2.0957,-2.0684,-2.04,-2.0145,-1.9824,-1.9463,-1.9043,-1.8568,-1.8295,-1.8164,-1.7711,-1.7525,-1.7539,-1.7383,-1.6562,-1.5371,-1.4951,-1.4619,-1.4319,-1.4163,-1.4007,-1.3992,0.0,0.0,0.0,0.0,0.0,0.0,0.0,0.0,0.0,0.0,0.0,-1.3945,-1.5116,-1.6016,-1.7122,-1.8525,-1.8481,-1.792,-1.6815,0.0,0.0,0.0,0.0,0.0,0.0,-1.7843,-1.9619,-2.1973,-2.2604,-2.3185,-2.3684,-2.3301,-2.3091,-2.3091,-2.3091,-2.2217,-2.0631,-2.0079,-1.7879,-1.4635,-1.3258,-1.1947,-1.0728,0.0,0.0,0.0,0.0,0.0,0.0,0.0,0.0,0.0,0.0,0.0,0.0,0.0,0.0,0.0,0.0,0.0,0.0,0.0,0.0,0.0,0.0,0.0,0.0,0.0,0.0,0.0,0.0,0.0,0.0,0.0,0.0,0.0,0.0,0.0,-1.7598,-1.7598,-1.8984,-1.9551,-1.8535,-1.8838,-1.9173,-1.9455,-1.9912,-2.0449,-2.1016,-2.1289,-2.1592,-2.1875,-2.1885,-2.1885,-2.1885,-2.1414,-2.1084,-2.0791,-2.0342,-1.9912,-1.9482,-1.9163,-1.8958,-1.8802,-1.8555,-1.8359,-1.8188,-1.8188,-1.7373,-1.6055,-1.5771,-1.5488,-1.5167,-1.4864,-1.4785,-1.4931,0.0,0.0,0.0,0.0,0.0,0.0,0.0,0.0,0.0,0.0,-1.3271,-1.4189,-1.5909,-1.6897,-1.8076,-1.9746,-1.8711,-1.7619,-1.6853,-1.4489,0.0,0.0,0.0,0.0,0.0,0.0,0.0,0.0,-2.2516,-2.2744,-2.3091,-2.3091,-2.3091,-2.3091,-2.3047,-2.1721,-1.9497,-1.9451,-1.8065,-1.5685,-1.3317,-1.2345,-1.2144,0.0,0.0,0.0,0.0,0.0,0.0,0.0,0.0,0.0,0.0,0.0,0.0,0.0,0.0,0.0,0.0,0.0,0.0,0.0,0.0,0.0,0.0,0.0,0.0,0.0,0.0,0.0,0.0,0.0,0.0,0.0,0.0,0.0,-1.4579,-1.7331,-1.9062,-1.8281,-2.0011,-2.0791,-1.9551,-2.0576,-2.1268,-2.1249,-2.168,-2.1924,-2.1924,-2.1924,-2.1924,-2.1924,-2.1924,-2.1924,-2.1924,-2.1475,-2.121,-2.121,-2.0791,-2.0342,-1.9932,-1.9922,-1.9697,-1.9307,-1.9297,-1.9043,-1.8598,-1.8598,-1.8144,-1.7435,-1.7393,-1.7363,-1.7269,-1.6408,-1.6115,-1.6208,0.0,0.0,0.0,0.0,0.0,0.0,0.0,0.0,0.0,0.0,-1.3815,-1.4882,-1.5968,-1.7151,-1.8271,-1.9365,-1.8008,-1.6951,-1.6747,0.0,0.0,0.0,0.0,0.0,0.0,0.0,0.0,0.0,0.0,0.0,0.0,0.0,-2.3091,-2.3047,-2.2173,-2.0944,-1.9451,-1.8549,-1.7283,-1.5679,-1.4188,-1.334,-1.2812,0.0,0.0,0.0,0.0,0.0,0.0,0.0,0.0,0.0,0.0,0.0,0.0,0.0,0.0,0.0,0.0,0.0,0.0,0.0,0.0,0.0,0.0,0.0,0.0,0.0,0.0,0.0,0.0,0.0,0.0,0.0,0.0,-1.8379,-1.8379,-1.9731,-2.1074,-2.208,-2.2988,-2.3281,-2.2617,-2.2871,-2.2959,-2.2594,-2.2682,-2.275,-2.275,-2.275,-2.275,-2.275,-2.275,-2.275,-2.275,-2.207,-2.1709,-2.1699,-2.0967,-2.0537,-2.0419,-2.0059,-1.9853,-1.9727,-1.9424,-1.9043,-1.8598,-1.8598,-1.8286,-1.7803,-1.75,-1.7024,-1.6427,-1.6183,-1.6553,-1.7214,0.0,0.0,0.0,0.0,0.0,0.0,0.0,0.0,0.0,0.0,-1.3816,-1.5067,-1.5743,-1.6797,-1.7754,-1.8428,-1.707,-1.6019,-1.5671,0.0,0.0,0.0,0.0,0.0,0.0,0.0,0.0,0.0,0.0,0.0,0.0,0.0,0.0,-2.3047,-2.1845,-2.0621,-1.9405,-1.8234,-1.6943,-1.5724,-1.509,-1.4609,-1.4113,-1.2719,-1.2218,-1.2164,-1.1196,-1.1102,-1.1269,-1.0501,0.0,0.0,0.0,0.0,0.0,0.0,0.0,0.0,0.0,0.0,0.0,0.0,0.0,0.0,0.0,0.0,0.0,0.0,0.0,0.0,0.0,0.0,0.0,0.0,-1.8753,-2.0781,-2.167,-2.209,-2.2734,-2.3916,-2.4268,-2.4248,-2.3828,-2.3789,-2.3603,-2.313,-2.3091,-2.3091,-2.3091,-2.3091,-2.3091,-2.3091,-2.3091,-2.3091,-2.3091,-2.2305,-2.1885,-2.1875,-2.1026,-2.0605,-2.0595,-2.0303,-2.0185,-2.0176,-1.9969,-1.957,-1.9124,-1.8948,-1.8627,0.0,0.0,0.0,0.0,0.0,-1.653,-1.7191,0.0,0.0,0.0,0.0,0.0,0.0,0.0,0.0,0.0,0.0,0.0,-1.4746,-1.5019,-1.5849,-1.658,-1.6954,-1.5898,-1.4888,0.0,0.0,0.0,0.0,0.0,0.0,0.0,0.0,0.0,0.0,0.0,0.0,0.0,0.0,0.0,0.0,-2.1712,-2.0486,-1.9397,-1.8048,-1.685,-1.5784,-1.5784,-1.5764,-1.5558,-1.4015,-1.3707,-1.3948,-1.2569,-1.1911,-1.1675,-1.1283,0.0,0.0,0.0,0.0,0.0,0.0,0.0,0.0,0.0,0.0,0.0,0.0,0.0,0.0,0.0,0.0,0.0,0.0,0.0,0.0,0.0,0.0,0.0,0.0,-2.0761,-2.2223,-2.4219,-2.4209,-2.415,-2.4521,-2.457,-2.4404,-2.3975,-2.3887,-2.3682,-2.3198,-2.312,-2.3091,-2.3091,0.0,0.0,0.0,0.0,-2.3091,-2.3091,-2.2353,-2.1934,-2.1875,-2.1075,-2.0654,-2.0605,-2.0605,-2.0605,-2.0605,-2.0605,-2.0312,-1.9883,-1.9512,-1.9072,-1.8559,-1.8125,-1.7686,-1.7207,-1.6398,-1.6285,-1.6595,0.0,0.0,0.0,0.0,0.0,0.0,0.0,0.0,0.0,-1.0921,-1.2537,-1.35,-1.2886,-1.389,-1.458,-1.4509,-1.4113,-1.3934,0.0,0.0,0.0,0.0,0.0,0.0,0.0,0.0,0.0,0.0,0.0,0.0,0.0,0.0,0.0,0.0,0.0,-1.9716,-1.936,-1.7117,-1.6015,-1.5784,-1.5784,-1.5691,-1.5418,-1.4843,-1.4549,-1.4309,-1.3307,-1.3373,-1.3728,-1.2472,-1.2298,-1.2478,-1.169,0.0,0.0,0.0,0.0,0.0,0.0,0.0,0.0,0.0,0.0,0.0,0.0,0.0,0.0,0.0,0.0,0.0,0.0,0.0,0.0,-2.0749,-2.2532,-2.4062,-2.4834,-2.5185,-2.5343,-2.5421,-2.544,-2.5303,-2.491,-2.4502,-2.4121,-2.3691,-2.3296,-2.3091,-2.3091,-2.3091,-2.3091,-2.3091,-2.3091,-2.3091,-2.3091,-2.2604,-2.2217,-2.1875,0.0,0.0,-2.0605,-2.0605,-2.0605,-2.0605,-2.0605,-2.0312,-1.9902,-1.9824,-1.9336,-1.8529,-1.7803,-1.7236,-1.6797,-1.629,-1.6285,-1.6521,0.0,0.0,0.0,0.0,0.0,0.0,0.0,0.0,0.0,0.0,-1.205,-1.2823,-1.241,-1.2615,-1.2753,-1.2677,-1.2664,0.0,0.0,0.0,0.0,0.0,0.0,0.0,0.0,0.0,0.0,0.0,0.0,0.0,0.0,0.0,0.0,0.0,0.0,-1.9344,-1.8668,-1.6959,-1.6186,-1.6052,-1.6052,-1.5879,-1.5598,-1.5451,-1.5304,-1.5077,-1.4349,-1.4275,-1.4362,-1.328,-1.308,-1.3106,-1.2536,-1.194,-1.1323,0.0,0.0,0.0,0.0,0.0,0.0,0.0,0.0,0.0,0.0,0.0,0.0,0.0,0.0,-1.7938,0.0,0.0,-2.1894,-2.2978,-2.4238,-2.5225,-2.5664,-2.5918,-2.5977,-2.5713,-2.5693,-2.5557,-2.5165,-2.4873,-2.4482,-2.3838,-2.3584,-2.3369,-2.311,-2.3091,-2.3091,-2.3091,-2.3091,-2.3091,-2.3091,-2.2083,-2.1779,-2.2187,-2.0901,-2.0524,-2.0889,-2.0703,-2.0605,-2.0605,-2.0605,-2.0478,-2.0205,-1.9775,-1.9182,-1.8539,-1.7939,-1.7432,-1.6973,-1.6339,-1.6188,-1.6312,0.0,0.0,0.0,0.0,0.0,0.0,0.0,0.0,0.0,0.0,0.0,-1.2182,-1.2004,-1.1583,-1.1361,0.0,0.0,0.0,0.0,0.0,0.0,0.0,0.0,0.0,0.0,0.0,0.0,0.0,0.0,0.0,0.0,0.0,0.0,0.0,0.0,0.0,-1.8089,-1.7139,-1.6573,-1.6353,-1.6342,-1.6126,-1.5912,-1.5804,-1.5792,-1.5665,-1.5023,-1.4569,-1.4188,-1.3647,-1.3313,-1.3093,-1.2998,-1.2712,-1.2258,-1.1176,-1.0727,0.0,0.0,0.0,0.0,0.0,0.0,0.0,0.0,0.0,-1.5849,-1.6298,-1.7971,-1.977,-2.096,-2.1972,-2.3136,-2.4844,-2.5449,-2.584,-2.6328,-2.6318,-2.6133,-2.5732,-2.5693,-2.5547,-2.5234,-2.5165,-2.4746,-2.3965,-2.3648,-2.3227,-2.2794,-2.2545,-2.2403,-2.2403,-2.2633,-2.2775,-2.2775,-2.1477,-2.137,-2.2457,-2.0546,-2.0199,-2.1181,-2.0859,-2.0683,-2.0595,-2.0517,-2.0429,-2.0292,-1.9482,-1.8955,-1.8559,-1.8174,-1.7803,-1.7412,-1.6643,-1.6242,-1.6127,0.0,0.0,0.0,0.0,0.0,0.0,0.0,0.0,0.0,0.0,0.0,0.0,0.0,0.0,0.0,0.0,0.0,0.0,0.0,0.0,0.0,0.0,0.0,0.0,0.0,0.0,0.0,0.0,0.0,0.0,0.0,0.0,0.0,0.0,0.0,0.0,0.0,-1.7179,-1.6687,-1.6633,-1.638,-1.6301,-1.6192,-1.5925,-1.5671,-1.5337,-1.4489,-1.3828,-1.3307,-1.2998,-1.2864,-1.2924,-1.3387,-1.3307,-1.2926,-1.2033,0.0,-1.0506,-1.008,-1.0234,-1.0794,-1.1797,-1.1807,-1.2168,0.0,0.0,-1.5909,-1.662,-1.8306,-1.9948,-2.0918,-2.2143,-2.3424,-2.4887,-2.5449,-2.584,-2.6328,-2.6055,-2.5742,-2.5693,-2.5693,-2.5664,-2.5615,-2.5303,-2.4863,-2.4385,-2.3017,-2.198,-2.1543,-2.0486,-1.9906,-1.9906,-2.0935,-2.1525,-2.1525,-2.1346,-2.1648,-2.2467,-2.1161,-2.0787,-2.119,-2.1142,-2.0947,-2.0586,-2.0156,-1.9775,-1.9394,-1.887,-1.8646,-1.8559,-1.8174,-1.7978,-1.7881,-1.7412,-1.677,-1.6115,0.0,0.0,0.0,0.0,0.0,0.0,0.0,0.0,0.0,0.0,0.0,0.0,0.0,0.0,0.0,0.0,0.0,0.0,0.0,0.0,0.0,0.0,0.0,0.0,0.0,0.0,0.0,0.0,0.0,0.0,0.0,0.0,0.0,0.0,0.0,0.0,0.0,-1.7391,-1.7021,-1.6693,-1.6573,-1.6319,-1.5965,-1.5504,-1.4661,-1.3756,-1.3794,-1.3158,0.0,0.0,-1.1942,-1.1966,-1.2465,-1.2645,-1.2472,-1.145,-1.1122,0.0,-1.1122,-1.1511,0.0,0.0,-1.3703,-1.4822,-1.5874,-1.6914,-1.7851,-1.8387,-1.9534,-2.0554,-2.0979,-2.1707,-2.2682,0.0,-2.4634,-2.523,-2.6258,-2.6016,-2.5693,-2.5693,-2.5235,-2.4923,-2.4923,-2.4795,-2.4512,-2.4082,-2.2768,-2.1789,-2.132,-2.0169,-1.9497,-1.9497,-1.9988,-2.026,-2.026,-1.9534,-1.974,-2.0758,-1.999,-1.9946,-2.0517,-2.1005,-2.0986,-2.0595,-2.041,-2.0049,-1.9619,-1.9189,-1.9014,-1.8945,-1.8271,-1.812,-1.8256,-1.7627,-1.7181,-1.6789,0.0,0.0,0.0,0.0,0.0,0.0,0.0,0.0,0.0,0.0,0.0,0.0,0.0,0.0,0.0,0.0,0.0,0.0,0.0,0.0,0.0,0.0,0.0,0.0,0.0,0.0,0.0,0.0,0.0,0.0,0.0,0.0,0.0,0.0,0.0,0.0,0.0,-1.7248,-1.7094,-1.6693,-1.6533,-1.6159,-1.5578,-1.4698,-1.3444,-1.2289,-1.2698,-1.2037,0.0,0.0,-1.0819,-1.1003,-1.1497,-1.183,-1.1897,-1.1049,-1.1096,-1.1435,-1.169,0.0,0.0,-1.3554,-1.5182,-1.67,-1.6742,-1.7757,-1.8747,-1.9082,-1.9543,-2.0072,-2.042,-2.0698,-2.1437,-2.3256,-2.3814,-2.4596,-2.6198,-2.5908,-2.5557,-2.5557,-2.4775,-2.4199,-2.4027,-2.4277,-2.4238,-2.3828,-2.2346,-2.1278,-2.0818,-1.9351,-1.8488,-1.8488,-1.881,-1.9001,-1.9001,-1.8141,-1.8326,-1.9488,-1.9187,-1.944,-2.0222,-2.0876,-2.0928,-2.0429,-2.0429,-2.0137,-1.9717,-1.9414,-1.9287,-1.9228,-1.8603,-1.8477,-1.8529,-1.7959,-1.7578,-1.7328,0.0,0.0,0.0,0.0,0.0,0.0,0.0,0.0,0.0,0.0,0.0,0.0,0.0,0.0,0.0,0.0,0.0,0.0,0.0,0.0,0.0,0.0,0.0,0.0,0.0,0.0,0.0,0.0,0.0,0.0,0.0,0.0,0.0,0.0,0.0,0.0,0.0,0.0,-1.672,-1.6653,-1.6037,-1.5678,-1.5192,-1.3387,-1.208,-1.1205,-1.0985,0.0,0.0,0.0,-0.9543,-1.025,-1.0842,-1.1223,0.0,-1.1375,-1.1375,0.0,0.0,0.0,-1.3474,-1.4666,-1.5631,-1.6491,-1.7056,-1.7412,-1.7634,-1.764,-1.7484,-1.7698,-1.8998,-1.8987,-1.9752,-2.2743,-2.3278,-2.4066,-2.6111,-2.5635,-2.5135,-2.5135,-2.4326,-2.3643,0.0,-2.3881,-2.4238,-2.3828,-2.1529,-1.9961,-1.9604,-1.725,-1.592,-1.592,-1.7131,-1.7731,-1.7731,-1.7738,-1.8326,-1.9497,-1.948,-1.9911,-2.067,-2.1059,-2.0722,-1.9932,-1.9932,-1.9697,-1.9307,-1.9297,-1.9287,-1.9287,-1.9258,-1.8994,-1.8598,-1.8568,-1.8086,-1.7416,0.0,0.0,0.0,0.0,0.0,0.0,0.0,0.0,0.0,0.0,0.0,0.0,0.0,0.0,0.0,0.0,0.0,0.0,0.0,0.0,0.0,0.0,0.0,0.0,0.0,0.0,0.0,0.0,0.0,0.0,0.0,0.0,0.0,0.0,0.0,0.0,0.0,0.0,-1.5054,-1.4264,-1.4302,-1.3506,-1.2158,-1.1427,-1.0087,-0.856,0.0,0.0,0.0,0.0,0.0,0.0,-0.9246,0.0,0.0,-1.0969,-1.1136,-1.1396,0.0,0.0,-1.4897,-1.5872,-1.6787,-1.7502,-1.7702,-1.7662,-1.7528,-1.7387,-1.6747,-1.6419,-1.6843,-1.7515,-1.8651,-2.0577,-2.2138,-2.354,-2.4879,-2.5078,-2.491,-2.4287,-2.3965,0.0,0.0,0.0,0.0,-2.3369,-2.1102,-1.962,-1.9497,-1.7163,-1.5784,-1.5784,-1.6197,-1.6433,-1.6433,-1.6433,-1.6662,-1.7063,-1.8389,-2.0052,-2.1907,-2.1748,-2.1348,-2.0752,-2.0752,-2.0371,-1.9707,-1.9707,-1.9277,-1.8675,-1.9128,-1.8915,-1.8462,-1.8906,-1.8711,-1.8135,0.0,0.0,0.0,0.0,0.0,0.0,0.0,0.0,0.0,0.0,0.0,0.0,0.0,0.0,0.0,0.0,0.0,0.0,0.0,0.0,0.0,0.0,0.0,0.0,0.0,0.0,0.0,0.0,0.0,0.0,0.0,0.0,0.0,0.0,0.0,0.0,0.0,0.0,-1.3074,-1.2286,-1.2164,-1.131,-0.9959,-0.9386,-0.8239,0.0,0.0,0.0,0.0,0.0,0.0,0.0,0.0,-0.9512,-1.0281,-1.0949,-1.145,-1.2151,0.0,-1.497,-1.5972,-1.7068,-1.7776,-1.8176,-1.8015,-1.7809,-1.7408,-1.68,-1.6059,-1.5458,-1.5244,-1.5606,-1.6513,-1.8245,-2.0133,-2.1932,-2.3587,-2.4289,-2.4463,-2.4062,-2.3887,-2.3623,0.0,0.0,0.0,-2.2457,-2.0629,-1.9314,-1.8864,-1.6889,-1.5784,-1.5784,-1.5784,-1.5784,-1.5784,-1.5784,-1.6015,-1.648,-1.8215,-2.006,-2.1874,-2.2058,-2.1875,-2.1455,-2.1259,-2.0869,-2.0333,-2.0215,-1.9755,-1.9132,-1.9156,-1.8843,-1.8278,-1.821,-1.7916,-1.7492,0.0,0.0,0.0,0.0,0.0,0.0,0.0,0.0,0.0,0.0,0.0,0.0,0.0,0.0,0.0,0.0,0.0,0.0,0.0,0.0,0.0,0.0,0.0,0.0,0.0,0.0,0.0,0.0,0.0,0.0,0.0,0.0,0.0,0.0,0.0,0.0,0.0,0.0,0.0,-1.0771,-0.9805,0.0,-0.865,-0.7338,0.0,0.0,0.0,0.0,0.0,0.0,0.0,0.0,0.0,0.0,-1.1102,-1.1409,-1.2365,-1.3594,-1.5064,-1.5905,-1.6707,-1.8136,-1.849,-1.841,-1.8042,-1.7736,-1.7141,-1.5999,-1.5251,-1.4673,0.0,0.0,-1.3687,-1.6016,-1.7636,-1.9591,-2.2361,-2.3442,-2.4014,0.0,0.0,0.0,0.0,0.0,0.0,-2.1293,0.0,-1.891,-1.7777,-1.648,-1.5784,-1.5784,-1.5784,-1.5784,-1.5784,-1.5784,-1.6433,-1.7684,-1.8864,-1.9847,-2.0699,-2.1869,-2.2178,-2.1719,-2.1393,-2.1209,-2.11,-2.0781,-2.0557,-2.0352,-1.9371,-1.8644,-1.8027,-1.6724,-1.6009,-1.5761,0.0,0.0,0.0,0.0,0.0,0.0,0.0,0.0,0.0,0.0,0.0,0.0,0.0,0.0,0.0,0.0,0.0,0.0,0.0,0.0,0.0,0.0,0.0,0.0,0.0,0.0,0.0,0.0,0.0,0.0,0.0,0.0,0.0,0.0,0.0,0.0,0.0,0.0,0.0,-0.8716,0.0,-0.7169,-0.5945,0.0,0.0,0.0,0.0,0.0,0.0,0.0,0.0,0.0,0.0,0.0,-1.1837,-1.2761,-1.3567,-1.4502,-1.5972,-1.6954,-1.7716,-1.8337,-1.849,-1.835,-1.7822,-1.6794,-1.5745,-1.5003,-1.3681,-1.2583,0.0,0.0,0.0,-1.5269,-1.8676,0.0,-2.2106,-2.3928,0.0,0.0,0.0,-2.457,-2.4131,-2.301,0.0,0.0,-1.9159,-1.8002,-1.7738,-1.648,-1.5784,-1.5784,-1.5784,-1.5784,-1.5784,-1.5784,-1.6433,-1.7692,-1.8002,-1.8732,-1.9853,-2.106,-2.0853,-1.9687,-2.1438,-2.1473,-2.0333,-2.0859,-2.0105,-1.8711,-1.8914,-1.792,-1.641,-1.6846,-1.6602,-1.5975,0.0,0.0,0.0,0.0,0.0,0.0,0.0,0.0,0.0,0.0,0.0,0.0,0.0,0.0,0.0,0.0,0.0,0.0,0.0,0.0,0.0,0.0,0.0,0.0,0.0,0.0,0.0,0.0,0.0,0.0,0.0,0.0,0.0,0.0,0.0,0.0,0.0,0.0,0.0,0.0,0.0,0.0,0.0,0.0,0.0,0.0,0.0,0.0,0.0,0.0,0.0,-1.0901,-1.1584,-1.2295,-1.3053,-1.4102,0.0,-1.5745,-1.6961,-1.7842,-1.8457,-1.8637,-1.849,-1.8003,-1.6881,-1.5785,-1.4663,-1.342,-1.2265,0.0,0.0,0.0,0.0,0.0,0.0,0.0,-2.1346,-2.3472,-2.4766,0.0,-2.4805,0.0,-2.3598,-2.2407,-2.1086,0.0,-1.8476,-1.7618,-1.7111,-1.6272,-1.5784,-1.5784,-1.5784,-1.5784,-1.5784,-1.5784,-1.6157,-1.685,-1.7412,-1.8048,-1.8772,-1.9943,-2.0005,-1.9175,0.0,-2.033,-1.948,-1.9757,-1.9116,-1.7904,-1.7771,-1.6892,-1.5681,-1.5669,-1.5416,-1.499,0.0,0.0,0.0,0.0,0.0,0.0,0.0,0.0,0.0,0.0,0.0,0.0,0.0,0.0,0.0,0.0,0.0,0.0,0.0,0.0,0.0,0.0,0.0,0.0,0.0,0.0,0.0,0.0,0.0,0.0,0.0,0.0,0.0,0.0,0.0,0.0,0.0,0.0,0.0,0.0,0.0,0.0,0.0,0.0,0.0,0.0,0.0,0.0,0.0,0.0,-1.1156,-1.149,-1.2703,-1.3695,-1.4543,-1.5384,-1.6199,-1.7007,-1.7816,-1.8448,-1.8911,-1.8878,-1.839,-1.7475,-1.5738,-1.4763,-1.3633,-1.1717,0.0,-1.0595,-1.0047,0.0,-1.0536,-1.2895,0.0,-1.7355,-2.0334,-2.2403,-2.3829,-2.4397,-2.4693,-2.4212,-2.27,-2.1352,-1.9942,-1.8368,-1.803,-1.7394,-1.631,-1.5972,-1.5784,-1.5784,-1.5784,-1.5798,-1.5885,-1.5798,-1.5798,-1.5885,-1.6918,-1.7458,-1.7505,-1.8726,-1.9177,-1.9015,-1.8934,-1.8795,-1.8637,-1.8376,-1.8018,-1.7566,-1.6495,-1.5861,-1.5343,-1.4118,-1.3633,-1.3567,0.0,0.0,0.0,0.0,0.0,0.0,0.0,0.0,0.0,0.0,0.0,0.0,0.0,0.0,0.0,0.0,0.0,0.0,0.0,0.0,0.0,0.0,0.0,0.0,0.0,0.0,0.0,0.0,0.0,0.0,0.0,0.0,0.0,0.0,0.0,0.0,0.0,0.0,0.0,0.0,0.0,0.0,0.0,0.0,0.0,0.0,0.0,0.0,0.0,0.0,-1.1975,-1.3033,-1.4251,-1.5229,-1.6067,-1.671,-1.7172,-1.7575,-1.8237,-1.8664,-1.8865,-1.8624,-1.7929,-1.6958,-1.543,-1.3821,0.0,0.0,0.0,-0.9411,-0.9098,-0.9586,0.0,-1.1943,0.0,0.0,0.0,0.0,-2.3092,0.0,0.0,0.0,0.0,0.0,0.0,0.0,0.0,-1.6401,-1.5919,-1.5811,-1.5784,-1.5784,-1.5784,-1.5945,-1.6192,-1.5952,-1.5952,-1.6192,-1.6177,-1.6109,-1.615,-1.7451,-1.7451,-1.656,-1.8509,0.0,-1.7934,-1.8474,-1.8026,-1.6911,-1.6329,-1.5411,-1.437,-1.4112,-1.3854,-1.3593,0.0,0.0,0.0,0.0,0.0,0.0,0.0,0.0,0.0,0.0,0.0,0.0,0.0,0.0,0.0,0.0,0.0,0.0,0.0,0.0,0.0,0.0,0.0,0.0,0.0,0.0,0.0,0.0,0.0,0.0,0.0,0.0,0.0,0.0,0.0,0.0,0.0,0.0,0.0,0.0,0.0,0.0,0.0,0.0,0.0,0.0,0.0,0.0,0.0,0.0,-1.1557,-1.2619,-1.4576,-1.5685,-1.6442,-1.7032,-1.7514,-1.7909,-1.8364,-1.8811,-1.9045,-1.8604,-1.7695,-1.6413,-1.4489,0.0,0.0,0.0,0.0,-0.8944,-0.8831,0.0,0.0,0.0,0.0,0.0,0.0,0.0,0.0,0.0,0.0,0.0,0.0,0.0,0.0,0.0,0.0,-1.6046,-1.6059,-1.5912,-1.5784,-1.5784,-1.5784,-1.5899,-1.6039,-1.5899,-1.5899,-1.6039,-1.5899,-1.5784,-1.5825,-1.6433,-1.6386,-1.5872,-1.707,-1.7257,-1.6749,-1.7089,-1.6788,-1.6034,-1.5678,-1.5035,-1.4295,-1.4142,-1.4001,-1.3874,0.0,0.0,0.0,0.0,0.0,0.0,0.0,0.0,0.0,0.0,0.0,0.0,0.0,0.0,0.0,0.0,0.0,0.0,0.0,0.0,0.0,0.0,0.0,0.0,0.0,0.0,0.0,0.0,0.0,0.0,0.0,0.0,0.0,0.0,0.0,0.0,0.0,0.0,0.0,0.0,0.0,0.0,0.0,0.0,0.0,0.0,0.0,0.0,0.0,0.0,-1.0711,-1.1427,-1.388,-1.5217,-1.5999,-1.6576,-1.7228,-1.7909,-1.829,-1.8778,-1.9065,-1.8611,-1.7495,-1.5939,-1.3714,-1.2238,0.0,0.0,-0.8804,-0.8804,-0.8804,0.0,0.0,0.0,0.0,0.0,0.0,0.0,0.0,0.0,0.0,0.0,0.0,0.0,0.0,0.0,0.0,0.0,-1.6166,-1.5952,-1.5784,-1.5784,-1.5784,-1.5811,-1.5925,-1.5865,-1.5865,-1.5925,-1.5811,-1.5784,-1.5784,-1.5784,-1.5784,-1.5784,-1.5784,-1.5784,-1.5784,-1.5784,-1.5658,-1.5364,-1.5122,-1.4823,-1.4576,-1.4215,-1.4128,-1.4168,0.0,0.0,0.0,0.0,0.0,0.0,0.0,0.0,0.0,0.0,0.0,0.0,0.0,0.0,0.0,0.0,0.0,0.0,0.0,0.0,0.0,0.0,0.0,0.0,0.0,0.0,0.0,0.0,0.0,0.0,0.0,0.0,0.0,0.0,0.0,0.0,0.0,0.0,0.0,0.0,0.0,0.0,0.0,0.0,0.0,0.0,0.0,0.0,0.0,0.0,0.0,-0.9988,-1.1679,-1.334,-1.4743,-1.5115,0.0,0.0,-1.7936,-1.8323,-1.8557,-1.8504,-1.7188,-1.5391,-1.3621,0.0,0.0,0.0,-0.8804,-0.8804,-0.8804,-0.8831,-0.9152,0.0,0.0,0.0,0.0,0.0,0.0,0.0,0.0,0.0,0.0,0.0,0.0,0.0,0.0,0.0,-1.5824,-1.5798,-1.5784,-1.5784,-1.5784,-1.5959,-1.6226,-1.5965,-1.5965,-1.6226,-1.5959,-1.5784,-1.5784,-1.5784,-1.5784,-1.5784,-1.5784,-1.5784,0.0,-1.5784,-1.5658,-1.5364,-1.5122,-1.4988,-1.4901,-1.4295,-1.4255,-1.4442,0.0,0.0,0.0,0.0,0.0,0.0,0.0,0.0,0.0,0.0,0.0,0.0,0.0,0.0,0.0,0.0,0.0,0.0,0.0,0.0,0.0,0.0,0.0,0.0,0.0,0.0,0.0,0.0,0.0,0.0,0.0,0.0,0.0,0.0,0.0,0.0,0.0,0.0,0.0,0.0,0.0,0.0,0.0,0.0,0.0,0.0,0.0,0.0,0.0,0.0,0.0,0.0,-0.8512,-0.9571,0.0,0.0,-1.3969,-1.4734,-1.5088,-1.6097,-1.6997,-1.6713,-1.5589,-1.4148,-1.2635,0.0,0.0,-0.8339,-0.848,-0.8804,-0.8804,-0.8804,-0.8918,0.0,0.0,0.0,0.0,0.0,0.0,0.0,0.0,0.0,0.0,0.0,0.0,0.0,0.0,0.0,-1.5791,-1.5784,-1.5912,-1.6092,-1.5925,-1.5972,-1.6321,-1.5979,-1.5885,-1.6005,-1.5838,-1.5784,-1.5784,-1.5784,-1.5784,-1.5784,-1.5784,-1.5784,0.0,-1.5784,-1.5658,-1.5364,-1.5122,-1.4901,-1.4649,-1.4235,-1.4162,-1.4242,0.0,0.0,0.0,0.0,0.0,0.0,0.0,0.0,0.0,0.0,0.0,0.0,0.0,0.0,0.0,0.0,0.0,0.0,0.0,0.0,0.0,0.0,0.0,0.0,0.0,0.0,0.0,0.0,0.0,0.0,0.0,0.0,0.0,0.0,0.0,0.0,0.0,0.0,0.0,0.0,0.0,0.0,0.0,0.0,0.0,0.0,0.0,0.0,0.0,0.0,0.0,0.0,0.0,0.0,0.0,0.0,-1.1718,-1.2423,-1.2777,-1.3969,-1.501,-1.4737,-1.3725,-1.2469,0.0,0.0,-0.8285,-0.781,-0.8103,-0.8533,-0.8752,-0.8804,-0.8804,0.0,0.0,0.0,0.0,0.0,0.0,0.0,0.0,0.0,0.0,0.0,0.0,0.0,0.0,0.0,-1.5159,-1.5242,-1.553,-1.6132,-1.5939,-1.5925,-1.6139,-1.5932,-1.5784,-1.5784,-1.5784,-1.5784,-1.5784,-1.5784,-1.5784,-1.5784,-1.5784,-1.5784,0.0,-1.5784,-1.5658,-1.5364,-1.5122,-1.4881,-1.4603,-1.4229,-1.4142,-1.4202,0.0,0.0,0.0,0.0,0.0,0.0,0.0,0.0,0.0,0.0,0.0,0.0,0.0,0.0,0.0,0.0,0.0,0.0,0.0,0.0,0.0,0.0,0.0,0.0,0.0,0.0,0.0,0.0,0.0,0.0,0.0,0.0,0.0,0.0,0.0,0.0,0.0,0.0,0.0,0.0,0.0,0.0,0.0,0.0,0.0,0.0,0.0,0.0,0.0,0.0,0.0,0.0,0.0,0.0,0.0,0.0,-0.9558,-1.0985,-1.1743,-1.2257,-1.2685,-1.2955,-1.1812,-1.0449,0.0,0.0,-0.7557,-0.7666,-0.7696,-0.7943,-0.8672,-0.8804,-0.8804,-0.8804,0.0,0.0,0.0,0.0,0.0,0.0,0.0,0.0,0.0,0.0,0.0,0.0,0.0,0.0,-1.3842,-1.392,-1.4513,-1.5784,-1.5784,-1.5784,-1.5832,-1.5784,-1.5784,-1.5784,-1.5784,-1.5784,-1.5784,-1.5784,-1.5784,-1.5784,-1.5784,-1.5784,0.0,-1.5784,-1.5658,-1.5364,-1.5122,-1.5008,-1.4934,-1.4302,-1.4269,-1.4476,0.0,0.0,0.0,0.0,0.0,0.0,0.0,0.0,0.0,0.0,0.0,0.0,0.0,0.0,0.0,0.0,0.0,0.0,0.0,0.0,0.0,0.0,0.0,0.0,0.0,0.0,0.0,0.0,0.0,0.0,0.0,0.0,0.0,0.0,0.0,0.0,0.0,0.0,0.0,0.0,0.0,0.0,0.0,0.0,0.0,0.0,0.0,0.0,0.0,0.0,0.0,0.0,0.0,0.0,0.0,0.0,0.0,0.0,-0.8037,-0.8937,-0.9866,-0.9852,-0.933,-0.8692,-0.8121,-0.7138,-0.6301,-0.6224,-0.6983,-0.7777,-0.7996,-0.8454,-0.8938,-0.9339,-0.9479,0.0,0.0,0.0,0.0,0.0,0.0,0.0,0.0,0.0,0.0,0.0,0.0,0.0,-1.249,-1.2528,-1.3622,-1.6077,-1.5939,-1.5925,-1.6126,-1.5925,-1.5784,-1.5784,-1.5784,-1.5784,-1.5784,-1.5784,-1.5784,-1.5784,-1.5784,-1.5784,-1.5784,-1.5784,-1.5538,-1.5135,-1.5042,-1.476,-1.4342,-1.4155,-1.4142,-1.4182,0.0,0.0,0.0,0.0,0.0,0.0,0.0,0.0,0.0,0.0,0.0,0.0,0.0,0.0,0.0,0.0,0.0,0.0,0.0,0.0,0.0,0.0,0.0,0.0,0.0,0.0,0.0,0.0,0.0,0.0,0.0,0.0,0.0,0.0,0.0,0.0,0.0,0.0,0.0,0.0,0.0,0.0,-0.4055,0.0,0.0,0.0,0.0,0.0,0.0,0.0,0.0,0.0,0.0,0.0,0.0,0.0,-0.4959,0.0,0.0,-0.6776,-0.7602,-0.7529,-0.724,0.0,0.0,-0.6061,-0.5658,-0.5536,-0.6681,-0.7616,-0.7343,-0.7883,-0.8516,-0.8888,-0.9035,0.0,0.0,0.0,0.0,0.0,0.0,0.0,0.0,0.0,0.0,0.0,0.0,0.0,-1.113,-1.117,-1.2494,-1.5305,-1.568,-1.5919,-1.6106,-1.5919,-1.5784,-1.5784,-1.5784,-1.5784,-1.5778,-1.5289,-1.5092,-1.5045,-1.4561,-1.4322,0.0,-1.4741,-1.4625,-1.4257,-1.4193,-1.3867,-1.3385,-1.2948,-1.2759,-1.2686,0.0,0.0,0.0,0.0,0.0,0.0,0.0,0.0,0.0,0.0,0.0,0.0,0.0,0.0,0.0,0.0,0.0,0.0,0.0,0.0,0.0,0.0,0.0,0.0,0.0,0.0,0.0,-0.8246,-0.8268,-0.8135,-0.7867,0.0,0.0,0.0,0.0,0.0,0.0,-0.3855,-0.3738,-0.3504,-0.3784,-0.3841,0.0,0.0,0.0,0.0,0.0,0.0,0.0,0.0,0.0,0.0,0.0,0.0,0.0,0.0,0.0,0.0,0.0,0.0,0.0,0.0,0.0,0.0,0.0,-0.525,0.0,-0.5433,-0.6546,-0.7348,-0.6663,-0.7139,-0.7666,-0.779,-0.8024,0.0,0.0,0.0,0.0,0.0,0.0,0.0,0.0,0.0,0.0,0.0,0.0,0.0,-0.9813,-0.9948,-1.1116,-1.3536,-1.4854,-1.5581,-1.5683,-1.573,-1.573,-1.554,-1.5635,-1.5635,-1.5486,-1.4316,-1.3776,0.0,-1.2431,-1.1886,-1.1953,-1.2878,-1.3142,-1.2869,-1.2721,-1.2464,-1.2066,-1.0999,-1.0512,-1.0397,0.0,0.0,0.0,0.0,0.0,0.0,0.0,0.0,0.0,0.0,0.0,0.0,0.0,0.0,0.0,0.0,0.0,0.0,0.0,0.0,0.0,0.0,0.0,0.0,0.0,0.0,0.0,-0.7692,-0.7886,-0.7802,-0.7435,-0.7659,0.0,0.0,0.0,-0.4388,-0.2965,-0.2993,-0.2751,-0.2409,-0.2837,-0.3101,0.0,0.0,0.0,0.0,-0.4372,-0.446,0.0,0.0,0.0,0.0,0.0,0.0,0.0,0.0,-0.4132,-0.4234,-0.4436,0.0,-0.4859,-0.4859,0.0,0.0,0.0,0.0,0.0,0.0,0.0,0.0,0.0,-0.6478,-0.7311,-0.8683,-0.8514,0.0,0.0,0.0,0.0,0.0,0.0,0.0,0.0,0.0,0.0,0.0,0.0,-0.8175,-0.8432,-0.946,-1.0288,-1.0921,-1.2139,-1.3301,-1.4316,-1.5289,-1.4806,-1.2818,-1.3878,-1.383,-1.2818,-1.2528,-1.2382,-1.2334,-1.2042,-1.1849,-1.1777,-1.201,-1.1888,-1.1552,-1.1499,-1.1286,-1.095,-1.0697,-1.0512,-1.0397,0.0,0.0,0.0,0.0,0.0,0.0,0.0,0.0,0.0,0.0,0.0,0.0,0.0,0.0,0.0,0.0,0.0,0.0,0.0,0.0,0.0,0.0,0.0,0.0,0.0,0.0,0.0,0.0,0.0,-0.8008,0.0,0.0,0.0,0.0,0.0,-0.3845,-0.2696,-0.2696,-0.2393,-0.1935,-0.2182,0.0,0.0,0.0,0.0,0.0,-0.4204,-0.4365,0.0,-0.4284,-0.4151,-0.3998,0.0,0.0,0.0,0.0,-0.395,-0.4045,-0.4157,-0.4355,-0.4491,-0.4491,-0.4491,-0.4491,0.0,0.0,0.0,0.0,0.0,0.0,0.0,0.0,0.0,0.0,0.0,0.0,0.0,0.0,0.0,0.0,0.0,0.0,0.0,0.0,0.0,0.0,0.0,-0.7988,-0.7988,-0.8676,-0.9361,-0.9998,-1.0681,-1.1653,-1.2958,-1.3692,-1.3307,-1.1901,-1.2624,-1.2624,-1.1901,-1.1312,-1.1023,-1.097,-1.029,-0.9996,-0.9936,-1.0361,-1.0387,-1.0171,-1.0126,-0.9978,-0.9749,-0.9183,-0.8888,-0.8772,0.0,0.0,0.0,0.0,0.0,0.0,0.0,0.0,0.0,0.0,0.0,0.0,0.0,0.0,0.0,0.0,0.0,0.0,0.0,0.0,0.0,0.0,0.0,0.0,0.0,0.0,0.0,0.0,0.0,0.0,0.0,0.0,-0.6554,0.0,0.0,-0.3244,-0.2563,-0.2475,-0.2073,-0.1541,-0.163,0.0,0.0,0.0,0.0,0.0,0.0,0.0,0.0,-0.3761,-0.3708,-0.367,-0.3552,0.0,0.0,0.0,0.0,0.0,-0.4109,-0.4334,-0.4491,-0.4491,-0.4491,-0.4491,0.0,0.0,0.0,0.0,0.0,0.0,0.0,0.0,0.0,0.0,0.0,0.0,0.0,0.0,0.0,0.0,0.0,0.0,0.0,0.0,0.0,0.0,0.0,-0.7988,-0.7988,-0.7988,-0.8531,-0.9657,-0.9706,-1.0194,-1.1312,-1.1702,-1.1702,-1.1312,-1.1507,-1.1507,-1.1263,-1.0164,-0.9665,-0.9604,0.0,0.0,-0.7818,-0.8513,-0.8824,-0.8784,-0.8685,-0.8627,-0.8496,-0.7492,-0.7007,-0.6886,0.0,0.0,0.0,0.0,0.0,0.0,0.0,0.0,0.0,0.0,0.0,0.0,0.0,0.0,0.0,0.0,0.0,0.0,0.0,0.0,0.0,0.0,0.0,0.0,0.0,0.0,0.0,0.0,0.0,0.0,-0.6427,-0.6029,-0.5259,-0.4168,-0.3384,-0.262,-0.1897,-0.1385,-0.0828,-0.0314,-0.0828,0.0,0.0,0.0,0.0,0.0,0.0,0.0,0.0,-0.2473,-0.2395,-0.2311,-0.2272,0.0,0.0,0.0,0.0,0.0,-0.3984,-0.4256,-0.4491,-0.4491,-0.4491,-0.4491,0.0,0.0,0.0,0.0,0.0,0.0,0.0,0.0,0.0,0.0,0.0,0.0,0.0,0.0,0.0,0.0,0.0,0.0,0.0,0.0,0.0,0.0,0.0,-0.7988,-0.7988,-0.7988,-0.8088,-0.8283,-0.8283,-0.8382,-0.8577,-1.0774,-1.0774,-0.8627,-0.9752,-0.9702,-0.8574,-0.8293,-0.8132,-0.8125,0.0,-0.756,-0.748,-0.7615,-0.7559,-0.7391,-0.7367,-0.736,-0.7356,-0.7183,-0.7007,-0.6886,0.0,0.0,0.0,0.0,0.0,0.0,0.0,0.0,0.0,0.0,0.0,0.0,0.0,0.0,0.0,0.0,0.0,0.0,0.0,0.0,0.0,0.0,0.0,0.0,0.0,0.0,0.0,0.0,0.0,-0.6457,-0.6401,-0.53,-0.4327,-0.3487,-0.3088,-0.2318,-0.1273,-0.067,-0.0067,0.0471,0.0,0.0,0.0,0.0,0.0,0.0,0.0,0.0,0.0,0.0,-0.2047,-0.2012,-0.2012,0.0,0.0,0.0,0.0,0.0,-0.3482,-0.3916,-0.4365,-0.447,-0.4614,-0.4687,0.0,0.0,0.0,0.0,0.0,0.0,0.0,0.0,0.0,0.0,0.0,0.0,0.0,0.0,0.0,0.0,0.0,0.0,0.0,0.0,0.0,0.0,0.0,0.0,-0.7988,-0.7988,-0.7988,-0.7988,-0.7988,-0.7988,-0.7988,-0.9213,-0.9167,-0.7988,-0.8627,-0.8579,-0.7913,-0.7841,-0.777,-0.7689,0.0,-0.7438,-0.7409,-0.7282,-0.7204,-0.7088,-0.7011,-0.7028,-0.7095,-0.7095,-0.7055,-0.6977,0.0,0.0,0.0,0.0,0.0,0.0,0.0,0.0,0.0,0.0,0.0,0.0,0.0,0.0,0.0,0.0,0.0,0.0,0.0,0.0,0.0,0.0,0.0,0.0,0.0,0.0,-0.5823,-0.6852,-0.6238,-0.5968,-0.5999,-0.476,-0.3754,0.0,-0.2761,-0.2001,-0.0851,-0.0112,0.0468,0.0918,0.0,0.0,0.0,0.0,0.0,0.0,0.0,0.0,0.0,0.0,0.0,0.0,0.0,0.0,0.0,-0.1599,-0.2082,-0.2713,-0.3024,-0.3557,-0.408,0.0,0.0,0.0,0.0,0.0,0.0,0.0,0.0,0.0,0.0,0.0,0.0,0.0,0.0,0.0,0.0,0.0,0.0,0.0,0.0,0.0,0.0,0.0,0.0,0.0,0.0,0.0,-0.7988,-0.7988,-0.7988,-0.7988,-0.7988,-0.7988,-0.7988,-0.7988,-0.7988,-0.7988,-0.7988,-0.7911,-0.7811,-0.7777,-0.7682,-0.7539,-0.7383,-0.7319,-0.7309,-0.7146,-0.7095,-0.7082,-0.694,-0.6953,-0.7041,-0.7007,-0.7014,-0.7011,0.0,0.0,0.0,0.0,0.0,0.0,0.0,0.0,0.0,0.0,0.0,0.0,0.0,0.0,0.0,0.0,0.0,0.0,0.0,0.0,0.0,0.0,0.0,0.0,0.0,-0.4508,-0.5189,-0.6072,-0.5484,-0.4893,-0.4365,-0.4133,-0.3633,-0.2876,-0.2191,-0.1523,-0.0827,0.0335,0.0851,0.0939,0.1518,0.0,0.0,0.0,0.0,0.0,0.0,0.0,0.0,0.0,0.0,0.0,0.0,0.0,-0.0977,-0.0974,-0.1388,-0.2069,-0.288,-0.3277,-0.3613,-0.4319,0.0,0.0,0.0,0.0,0.0,0.0,0.0,0.0,0.0,0.0,0.0,0.0,0.0,0.0,0.0,0.0,0.0,0.0,0.0,0.0,0.0,0.0,0.0,0.0,0.0,0.0,-0.7988,-0.7988,-0.7988,-0.7988,-0.7988,-0.7988,-0.7988,-0.7988,-0.7988,-0.7988,-0.7988,-0.7911,-0.7807,-0.7675,-0.7533,-0.7422,-0.7224,-0.7112,-0.7112,-0.7102,-0.7095,-0.7082,-0.694,-0.6893,-0.6883,-0.6783,-0.682,-0.6876,0.0,0.0,0.0,0.0,0.0,0.0,0.0,0.0,0.0,0.0,0.0,0.0,0.0,0.0,0.0,0.0,0.0,0.0,0.0,0.0,0.0,0.0,0.0,-0.3122,-0.3444,-0.3991,-0.4638,-0.5434,-0.5285,-0.4835,-0.4078,-0.3948,0.0,0.0,-0.1956,-0.1252,-0.0292,0.0537,0.1118,0.1474,0.1719,0.203,0.0,0.0,0.0,0.0,0.0,0.0,0.0,0.0,0.0,0.0,0.0,0.0,0.0,0.0,-0.0827,-0.1539,-0.2323,-0.3007,-0.3693,-0.4345,0.0,0.0,0.0,0.0,0.0,0.0,0.0,0.0,0.0,0.0,0.0,0.0,0.0,0.0,0.0,0.0,0.0,0.0,0.0,0.0,0.0,0.0,0.0,0.0,0.0,0.0,-0.7988,-0.7988,-0.7944,-0.7899,-0.7896,-0.7855,-0.7767,-0.7851,-0.7851,-0.777,-0.7901,-0.7864,-0.7678,-0.7624,-0.7465,-0.7224,-0.7122,-0.7095,-0.7095,-0.7095,-0.7045,-0.695,-0.6844,-0.6729,-0.6651,-0.6685,-0.6736,-0.6766,0.0,0.0,0.0,0.0,0.0,0.0,0.0,0.0,0.0,0.0,0.0,0.0,0.0,0.0,0.0,0.0,0.0,0.0,0.0,0.0,0.0,0.0,0.0,-0.2936,-0.3034,-0.3598,-0.4141,-0.469,-0.4822,-0.457,-0.3944,0.0,0.0,0.0,0.0,0.0,0.0045,0.065,0.114,0.1541,0.1719,0.2162,0.0,0.0,0.0,0.0,0.0,0.0,0.0,0.0,0.0451,0.0,0.0,0.0,0.0,0.0,-0.0359,-0.0965,-0.1876,-0.2638,-0.337,0.0,0.0,0.0,0.0,0.0,0.0,0.0,0.0,0.0,0.0,0.0,0.0,0.0,0.0,0.0,0.0,0.0,0.0,0.0,0.0,0.0,0.0,0.0,0.0,0.0,0.0,0.0,-0.7921,-0.7917,-0.7899,-0.775,-0.7743,-0.7699,-0.76,-0.7695,-0.7695,-0.76,-0.7804,-0.777,-0.7529,-0.7577,-0.7431,-0.7095,-0.7095,-0.7095,-0.7092,-0.7048,-0.6916,-0.6773,-0.6668,-0.6566,-0.6518,-0.6539,-0.659,-0.6607,0.0,0.0,0.0,0.0,0.0,0.0,0.0,0.0,0.0,0.0,0.0,0.0,0.0,0.0,0.0,0.0,0.0,0.0,0.0,0.0,0.0,0.0,0.0,-0.2889,-0.2892,-0.3347,-0.3649,-0.3792,-0.3941,-0.3938,-0.3788,-0.3788,0.0,0.0,0.0,0.0,0.0,0.0627,0.0895,0.0939,0.1542,0.2142,0.2627,0.0,0.0,0.0,0.0,0.0,0.0,0.0,0.1401,0.0,0.0,0.0,0.0,0.0,0.0,-0.0302,-0.1636,-0.2092,0.0,0.0,0.0,0.0,0.0,0.0,0.0,0.0,0.0,0.0,0.0,0.0,0.0,0.0,0.0,0.0,0.0,0.0,0.0,0.0,0.0,0.0,0.0,0.0,0.0,0.0,0.0,-0.7921,-0.7818,-0.7811,-0.7743,-0.76,-0.7597,-0.7597,-0.7597,-0.7597,-0.7597,-0.7597,-0.7597,-0.7519,-0.7422,-0.7529,-0.7431,-0.7095,-0.7095,-0.7092,-0.7082,-0.694,-0.6746,-0.6515,-0.6511,-0.6511,-0.6494,-0.6351,-0.6388,-0.6491,0.0,0.0,0.0,0.0,0.0,0.0,0.0,0.0,0.0,0.0,0.0,0.0,0.0,0.0,0.0,0.0,0.0,0.0,0.0,0.0,0.0,0.0,0.0,0.0,0.0,0.0,-0.2808,-0.3792,-0.3836,-0.3785,0.0,0.0,0.0,-0.1784,0.0,0.0,0.0,-0.0269,-0.0112,0.0291,0.046,0.089,0.1514,0.0,0.0,0.0,0.0,0.0,0.0,0.0,0.0,0.0,0.0,0.0,0.0,0.0631,0.0334,-0.0209,-0.1124,0.0,0.0,0.0,0.0,0.0,0.0,0.0,0.0,0.0,0.0,0.0,0.0,0.0,0.0,0.0,0.0,0.0,0.0,0.0,0.0,0.0,0.0,0.0,0.0,0.0,0.0,0.0,0.0,-0.7709,-0.7665,-0.7662,-0.7594,-0.7444,-0.7441,-0.7387,-0.7233,-0.7383,-0.7383,-0.7233,-0.7495,-0.7519,-0.7419,-0.7417,-0.7275,-0.695,-0.695,-0.6886,-0.682,-0.6668,-0.6617,-0.6614,-0.6446,-0.6364,-0.6358,-0.6317,-0.6327,-0.6358,0.0,0.0,0.0,0.0,0.0,0.0,0.0,0.0,0.0,0.0,0.0,0.0,0.0,0.0,0.0,0.0,0.0,0.0,0.0,0.0,0.0,0.0,0.0,0.0,0.0,-0.1684,-0.2147,0.0,0.0,0.0,0.0,0.0,0.0,-0.1783,0.0,-0.0566,0.0,-0.0654,-0.0693,-0.038,-0.0618,-0.0205,0.0645,0.0,0.0,0.0,0.0,0.0,0.0,0.0,0.0,0.0,0.0,0.0,0.0,0.0964,0.0636,0.015,-0.076,0.0,0.0,0.0,0.0,0.0,0.0,0.0,0.0,0.0,0.0,0.0,0.0,0.0,0.0,0.0,0.0,0.0,0.0,0.0,0.0,0.0,0.0,0.0,0.0,0.0,0.0,0.0,-0.7648,-0.7573,-0.7512,-0.7509,-0.7414,-0.72,-0.7197,-0.7122,-0.6923,-0.7058,-0.7058,-0.6923,-0.7153,-0.7193,-0.7109,-0.7334,-0.721,-0.6883,-0.6865,-0.6753,-0.6603,-0.6552,-0.6532,-0.6508,-0.6368,-0.63,-0.63,-0.63,-0.63,-0.63,0.0,0.0,0.0,0.0,0.0,0.0,0.0,0.0,0.0,0.0,0.0,0.0,0.0,0.0,0.0,0.0,0.0,0.0,0.0,0.0,0.0,0.0,0.0,0.0,0.0,0.0,0.0,0.0,0.0,0.0,0.0,0.0,-0.2252,-0.1696,0.0,-0.0503,0.0,-0.0706,-0.0984,-0.1029,-0.1569,-0.114,-0.0089,0.0691,0.0,0.0,0.0,0.0,0.0,0.0,0.0,0.0,0.0,0.0,0.1762,0.1163,0.0942,0.0659,0.0,0.0,0.0,0.0,0.0,0.0,0.0,0.0,0.0,0.0,0.0,0.0,0.0,0.0,0.0,0.0,0.0,0.0,0.0,0.0,0.0,0.0,0.0,0.0,0.0,0.0,0.0,-0.7556,-0.7533,-0.7458,-0.7364,-0.7354,-0.7187,-0.6873,-0.6866,-0.6841,-0.6702,-0.6702,-0.6702,-0.6702,-0.6702,-0.6702,-0.6715,-0.7126,-0.7156,-0.6836,-0.6725,-0.6586,-0.6511,-0.6497,-0.6422,-0.6317,-0.6306,-0.63,-0.63,-0.63,-0.63,-0.63,0.0,0.0,0.0,0.0,0.0,0.0,0.0,0.0,0.0,0.0,0.0,0.0,0.0,0.0,0.0,0.0,0.0,0.0,0.0,0.0,0.0,0.0,0.0,0.0,0.0,0.0,0.0,0.0,0.0,0.0,0.0,0.0,0.0,-0.1065,0.0,-0.0113,-0.0068,-0.1145,-0.1607,-0.1612,-0.1758,-0.1653,-0.1185,0.083,0.1765,0.0,0.0,0.0,0.0,0.0,0.0,0.0,0.3398,0.299,0.2384,0.1784,0.1281,0.0,0.0,0.0,0.0,0.0,0.0,0.0,0.0,0.0,0.0,0.0,0.0,0.0,0.0,0.0,0.0,0.0,0.0,0.0,0.0,0.0,0.0,0.0,0.0,0.0,0.0,0.0,0.0,-0.7193,-0.7024,-0.6881,-0.6848,-0.6844,-0.6814,-0.6753,-0.6749,-0.6732,-0.6702,-0.6702,-0.6702,-0.6702,-0.6702,-0.6702,-0.6705,-0.68,-0.6746,-0.6563,-0.6457,-0.6439,-0.6504,-0.6392,-0.6395,-0.6457,-0.6344,-0.63,-0.63,-0.63,-0.63,-0.63,0.0,0.0,0.0,0.0,0.0,0.0,0.0,0.0,0.0,0.0,0.0,0.0,0.0,0.0,0.0,0.0,0.0,0.0,0.0,0.0,0.0,0.0,0.0,0.0,0.0,0.0,0.0,0.0,0.0,0.0,0.0,0.0,0.0,-0.0878,0.0,0.0,-0.0071,-0.0976,-0.1366,-0.1387,-0.1691,-0.1455,-0.0759,0.0774,0.1724,0.2342,0.3262,0.0,0.0,0.0,0.0,0.0,0.0,0.0,0.3086,0.242,0.1793,0.1194,0.0,0.0,0.0,0.0,0.0,0.0,0.0,0.0,0.0,0.0,0.0,0.0,0.0,0.0,0.0,0.0,0.0,0.0,0.0,0.0,0.0,0.0,0.0,0.0,0.0,0.0,0.0,-0.6929,-0.6787,-0.6702,-0.6702,-0.6702,-0.6668,-0.6593,-0.659,-0.6559,-0.6491,-0.6488,-0.6488,-0.6488,-0.6488,-0.6244,-0.5758,-0.5822,-0.5525,-0.505,-0.537,-0.559,-0.5683,-0.6132,-0.6025,-0.5641,-0.5575,-0.5237,-0.4844,-0.5354,-0.555,-0.555,0.0,0.0,0.0,0.0,0.0,0.0,0.0,0.0,0.0,0.0,0.0,0.0,0.0,0.0,0.0,0.0,0.0,0.0,0.0,0.0,0.0,0.0,0.0,0.0,0.0,0.0,0.0,0.0,0.0,0.0,0.0,0.0,0.0,-0.0712,0.0,0.0,-0.005,-0.0652,-0.0907,-0.094,-0.1451,-0.098,0.0067,0.0777,0.1762,0.2814,0.3411,0.3638,0.3638,0.3638,0.0,0.0,0.0,0.0,0.3635,0.2904,0.2352,0.1811,0.0,0.0,0.0,0.0,0.0,0.0,0.0,0.0,0.0,0.0,0.0,0.0,0.0,0.0,0.0,0.0,0.0,0.0,0.0,0.0,0.0,0.0,0.0,0.0,0.0,0.0,-0.6634,-0.6661,-0.659,-0.6556,-0.6583,-0.6559,-0.6488,-0.6399,-0.6395,-0.6337,-0.6221,-0.6221,-0.6155,-0.5986,-0.5815,-0.5187,-0.4158,-0.43,-0.3985,-0.3376,-0.4097,-0.4414,-0.4491,-0.5589,-0.5392,-0.4453,-0.4647,-0.4059,-0.3202,-0.41,-0.4414,-0.4414,0.0,0.0,0.0,0.0,0.0,0.0,0.0,0.0,0.0,0.0,0.0,0.0,0.0,0.0,0.0,0.0,0.0,0.0,0.4634,0.0,0.0,0.2712,0.2246,0.0,0.0,0.0,0.0,0.0,0.0,0.0,0.0,0.0,0.0,-0.0127,0.0,0.0,0.0,-0.0645,-0.0907,-0.0918,-0.0984,-0.0603,0.0133,0.1247,0.2189,0.2962,0.3552,0.3765,0.3765,0.3765,0.3716,0.0,0.0,0.0,0.3513,0.2879,0.264,0.0,0.0,0.0,0.0,0.0,0.0,0.0,0.0,0.0,0.0,0.0,0.0,0.0,0.0,0.0,0.0,0.0,0.0,0.0,0.0,0.0,0.0,0.0,0.0,0.0,0.0,0.0,-0.6409,-0.6532,-0.6142,-0.5979,-0.6074,-0.5993,-0.5911,-0.5891,-0.5891,-0.5881,-0.5864,-0.5864,-0.5482,-0.4728,-0.3902,-0.3014,-0.2012,-0.2024,-0.2437,-0.3139,-0.3244,-0.3318,-0.3396,-0.4491,-0.4295,-0.3396,-0.4334,-0.4059,-0.3124,-0.3279,-0.3318,-0.3318,0.0,0.0,0.0,0.0,0.0,0.0,0.0,0.0,0.0,0.0,0.0,0.0,0.0,0.0,0.0,0.5246,0.5507,0.5453,0.5023,0.4392,0.3952,0.3774,0.3006,0.2218,0.1454,0.0,0.0,0.0,0.0,0.0,0.0,0.0,-0.021,0.0,0.0,0.0,0.0,0.0,0.0,-0.0973,-0.0557,-0.0045,0.0,0.0,0.1714,0.2308,0.259,0.2907,0.3183,0.3183,0.348,0.3799,0.3655,0.0,0.0,0.0,0.0,0.0,0.0,0.0,0.0,0.0,0.0,0.0,0.0,0.0,0.0,0.0,0.0,0.0,0.0,0.0,0.0,0.0,0.0,0.0,0.0,0.0,0.0,0.0,0.0,0.0,0.0,0.0,-0.4523,-0.4609,-0.4399,-0.4302,-0.4389,-0.4815,-0.5072,-0.5072,-0.5545,-0.58,-0.58,-0.5326,-0.4628,-0.3689,-0.2725,-0.2017,-0.1591,-0.0973,-0.0955,-0.1408,-0.2005,-0.2261,-0.2335,-0.3396,-0.3178,-0.2299,-0.2797,-0.2318,-0.1448,-0.2034,-0.2268,-0.2268,0.0,0.0,0.0,0.0,0.0,0.0,0.0,0.0,0.0,0.0,0.0,0.0,0.0,0.0,0.0,0.0,0.5343,0.5512,0.5416,0.5156,0.4961,0.4828,0.3917,0.3077,0.2352,0.0,0.0,0.0,0.0,0.0,0.0,0.0,-0.0403,0.0,-0.109,0.0,0.0,0.0,0.0,0.0,0.0,0.0,0.0,0.0,0.0,0.0,0.1846,0.2134,0.254,0.2728,0.3186,0.3678,0.3654,0.3851,0.0,0.0,0.0,0.0,0.0,0.0,0.0,0.0,0.0,0.0,0.0,0.0,0.0,0.0,0.0,0.0,0.0,0.0,0.0,0.0,0.0,0.0,0.0,0.0,0.0,0.0,0.0,0.0,0.0,0.0,0.0,-0.3085,-0.3049,-0.2999,-0.3056,-0.3675,-0.4048,-0.4048,-0.4689,-0.5012,-0.5012,-0.4146,-0.3327,-0.2635,-0.1661,-0.1196,-0.1153,-0.0363,0.0,-0.0038,-0.083,-0.1198,-0.1271,-0.2287,-0.2115,-0.1209,-0.1511,-0.0956,-0.0078,-0.0887,-0.1198,-0.1204,0.0,0.0,0.0,0.0,0.0,0.0,0.0,0.0,0.0,0.0,0.0,0.0,0.0,0.2238,0.3143,0.3988,0.4441,0.4946,0.5637,0.5952,0.5922,0.5473,0.5038,0.0,0.3249,0.0,0.0,0.0,0.0,0.0,0.0,0.0,-0.0394,-0.109,-0.109,-0.1506,-0.2193,0.0,0.0,0.0,0.0,0.0,0.0,0.0,0.0,0.0,0.0,0.0,0.214,0.284,0.2932,0.2897,0.0,0.0,0.0,0.0,0.0,0.0,0.0,0.0,0.0,0.0,0.0,0.0,0.0,0.0,0.0,0.0,0.0,0.0,0.0,0.0,0.0,0.0,0.0,0.0,0.0,0.0,0.0,0.0,0.0,0.0,0.0,0.0,0.0,-0.3081,-0.2875,-0.279,-0.2898,-0.2831,-0.2788,-0.2788,-0.2824,-0.2857,-0.2857,-0.1933,-0.1451,-0.1381,-0.0498,-0.0072,-0.007,-0.0036,0.0,0.0,-0.0073,-0.0073,-0.0183,-0.1233,-0.1057,-0.0189,-0.1209,-0.0946,0.0,-0.0074,-0.0074,-0.0076,0.0,0.0,0.0,0.0,0.0,0.0,0.0,0.0,0.0,0.0,0.0,0.0,0.0,0.1422,0.2265,0.3445,0.4393,0.5233,0.5979,0.6135,0.6115,0.5949,0.5611,0.4883,0.3767,0.3187,0.0,0.0,0.0,0.1189,0.1283,0.0811,0.0227,-0.0431,-0.1297,-0.2095,-0.2777,-0.263,0.0,0.0,0.0,0.0,0.0,0.0,0.0,0.0,0.0,0.0,0.0,0.0,0.0,0.0,0.0,0.0,0.0,0.0,0.0,0.0,0.0,0.0,0.0,0.0,0.0,0.0,0.0,0.0,0.0,0.0,0.0,0.0,0.0,0.0,0.0,0.0,0.0,0.0,0.0,0.0,0.0,0.0,0.0,0.0,0.0,0.0,0.0,-0.1112,-0.1026,-0.0985,-0.1029,-0.1516,-0.181,-0.181,-0.238,-0.2411,-0.181,-0.1476,-0.1005,-0.0458,-0.0134,0.0,0.0,0.0,0.0,0.0,0.0,0.0,-0.0036,-0.0423,-0.0355,-0.0036,-0.044,-0.0332,0.0,0.0,0.0,0.0,0.0,0.0,0.0,0.0,0.0,0.0,0.0,0.0,0.0,0.0,0.0,0.0,0.0,0.0,0.149,0.3033,0.4357,0.5363,0.5984,0.6316,0.6466,0.6466,0.6094,0.5524,0.476,0.3921,0.0,0.0,0.0,0.0,0.0,0.0,0.0884,0.026,-0.0848,-0.1983,0.0,0.0,0.0,-0.3134,0.0,0.0,-0.1614,0.0,0.0,0.0,0.0,0.0,0.0,0.0,0.0,0.0,0.0,0.0,0.0,0.0,0.0,0.0,0.0,0.0,0.0,0.0,0.0,0.0,0.0,0.0,0.0,0.0,0.0,0.0,0.0,0.0,0.0,0.0,0.0,0.0,0.0,0.0,0.0,0.0,0.0,0.0,0.0,0.0,0.0,0.0,0.0,0.0,0.0,-0.0561,-0.0862,-0.0862,-0.1477,-0.1508,-0.0862,-0.0862,-0.0563,0.0,0.0,0.0,0.0,0.0,0.0,0.0,0.0,0.0,0.0,0.0,0.0,0.0,0.0,0.0,0.0,0.0,0.0,0.0,0.0,0.0,0.0,0.0,0.0,0.0,0.0,0.0,0.0,0.0,0.0,0.0,0.0,0.0,0.0,0.2745,0.4235,0.5257,0.5682,0.6516,0.7,0.7,0.6498,0.6221,0.6206,0.4483,0.0,0.0,0.0,0.0,0.0,0.0,0.1502,0.0,0.029,-0.1136,-0.3073,0.0,-0.3785,-0.3748,0.0,-0.2601,-0.1786,0.0,0.0,0.0,0.0,0.0,0.0,0.0833,0.0,0.0,0.0,0.0,0.0,0.0,0.0,0.0,0.0,0.0,0.0,0.0,0.0,0.0,0.0,0.0,0.0,0.0,0.0,0.0,0.0,0.0,0.0,0.0,0.0,0.0,0.0,0.0,0.0,0.0,0.0,0.0,0.0,0.0,0.0,0.0,0.0,0.0,0.0,0.0,0.0,0.0,0.0,0.0,0.0,0.0,0.0,0.0,0.0,0.0,0.0,0.0,0.0,0.0,0.0,0.0,0.0,0.0,0.0,0.0,0.0,0.0,0.0,0.0,0.0,0.0,0.0,0.0,0.0,0.0,0.0,0.0,0.0,0.0,0.0,0.0,0.0,0.0,0.0,0.0,0.1224,0.3038,0.3959,0.4897,0.5998,0.6645,0.7,0.7,0.6852,0.6605,0.6206,0.5717,0.0,0.0,0.0,0.0,0.0,0.0,0.0,0.0,0.0613,-0.0482,-0.157,-0.2574,0.0,0.0,-0.3525,-0.2989,0.0,0.0,0.0,0.0,0.0,0.0,0.0023,0.0,0.0561,0.1183,0.0,0.0,0.0,0.0,0.0,0.0,0.5588,0.0,0.0,0.0,0.0,0.0,0.0,0.0,0.0,0.0,0.0,0.0,0.0,0.0,0.0,0.0,0.0,0.0,0.0,0.0,0.0,0.0,0.0,0.0,0.0,0.0,0.0,0.0,0.0,0.0,0.0,0.0,0.0,0.0,0.0,0.0,0.0,0.0,0.0,0.0,0.0,0.0,0.0,0.0,0.0,0.0,0.0,0.0,0.0,0.0,0.0,0.0,0.0,0.0,0.0,0.0,0.0,0.0,0.0,0.0,0.0,0.0,0.0,0.0,0.0,0.0,0.0,0.0,0.0,0.0,0.0,0.0,0.0,0.2515,0.3658,0.4721,0.5755,0.6556,0.7,0.7,0.7,0.6852,0.6541,0.6307,0.0,0.0,0.0,0.0,0.0,0.0,0.0,0.0,0.0,0.0,0.0,0.0,0.0,0.0,-0.3184,0.0,0.0,-0.159,-0.0948,0.0,0.0,0.0,0.0,0.0,0.0412,0.0,0.0,0.0,0.0,0.0,0.0,0.0,0.0,0.0,0.0,0.0,0.0,0.0,0.3552,0.2691,0.1842,0.0,0.0,0.0,0.0,0.0,0.0,0.0,0.0,0.0,0.0,0.0,0.0,0.0,0.0,0.0,0.0,0.0,0.0,0.0,0.0,0.0,0.0,0.0,0.0,0.0,0.0,0.0,0.0,0.0,0.0,0.0,0.0,0.0,0.0,0.0,0.0,0.0,0.0,0.0,0.0,0.0,0.0,0.0,0.0,0.0,0.0,0.0,0.0,0.0,0.0,0.0,0.0,0.0,0.0,0.0,0.0,0.0,0.0,0.0,0.0,0.0,0.0,0.0,0.0,0.0,0.3274,0.4531,0.5295,0.6358,0.0,0.71,0.7066,0.7089,0.7131,0.6575,0.0,0.0,0.0,0.0,0.0,0.0,0.0,0.0,0.0,0.0,0.0,0.0,0.0,-0.27,-0.2589,-0.2277,0.0,0.0,-0.0439,0.0,0.0,0.0,0.0,0.0,0.0402,0.0,0.0,0.0,0.0,0.0,0.4583,0.0,0.0,0.0,0.0,0.0,0.0,0.0,0.373,0.3033,0.2329,0.1659,0.0,0.0,0.0,0.0,0.0,0.0,0.0,0.0,0.0,0.0,0.0,0.0,0.0,0.0,0.0,0.0,0.0,0.0,0.0,0.0,0.0,0.0,0.0,0.0,0.0,0.0,0.0,0.0,0.0,0.0,0.0,0.0,0.0,0.0,0.0,0.0,0.0,0.0,0.0,0.0,0.0,0.0,0.0,0.0,0.0,0.0,0.0,0.0,0.0185,0.0,0.0,0.0,0.0,0.0,0.0,0.0,0.0,0.0,0.0,0.0,0.0,0.0,0.0,0.0,0.0,0.3766,0.551,0.0,0.0,0.7696,0.7515,0.7602,0.8041,0.7255,0.0,0.0,0.0,0.0,0.0,0.0,0.0,0.0,0.0,0.0,0.0,0.0,0.0,-0.1537,-0.2453,0.0,-0.1116,-0.1055,-0.0602,0.0,0.0,0.0,0.0,0.0,0.0395,0.0919,0.0,0.0,0.0,0.0,0.0,0.0,0.0,0.0,0.0,0.0,0.0,0.0,0.4308,0.3707,0.3149,0.0,0.0,0.0,0.0,0.0,0.0,0.0,0.0,0.0,0.0,0.0,0.0,0.0,0.0,0.0,0.0,0.0,0.0,0.0,0.0,0.0,0.0,0.0,0.0,0.0,0.0,0.0,0.0,0.0,0.0,0.0,0.0,0.0,0.0,0.0,0.0,0.0,0.0,0.0,0.0,0.0,0.0,0.0,0.0,0.0,0.0,0.0,0.0,0.0,0.0577,0.0,0.0,0.0,0.0,0.0,0.0,0.0,0.0,0.0,0.0,0.0,0.0,0.0,0.0,0.0,0.0,0.0,0.0,0.0,0.0,0.0,0.7582,0.7895,0.829,0.0,0.0,0.0,0.0,0.0,0.0,0.0,0.0,0.0,0.0,0.0,0.0,0.0,-0.0771,-0.064,-0.1532,0.0,-0.0973,-0.0656,-0.0332,0.0,0.0,0.0,0.0,0.0,0.0193,0.0,0.0,0.1316,0.1912,0.0,0.292,0.3214,0.0,0.0,0.0,0.4108,0.0,0.0,0.0,0.381,0.3488,0.0,0.0,0.0,0.0,0.0,0.0,0.0,0.0,0.0,0.0,0.0,0.0,0.0,0.0,0.0,0.0475,0.0726,0.0771,0.0465,0.0158,0.0,0.0,0.0,0.0,0.0,0.0,0.0,0.0,0.0,0.0,0.0,0.0,0.0,0.0,0.0,0.0198,0.0546,0.0555,0.0539,0.0555,0.0564,0.0324,0.0034,0.0464,0.0664,0.0706,0.1175,0.1041,0.0638,0.1219,0.0,0.0,0.0,0.0,0.0,0.0,0.0,0.0,0.0,0.0,0.0,0.0,0.0,0.0,0.0,0.0,0.0,0.0,0.0,0.0,0.0,0.0,0.7842,0.8223,0.8298,0.0,0.0,0.0,0.0,0.0,0.0,0.0,0.0,0.0,0.0,0.0,0.0,0.0,-0.0047,0.0,-0.0795,-0.082,-0.0217,0.0,0.0,0.0,0.0,0.0,0.0,0.0,0.0103,0.0708,0.1225,0.0,0.0,0.0,0.0,0.0,0.0,0.0,0.0,0.0,0.3516,0.0,0.0,0.0,0.0,0.0,0.0,0.0,0.0,0.0,0.0,0.0,0.0,0.0,0.0,0.0,0.0,0.0,0.0,0.1057,0.1467,0.1569,0.1106,0.0525,0.0176,0.0174,0.0052,0.0,0.0,0.0,0.0,0.0,0.0,0.0,0.0,0.0,0.0,0.0,0.0142,0.054,0.1106,0.125,0.1303,0.1313,0.1307,0.0868,0.03,0.1014,0.1315,0.1407,0.2342,0.2209,0.1574,0.2062,0.0,0.0,0.0,0.0,0.0,0.0,0.0,0.0,0.0,0.0,0.0,0.0,0.0,0.0,0.0,0.0,0.0,0.4139,0.0,0.0,0.0,0.0,0.0,0.7933,0.8289,0.0,0.0,0.0,0.0,0.0,0.0,0.0,0.0,0.265,0.0,0.0,0.0,-0.0071,0.0,-0.007,-0.012,0.0,-0.0023,0.0,0.0,0.0,0.0,0.0,0.0,0.0,0.01,0.0,0.0955,0.1228,0.0,0.0,0.0,0.0,0.0,0.0,0.0,0.3775,0.0,0.0,0.0,0.0,0.3604,0.0,0.0,0.0,0.0,0.0,0.0,0.0,0.0,0.0,0.0,0.0,0.0,0.0,0.0,0.1516,0.158,0.1644,0.1697,0.1139,0.0795,0.0792,0.0299,0.0,0.0,0.0,0.0,0.0,0.0,0.0,0.0,0.0,0.0,0.0028,0.0672,0.1008,0.1124,0.1796,0.2087,0.2088,0.2064,0.1647,0.1006,0.1225,0.1303,0.1407,0.2342,0.2644,0.2544,0.2958,0.0,0.0,0.0,0.0,0.0,0.0,0.0,0.0,0.0,0.0,0.0,0.0,0.0,0.0,0.0,0.0,0.1589,0.0,0.0,0.0,0.0,0.0,0.0,0.0,0.8568,0.8794,0.0,0.9476,0.0,0.0,0.0,0.0,0.0,0.3032,0.0,0.0439,0.0,0.0,0.0,0.0,0.0,0.0,0.0532,0.0521,0.0475,0.0119,0.0,0.0034,0.0,0.0457,0.0,0.0,0.0,0.0,0.0,0.0,0.0,0.0,0.0,0.0,0.0,0.0,0.0,0.369,0.0,0.4011,0.0,0.0,0.0,0.0,0.0,0.0,0.0,0.5312,0.0,0.0,0.0,0.0,0.0,0.0,0.0,0.2566,0.2298,0.2152,0.2195,0.139,0.0889,0.0897,0.0335,0.0,0.0,0.0,0.0,0.0,0.0,0.0,0.0,0.0444,0.0643,0.0671,0.1396,0.1981,0.2397,0.2702,0.2869,0.2897,0.2885,0.2437,0.1788,0.2411,0.2406,0.2277,0.3747,0.3915,0.3447,0.0,0.0,0.0,0.0,0.0,0.0,0.0,0.0,0.0,0.0,0.0,0.0,-0.0855,-0.0793,0.0,0.0,0.0804,0.1114,0.0,0.0,0.3525,0.0,0.0,0.0,0.0,0.0,0.0,0.0,0.0,0.0,0.0,0.0,0.0,0.0,0.0,0.1583,0.0,0.0,0.0,0.0047,0.0465,0.0863,0.114,0.1098,0.1102,0.1035,0.054,0.0363,0.0403,0.0752,0.0966,0.0,0.1513,0.0,0.0,0.0,0.0,0.0,0.3604,0.0,0.0,0.0,0.0,0.0,0.0,0.0,0.0,0.0,0.0,0.0,0.0,0.0,0.0,0.0,0.0,0.0,0.0,0.0,0.0,0.0,0.0,0.0,0.0,0.344,0.3167,0.304,0.2144,0.1472,0.1163,0.0577,0.0164,0.0,0.0,0.0,0.0,0.0,0.0,0.0,0.0746,0.109,0.1146,0.2091,0.2815,0.3345,0.3539,0.3646,0.3699,0.3699,0.324,0.2607,0.3547,0.3506,0.314,0.4682,0.4891,0.4381,0.0,0.3854,0.0,0.0,0.0,0.0,0.0,0.0,0.0,0.0,0.0,0.0,0.0,0.0,0.0,0.0,0.0,0.0341,0.1083,0.0,0.1337,0.0,0.0,0.4373,0.0,0.0,0.0,0.0,0.0,0.0,0.0,0.0,0.0,0.0,0.0,0.0779,0.0,0.0,0.0,0.0,0.0024,0.0722,0.1746,0.0,0.1588,0.1556,0.1335,0.0,0.0,0.1281,0.1408,0.0,0.0,0.0,0.0,0.0,0.0,0.0,0.0,0.0,0.0,0.3607,0.0,0.0,0.0,0.0,0.4557,0.0,0.0,0.0,0.0,0.0,0.0,0.0,0.0,0.0,0.0,0.0,0.0,0.0,0.0,0.0,0.0,0.503,0.4828,0.4366,0.3763,0.2929,0.1828,0.1208,0.0606,0.0023,0.0,0.0,0.0,0.0,0.0,0.0,0.0755,0.109,0.1146,0.2676,0.3372,0.3428,0.4153,0.4463,0.4467,0.4467,0.3987,0.3372,0.4284,0.4222,0.3694,0.4592,0.5114,0.5338,0.0,0.0,0.0,0.0,0.0,0.0,0.0,0.0315,0.0,0.0,0.0,0.0,0.0,0.0,0.0,0.0,0.0,0.01,0.0353,0.0797,0.0,0.0,0.0,0.3904,0.0,0.0,0.0,0.0,0.0,0.0,0.0,0.0,0.0,0.0,0.0,0.1095,0.0,0.0,0.0,0.0,0.0,0.1381,0.2523,0.0,0.2325,0.2262,0.169,0.1498,0.0,0.1801,0.1942,0.2176,0.3183,0.3578,0.3732,0.3929,0.435,0.4639,0.0,0.0,0.4639,0.4224,0.0,0.0,0.0,0.0,0.0,0.0,0.0,0.0,0.0,0.0,0.0,0.0,0.0,0.0,0.0,0.0,0.0,0.0,0.0,0.0,0.0,0.0,0.0,0.4884,0.4066,0.3385,0.2951,0.1627,0.0806,0.0605,0.021,0.0,0.0,0.0,0.0241,0.073,0.1464,0.212,0.2649,0.3677,0.4125,0.4153,0.4405,0.4491,0.4491,0.4491,0.4351,0.4138,0.4454,0.4458,0.437,0.4862,0.5064,0.5074,0.5297,0.0,0.0,0.0,0.0,0.0,0.0,0.0,0.0,0.0,0.0,0.0,0.0,0.0,0.0,0.0,0.0,0.0,0.0,0.0448,0.0,0.1013,0.2245,0.0,0.0,0.0,0.0,0.0,0.0,0.7539,0.0,0.0,0.0,0.0,0.0,0.0,0.0,0.0,0.0,0.0,0.0,0.1407,0.0,0.0,0.283,0.2935,0.0,0.2055,0.21,0.2308,0.2513,0.2845,0.3732,0.4213,0.4423,0.4307,0.4597,0.4848,0.4264,0.4395,0.0,0.4202,0.4548,0.0,0.4761,0.0,0.0,0.0,0.0,0.0,0.0,0.0,0.0,0.0,0.0,0.0,0.0,0.7861,0.0,0.0,0.0,0.0,0.0,0.0,0.613,0.5568,0.4716,0.4001,0.0,0.2047,0.1118,0.0918,0.0322,0.0,0.0,0.0,0.0368,0.1115,0.184,0.2619,0.34,0.4153,0.4491,0.4491,0.4491,0.4491,0.4491,0.4491,0.4491,0.4491,0.4491,0.4549,0.4662,0.4823,0.4904,0.4911,0.0,0.0,0.0,0.0,0.3773,0.0,0.0,0.0,0.0862,0.0,0.0028,0.0,0.0,0.0,0.0,0.0,0.0,0.0,0.0,0.0024,0.0,0.0,0.1626,0.2634,0.3908,0.0,0.0,0.0,0.0,0.0,0.0,0.0,0.0,0.0,0.2334,0.0,0.0948,0.0317,0.0024,0.0045,0.0627,0.0874,0.1032,0.2186,0.3015,0.3509,0.3064,0.2902,0.2896,0.2768,0.3094,0.3618,0.3923,0.4395,0.48,0.4483,0.4426,0.4317,0.3792,0.3663,0.3678,0.3641,0.4045,0.0,0.0,0.0,0.6331,0.0,0.0,0.0,0.0,0.0,0.0,0.0,0.0,0.0,0.0,0.0,0.0,0.0,0.0,0.0,0.0,0.7737,0.7494,0.6461,0.5732,0.0,0.0,0.249,0.1563,0.0962,0.0337,0.0,0.0,0.0,0.0386,0.1168,0.1866,0.2619,0.3398,0.4153,0.4491,0.4491,0.4491,0.4491,0.4491,0.4491,0.4491,0.4491,0.4491,0.4491,0.4491,0.4491,0.466,0.4918,0.5865,0.5042,0.4341,0.0,0.3823,0.3199,0.0,0.0,0.0,0.0,0.0336,0.0,0.0,0.0,0.0,0.0,0.0,0.0,0.0,0.0,0.0,0.089,0.2037,0.2837,0.3172,0.458,0.0,0.6688,0.0,0.0,0.6901,0.0,0.0,0.0,0.0,0.0,0.2162,0.1105,0.0399,0.0022,0.018,0.0548,0.1075,0.0,0.2071,0.3081,0.3066,0.3047,0.304,0.3,0.2975,0.3097,0.4004,0.4261,0.4253,0.4359,0.4652,0.4821,0.4336,0.4444,0.4638,0.4275,0.4563,0.4867,0.0,0.0,0.0,0.0,0.0,0.0,0.0,0.0,0.0,0.0,0.0,0.0,0.0,0.0,0.0,0.8395,0.0,0.0,0.7593,0.807,0.8161,0.7542,0.6506,0.0,0.0,0.0,0.22,0.1585,0.0538,0.0,0.0,0.0,0.0642,0.1908,0.2112,0.2899,0.4211,0.4405,0.4491,0.4491,0.4491,0.4491,0.4491,0.4491,0.4491,0.4491,0.4491,0.4491,0.4491,0.4491,0.4721,0.5036,0.6003,0.0,0.0,0.4491,0.0,0.0,0.3463,0.2649,0.0,0.1174,0.1006,0.0,0.0504,0.0755,0.0838,0.0504,0.0482,0.0,0.0388,0.0,0.0,0.1653,0.2401,0.2931,0.3193,0.4163,0.0,0.6307,0.0,0.0,0.7068,0.0,0.0,0.0,0.0,0.2891,0.0,0.1513,0.0611,0.0,0.0,0.0251,0.0,0.1129,0.1766,0.2488,0.3,0.3158,0.3101,0.3101,0.3096,0.3243,0.4053,0.4357,0.4402,0.4388,0.4557,0.4591,0.4054,0.4074,0.4158,0.3901,0.4279,0.4637,0.4379,0.4989,0.5679,0.0,0.6258,0.6577,0.0,0.0,0.0,0.0,0.0,0.0,0.0,0.0,0.0,0.0,0.865,0.0,0.7997,0.8255,0.8272,0.7762,0.696,0.0,0.0,0.0,0.2796,0.2206,0.1343,0.0853,0.0788,0.0897,0.1524,0.259,0.2697,0.3345,0.4491,0.4491,0.4491,0.4491,0.4491,0.4491,0.4491,0.4491,0.4491,0.4491,0.4491,0.4491,0.4498,0.4566,0.4765,0.4995,0.0,0.0,0.0,0.0,0.0,0.0,0.0,0.3441,0.0,0.1564,0.0,0.1952,0.1312,0.1813,0.1921,0.1277,0.0,0.1187,0.1056,0.1109,0.1634,0.2673,0.2781,0.3056,0.3578,0.3744,0.0,0.0,0.0,0.0,0.0,0.0,0.0,0.0,0.0,0.0,0.0,0.1815,0.0859,0.0143,0.0114,0.0112,0.0224,0.1274,0.1784,0.2043,0.2907,0.3178,0.3131,0.3131,0.3313,0.3606,0.3991,0.4391,0.4656,0.4384,0.4202,0.3963,0.3451,0.3212,0.3131,0.3131,0.363,0.4094,0.4119,0.4667,0.5165,0.5168,0.5653,0.5916,0.5394,0.0,0.0,0.0,0.0,0.0,0.0,0.0,0.0,0.0,0.0,0.0,0.8451,0.8392,0.8184,0.7709,0.0,0.0,0.0,0.0,0.3362,0.2761,0.2234,0.1927,0.1823,0.2052,0.2493,0.3142,0.3326,0.379,0.4491,0.4491,0.4491,0.4491,0.4491,0.4491,0.4491,0.4491,0.4491,0.4491,0.4491,0.4543,0.4646,0.4826,0.4951,0.5043,0.0,0.0,0.0,0.0,0.0,0.4611,0.4345,0.388,0.3423,0.3049,0.2536,0.2147,0.2009,0.212,0.2098,0.1853,0.193,0.0,0.0,0.0,0.0,0.2848,0.3242,0.349,0.3604,0.3744,0.4593,0.0,0.0,0.0,0.0,0.0,0.0,0.0,0.0,0.0,0.3061,0.2613,0.0,0.0902,0.0797,0.0739,0.0761,0.0984,0.1674,0.2561,0.2739,0.3004,0.3266,0.3266,0.3228,0.325,0.3591,0.3687,0.367,0.3727,0.3595,0.343,0.3327,0.3289,0.3269,0.3331,0.3454,0.3569,0.3684,0.4053,0.4424,0.4535,0.5043,0.5437,0.5329,0.0,0.0,0.0,0.0,0.0,0.0,0.0,0.0,0.0,0.0,0.7934,0.0,0.8687,0.0,0.0,0.0,0.0,0.0,0.0,0.387,0.0,0.2247,0.1874,0.0,0.0,0.249,0.336,0.3392,0.379,0.4491,0.4491,0.4491,0.4491,0.4491,0.4491,0.4491,0.4491,0.4491,0.4491,0.4491,0.4842,0.5364,0.5785,0.5869,0.5745,0.0,0.0,0.0,0.0,0.0,0.0,0.0,0.4305,0.3995,0.3471,0.34,0.3262,0.2871,0.3178,0.3212,0.2755,0.2772,0.2759,0.2592,0.2844,0.3112,0.3348,0.3586,0.0,0.3604,0.3668,0.4528,0.6207,0.0,0.0,0.0,0.0,0.0,0.0,0.0,0.4051,0.0,0.0,0.0,0.1468,0.1386,0.1362,0.1407,0.1719,0.2184,0.2741,0.3056,0.3284,0.3448,0.3448,0.3347,0.3259,0.3507,0.3552,0.3508,0.358,0.3448,0.3306,0.3306,0.3249,0.3212,0.3232,0.3293,0.3368,0.3421,0.3677,0.3917,0.3971,0.4439,0.4822,0.4822,0.5443,0.0,0.0,0.0,0.0,0.0,0.0,0.0,0.0,0.0,0.0,0.0,0.0,0.0,0.0,0.0,0.0,0.0,0.0,0.453,0.0,0.0,0.0,0.283,0.0,0.3331,0.3712,0.389,0.4153,0.4519,0.4869,0.503,0.503,0.5414,0.5582,0.5555,0.5167,0.4814,0.4491,0.4491,0.4921,0.5548,0.5884,0.6195,0.6416,0.0,0.6458,0.0,0.0,0.4972,0.0,0.4556,0.4641,0.4432,0.3724,0.4125,0.4267,0.3707,0.4153,0.4254,0.3616,0.3603,0.3549,0.3345,0.3334,0.349,0.3869,0.386,0.3788,0.3676,0.3665,0.4418,0.0,0.0,0.0,0.0,0.0,0.0,0.0,0.0,0.0,0.0,0.0,0.2699,0.2033,0.1996,0.1984,0.2051,0.2517,0.2785,0.2943,0.342,0.3604,0.3604,0.3604,0.3497,0.3398,0.3541,0.3604,0.3604,0.3604,0.3493,0.335,0.3316,0.3263,0.3192,0.3158,0.3263,0.3356,0.3356,0.3493,0.3604,0.3604,0.3943,0.423,0.4189,0.4972,0.0,0.0,0.0,0.0,0.0,0.0,0.0,0.0,0.0,0.0,0.7583,0.0,0.0,0.0,0.0,0.0,0.7485,0.0,0.0,0.0,0.0,0.3768,0.3724,0.0,0.4146,0.4117,0.4378,0.457,0.4732,0.5273,0.5597,0.576,0.634,0.6588,0.6561,0.5982,0.5328,0.4708,0.4708,0.514,0.5759,0.5984,0.6568,0.7174,0.0,0.0,0.0,0.0,0.0,0.0,0.467,0.468,0.4636,0.4425,0.446,0.446,0.4405,0.446,0.4409,0.4144,0.4291,0.4304,0.4098,0.4102,0.4115,0.4153,0.4048,0.3967,0.3954,0.3843,0.425,0.0,0.0,0.6178,0.0,0.0,0.0,0.0,0.0,0.0,0.0,0.3941,0.3477,0.2788,0.2675,0.2605,0.263,0.2672,0.3034,0.3534,0.3578,0.3604,0.3604,0.3604,0.3593,0.3583,0.3597,0.3604,0.3604,0.3604,0.359,0.3527,0.3343,0.3421,0.3503,0.3323,0.3421,0.358,0.358,0.359,0.3604,0.3604,0.3644,0.3643,0.3521,0.4512,0.5284,0.0,0.0,0.0,0.0,0.0,0.0,0.0,0.0,0.0,0.0,0.7908,0.0,0.0,0.787,0.0,0.0,0.0,0.0,0.5062,0.4237,0.3917,0.413,0.4065,0.4168,0.445,0.4477,0.4814,0.5406,0.546,0.5869,0.6507,0.6561,0.6588,0.6588,0.6529,0.6064,0.5406,0.5406,0.5846,0.6532,0.6862,0.753,0.8305,0.0,0.0,0.0,0.0,0.0,0.0,0.0,0.4583,0.4559,0.4498,0.4491,0.4491,0.4491,0.4491,0.4467,0.4382,0.4832,0.5054,0.4988,0.4985,0.4942,0.4871,0.4392,0.4089,0.3998,0.3937,0.4344,0.0,0.0,0.0,0.0,0.0,0.0,0.0,0.0,0.4223,0.4075,0.3948,0.3657,0.3316,0.3261,0.3239,0.3239,0.3239,0.3398,0.3604,0.3604,0.3604,0.3604,0.3604,0.3604,0.3604,0.3604,0.3604,0.3604,0.3604,0.3604,0.3587,0.3503,0.3531,0.3587,0.3503,0.3534,0.3604,0.3604,0.3604,0.3604,0.3604,0.3604,0.3552,0.3378,0.4556,0.5449,0.5147,0.0,0.0,0.0,0.0,0.0,0.0,0.0,0.0,0.0,0.0,0.0,0.0,0.0,0.0,0.0,0.0,0.0,0.5353,0.0,0.3894,0.4085,0.4115,0.419,0.4308,0.445,0.4838,0.5515,0.5955,0.6799,0.791,0.791,0.767,0.7262,0.7262,0.6826,0.6145,0.6145,0.661,0.7273,0.74,0.8062,0.8846,0.8459,0.0,0.6656,0.0,0.5341,0.4505,0.4549,0.4681,0.4787,0.4787,0.4787,0.4732,0.4515,0.4491,0.457,0.4787,0.5218,0.5597,0.5814,0.5814,0.5676,0.536,0.4858,0.0,0.4151,0.4082,0.4364,0.4968,0.5202,0.0,0.0,0.0,0.0,0.0,0.4193,0.4095,0.3984,0.3856,0.3733,0.3604,0.3604,0.3604,0.3604,0.3604,0.3604,0.3604,0.3604,0.3604,0.3604,0.3604,0.3711,0.3814,0.3644,0.3604,0.3604,0.3604,0.3604,0.3604,0.3604,0.3604,0.3604,0.3604,0.3604,0.3604,0.3604,0.3604,0.3604,0.3604,0.3604,0.3531,0.3336,0.4396,0.5277,0.5132,0.0,0.0,0.0,0.621,0.0,0.0,0.5824,0.5643,0.6118,0.6793,0.0,0.0,0.0,0.0,0.0,0.0,0.0,0.0,0.0,0.0,0.4058,0.437,0.4451,0.4284,0.444,0.4838,0.5538,0.6497,0.761,0.8804,0.8804,0.8507,0.8023,0.8023,0.7589,0.6912,0.6912,0.7235,0.7708,0.7811,0.8475,0.9281,0.6978,0.7023,0.6829,0.5968,0.5089,0.4542,0.4663,0.5138,0.5483,0.5483,0.5483,0.5246,0.457,0.4491,0.4759,0.5433,0.5487,0.5814,0.6534,0.6588,0.6258,0.0,0.0,0.516,0.4512,0.4291,0.4194,0.4223,0.0,0.0,0.4223,0.0,0.4324,0.4474,0.4151,0.3998,0.3984,0.3856,0.3733,0.3604,0.3604,0.3604,0.3604,0.3604,0.3604,0.3604,0.3604,0.3604,0.3604,0.3604,0.3943,0.4303,0.3774,0.3604,0.3604,0.3604,0.3604,0.3604,0.3604,0.3604,0.3604,0.3604,0.3604,0.3604,0.3604,0.3604,0.3604,0.3604,0.3604,0.3531,0.3336,0.3912,0.4564,0.502,0.0,0.0,0.0,0.0,0.0,0.5998,0.6056,0.6142,0.6278,0.6956,0.0,0.0,0.0,0.0,0.0,0.0,0.0,0.4722,0.4943,0.0,0.419,0.4916,0.5025,0.4487,0.4491,0.4838,0.5542,0.7015,0.8103,0.8804,0.8804,0.8804,0.8778,0.8778,0.8348,0.7696,0.7696,0.7696,0.7726,0.8066,0.8817,0.9679,0.8255,0.7964,0.7269,0.6469,0.5698,0.505,0.4636,0.5093,0.5515,0.5515,0.5928,0.5982,0.5273,0.4787,0.4759,0.0,0.5955,0.6556,0.0,0.7192,0.6967,0.6722,0.608,0.5456,0.4907,0.4834,0.468,0.4395,0.0,0.0,0.0,0.4348,0.4365,0.4291,0.4321,0.4209,0.3991,0.3944,0.3805,0.3604,0.3604,0.3604,0.3604,0.3604,0.3604,0.3604,0.3604,0.3836,0.4136,0.4136,0.4522,0.4978,0.4809,0.4482,0.4136,0.4136,0.388,0.3689,0.4049,0.4136,0.4136,0.4136,0.4136,0.4049,0.3689,0.3604,0.3604,0.3604,0.3604,0.3531,0.3336,0.3912,0.4564,0.502,0.5711,0.0,0.6673,0.0,0.5809,0.5544,0.5619,0.5603,0.5371,0.6147,0.0,0.0,0.0,0.0,0.0,0.0,0.0,0.0,0.5016,0.0,0.5081,0.5323,0.5352,0.5164,0.4704,0.5117,0.6285,0.7262,0.8355,0.9465,0.9008,0.9061,0.9439,0.8982,0.8672,0.8454,0.8454,0.8454,0.8467,0.8584,0.8933,0.9351,0.8787,0.8327,0.7477,0.6723,0.5982,0.5351,0.4948,0.5464,0.6009,0.6303,0.6718,0.6826,0.6384,0.571,0.0,0.5873,0.6583,0.7316,0.8076,0.785,0.7601,0.7316,0.6704,0.5956,0.5108,0.5204,0.0,0.4491,0.4491,0.4443,0.4304,0.4365,0.4362,0.4328,0.4593,0.4636,0.4498,0.4733,0.4722,0.4563,0.4268,0.4157,0.413,0.386,0.371,0.3705,0.3927,0.4169,0.443,0.467,0.513,0.5631,0.5631,0.5373,0.4978,0.4539,0.4154,0.3965,0.4303,0.4408,0.4456,0.4674,0.4561,0.426,0.3729,0.3604,0.3604,0.3604,0.3604,0.3573,0.3431,0.3789,0.4336,0.5053,0.5556,0.6072,0.6679,0.0,0.5857,0.0,0.0,0.0,0.0,0.5857,0.644,0.0,0.0,0.0,0.0,0.0,0.5055,0.4505,0.4931,0.5135,0.5015,0.5345,0.5378,0.5109,0.4708,0.5089,0.6199,0.6961,0.7925,0.9007,0.8877,0.9035,0.9387,0.8982,0.8804,0.8804,0.8804,0.8804,0.8824,0.8904,0.9058,0.9211,0.8725,0.8267,0.753,0.6804,0.6064,0.5569,0.5569,0.6145,0.6858,0.7616,0.775,0.775,0.7696,0.7128,0.6723,0.6669,0.0,0.0,0.8752,0.8537,0.8087,0.7392,0.7355,0.6677,0.5293,0.549,0.5316,0.4656,0.4598,0.457,0.4567,0.4324,0.4334,0.4584,0.4957,0.5224,0.5418,0.5977,0.6199,0.6135,0.5453,0.5164,0.5091,0.4359,0.4021,0.3999,0.4513,0.4618,0.4604,0.5173,0.576,0.6264,0.6264,0.6264,0.6023,0.4865,0.45,0.4474,0.4517,0.4517,0.4648,0.5216,0.4913,0.4329,0.384,0.3689,0.3667,0.3667,0.3622,0.3604,0.3604,0.3604,0.3972,0.5113,0.5303,0.5685,0.6826,0.6401,0.6062,0.0,0.0,0.0,0.5501,0.6057,0.6386,0.0,0.0,0.0,0.0,0.0,0.5436,0.3944,0.4822,0.4976,0.4286,0.5085,0.5164,0.4491,0.4491,0.4838,0.5515,0.6258,0.702,0.7803,0.8507,0.8831,0.8857,0.8804,0.8804,0.8804,0.8804,0.8804,0.8838,0.9084,0.9184,0.9184,0.0,0.0,0.8315,0.7563,0.6826,0.634,0.634,0.6475,0.6858,0.7616,0.8182,0.8321,0.775,0.8049,0.8049,0.7482,0.7589,0.8017,0.8752,0.8537,0.832,0.8144,0.7905,0.7462,0.6795,0.685,0.6628,0.61,0.5546,0.5273,0.5242,0.4696,0.4727,0.5269,0.5373,0.5676,0.6145,0.6299,0.6301,0.6183,0.6014,0.5941,0.5868,0.5115,0.5022,0.5195,0.4834,0.5163,0.5787,0.5943,0.6343,0.681,0.681,0.681,0.6683,0.598,0.5459,0.5195,0.5653,0.5766,0.5809,0.5943,0.5524,0.5043,0.4918,0.4548,0.422,0.422,0.388,0.3604,0.3604,0.3604,0.3972,0.5113,0.5303,0.5631,0.6559,0.6718,0.6529,0.0,0.6295,0.6339,0.5714,0.6202,0.6728,0.0,0.0,0.7425,0.7302,0.7292,0.6561,0.5001,0.5182,0.5264,0.5182,0.5385,0.5164,0.4491,0.4491,0.4838,0.5515,0.6258,0.7272,0.8482,0.8712,0.908,0.951,0.9008,0.8804,0.8804,0.8804,0.8804,0.8818,0.8884,0.8911,0.8911,0.9136,0.9025,0.856,0.783,0.7369,0.7101,0.7101,0.7101,0.7369,0.8103,0.856,0.8646,0.8235,0.8566,0.8646,0.8235,0.8209,0.8374,0.8778,0.8537,0.8402,0.8402,0.8216,0.7883,0.7316,0.7433,0.7188,0.6588,0.6199,0.5842,0.5487,0.5136,0.5164,0.5515,0.5846,0.6379,0.7011,0.735,0.7455,0.7345,0.7016,0.689,0.6808,0.6069,0.5887,0.5997,0.5752,0.5968,0.6403,0.652,0.6747,0.7,0.7,0.7,0.6937,0.6641,0.6151,0.5809,0.6254,0.6294,0.6206,0.6206,0.5959,0.5631,0.5373,0.5043,0.4739,0.4456,0.418,0.3902,0.3644,0.3792,0.4268,0.5156,0.5524,0.5971,0.6684,0.69,0.6814,0.635,0.6719,0.6814,0.635,0.6721,0.7142,0.7486,0.7745,0.0,0.7911,0.7766,0.712,0.585,0.554,0.5418,0.5487,0.5191,0.4869,0.4491,0.4491,0.4677,0.5062,0.5861,0.6778,0.778,0.8213,0.8744,0.9335,0.929,0.9087,0.8831,0.9133,0.9061,0.8824,0.8931,0.8898,0.8844,0.8864,0.8838,0.8613,0.7963,0.7777,0.775,0.7857,0.7777,0.7969,0.8699,0.8804,0.8804,0.8804,0.8804,0.8804,0.8804,0.8804,0.8804,0.8804,0.8577,0.8462,0.8462,0.8462,0.8177,0.7528,0.7749,0.7563,0.6939,0.6831,0.6443,0.5842,0.5706,0.5733,0.5869,0.6475,0.7182,0.791,0.8533,0.8804,0.8752,0.8129,0.7857,0.7777,0.7047,0.6718,0.6638,0.6809,0.6778,0.6696,0.6989,0.704,0.7,0.7,0.7,0.7,0.7,0.6683,0.6388,0.6653,0.6557,0.6382,0.634,0.6328,0.6194,0.5674,0.5502,0.5281,0.4783,0.4609,0.4391,0.3946,0.4224,0.4748,0.5392,0.5895,0.6404,0.6996,0.0,0.702,0.7066,0.7066,0.7086,0.7133,0.7388,0.7578,0.7625,0.8107,0.8415,0.8462,0.8084,0.7538,0.6772,0.6051,0.5624,0.5515,0.4921,0.4598,0.4491,0.4491,0.4501,0.4556,0.5389,0.608,0.6698,0.7511,0.8218,0.8831,0.9413,0.9361,0.9008,0.9465,0.9389,0.9024,0.9126,0.9044,0.9005,0.9098,0.8951,0.8752,0.8646,0.8103,0.791,0.8533,0.8103,0.7969,0.8699,0.8804,0.8804,0.8804,0.8804,0.8804,0.8804,0.8804,0.8804,0.8804,0.8764,0.8738,0.8738,0.8738,0.8685,0.858,0.862,0.856,0.8454,0.783,0.7477,0.7337,0.6718,0.6772,0.7369,0.7477,0.7937,0.8646,0.8752,0.8804,0.8778,0.8672,0.8619,0.8533,0.7803,0.7584,0.7624,0.7343,0.7107,0.6993,0.7306,0.7228,0.7,0.7,0.7,0.7,0.7,0.6937,0.6939,0.7271,0.7323,0.7225,0.6939,0.6873,0.6852,0.6761,0.6386,0.6029,0.5943,0.5524,0.513,0.5048,0.5108,0.5434,0.6259,0.6276,0.6492,0.7295,0.0,0.7114,0.739,0.7417,0.7524,0.7739,0.7806,0.7963,0.8241,0.8348,0.8509,0.8731,0.8672,0.8567,0.8442,0.7133,0.6118,0.5515,0.5406,0.5054,0.4491,0.4491,0.4559,0.4679,0.529,0.6017,0.6877,0.7466,0.8139,0.8811,0.891,0.9237,0.9588,0.9133,0.9399,0.9975,0.9159,0.9158,0.9526,0.8951,0.8898,0.8804,0.8804,0.8507,0.8401,0.8752,0.8507,0.8401,0.8752,0.8804,0.8804,0.8804,0.8804,0.8804,0.8804,0.8804,0.8804,0.8804,0.8804,0.8804,0.8804,0.8804,0.8804,0.8804,0.8804,0.8804,0.8804,0.8076,0.7696,0.7696,0.6939,0.6993,0.7696,0.7696,0.8103,0.8804,0.8804,0.8804,0.8804,0.8804,0.8804,0.8738,0.8261,0.8216,0.8307,0.7636,0.7437,0.7459,0.7288,0.7134,0.7,0.7,0.7,0.7,0.7,0.7134,0.7255,0.7235,0.7363,0.7417,0.7073,0.7,0.7,0.7,0.681,0.6541,0.6264,0.5986,0.5674,0.5351,0.5567,0.5957,0.6519,0.6606,0.6828,0.7422,0.737,0.733,0.7471,0.7638,0.7836,0.8143,0.817,0.829,0.8584,0.8611,0.8664,0.8798,0.8804,0.8804,0.8804,0.7369,0.6253,0.5515,0.5136,0.4814,0.4491,0.4491,0.4528,0.4628,0.5482,0.6176,0.6799,0.7689,0.834,0.8831,0.9185,0.951,0.9836,1.014,1.0539,1.0944,1.0871,1.0647,1.0379,0.8824,0.8804,0.8804,0.8804,0.8804,0.8804,0.8804,0.8804,0.8804,0.8804,0.8804,0.8804,0.8804,0.8804,0.8804,0.8804,0.8804,0.8804,0.8804,0.8804,0.8804,0.8804,0.8804,0.8804,0.8804,0.8804,0.8804,0.8804,0.8076,0.7696,0.7696,0.6939,0.6993,0.7696,0.7696,0.8103,0.8804,0.8804,0.8804,0.8804,0.8804,0.8804,0.8784,0.8557,0.8571,0.8617,0.7946,0.7742,0.7726,0.7281,0.7053,0.7,0.7,0.7,0.7013,0.7101,0.7341,0.7544,0.7273,0.7448,0.7631,0.7286,0.7213,0.7213,0.7213,0.7153,0.7019,0.6656,0.6553,0.6371,0.5985,0.6242,0.6614,0.6973,0.0,0.7255,0.7645,0.7638,0.7625,0.7692,0.7889,0.815,0.8469,0.8502,0.8571,0.8791,0.8804,0.8804,0.8804,0.8804,0.8804,0.8804,0.7696,0.6772,0.6032,0.5332,0.4897,0.4732,0.4732,0.4799,0.4935,0.596,0.6658,0.7165,0.8074,0.8663,0.9032,0.9477,0.9847,1.021,1.0968,1.1496,1.1888,1.2304,1.2015,1.1426,0.8858,0.8804,0.8804,0.8804,0.8804,0.8804,0.8804,0.8804,0.8804,0.8804,0.8804,0.8804,0.8804,0.8804,0.8804,0.8804,0.8804,0.8804,0.8804,0.8804,0.8804,0.8804,0.8804,0.8804,0.8804,0.8804,0.8804,0.8804,0.8076,0.7696,0.7696,0.6939,0.6993,0.7696,0.7696,0.8103,0.8804,0.8804,0.8804,0.8804,0.8804,0.8804,0.8804,0.8784,0.8624,0.8422,0.8355,0.7986,0.7517,0.7471,0.7248,0.7,0.7,0.7,0.7053,0.737,0.7655,0.7866,0.7846,0.8083,0.8261,0.7912,0.7839,0.7839,0.7839,0.7642,0.7515,0.7732,0.7567,0.7477,0.7668,0.7531,0.7599,0.8161,0.0,0.0,0.8248,0.807,0.7972,0.8301,0.8355,0.8482,0.8744,0.8778,0.8784,0.8804,0.8804,0.8804,0.8804,0.8804,0.8804,0.8804,0.8699,0.8289,0.7557,0.6804,0.6095,0.5433,0.5433,0.5639,0.6088,0.6731,0.7608,0.8636,0.8604,0.8972,0.9628,0.9347,1.0006,1.1147,1.0716,1.1472,1.275,1.2306,1.2431,1.2704,0.8831,0.8804,0.8804,0.8804,0.8804,0.8804,0.8804,0.8804,0.8804,0.8804,0.8804,0.8804,0.8804,0.8804,0.8804,0.8804,0.8804,0.8804,0.8804,0.8804,0.8804,0.8804,0.8804,0.8804,0.8804,0.8804,0.8804,0.8804,0.7616,0.7262,0.767,0.647,0.6551,0.7696,0.7696,0.8103,0.8804,0.8804,0.8804,0.8804,0.8804,0.8804,0.8791,0.8611,0.8584,0.8597,0.823,0.807,0.7993,0.7618,0.7417,0.7268,0.706,0.7,0.7093,0.7609,0.7969,0.8243,0.8424,0.829,0.8045,0.7939,0.7905,0.7905,0.7905,0.7812,0.7789,0.7879,0.7812,0.7766,0.7885,0.7812,0.7889,0.8335,0.0,0.7896,0.8342,0.8277,0.825,0.8382,0.8556,0.8684,0.8798,0.8804,0.8804,0.8804,0.8804,0.8804,0.8804,0.8951,0.9044,0.9044,0.9044,0.8711,0.8019,0.7267,0.6859,0.6726,0.6726,0.6842,0.7032,0.7893,0.842,0.8693,0.928,0.9603,0.9679,0.9559,1.0361,1.1685,1.1764,1.2735,1.409,1.4138,1.3981,1.3618,0.8824,0.8804,0.8804,0.8804,0.8804,0.8804,0.8804,0.8804,0.8804,0.8804,0.8804,0.8804,0.8804,0.8804,0.8804,0.8804,0.8804,0.8804,0.8804,0.8804,0.8804,0.8804,0.8804,0.8804,0.8804,0.8804,0.8804,0.8804,0.7316,0.6858,0.7316,0.6086,0.6167,0.7369,0.7589,0.8103,0.8804,0.8804,0.8804,0.8804,0.8804,0.8804,0.8784,0.8584,0.8637,0.8744,0.8243,0.8203,0.8322,0.7806,0.7638,0.7575,0.7353,0.7353,0.7508,0.7812,0.8203,0.8557,0.8751,0.8485,0.8179,0.8179,0.8179,0.8179,0.8179,0.8112,0.8072,0.8165,0.8105,0.8072,0.8165,0.8105,0.817,0.8464,0.8263,0.8176,0.8496,0.8536,0.8536,0.8536,0.8885,0.9106,0.9106,0.9316,0.9335,0.914,0.9106,0.9035,0.8804,0.8964,0.9078,0.9078,0.9078,0.8937,0.866,0.7864,0.7576,0.7838,0.7838,0.7876,0.8012,0.8914,0.9315,0.9264,0.9953,1.0285,1.0356,1.0251,1.1086,1.2467,1.2826,1.3722,1.4834,1.5254,1.505,1.4421,0.8864,0.8804,0.8804,0.8804,0.8804,0.8804,0.8804,0.8804,0.8804,0.8804,0.8804,0.8804,0.8804,0.8804,0.8804,0.8804,0.8804,0.8804,0.8804,0.8804,0.8804,0.8804,0.8804,0.8804,0.8804,0.8804,0.8804,0.8804,0.7316,0.6615,0.6588,0.5846,0.59,0.6642,0.7369,0.8103,0.8804,0.8804,0.8804,0.8804,0.8804,0.8804,0.8804,0.8804,0.8804,0.8771,0.8509,0.8402,0.8362,0.8012,0.7912,0.7912,0.7905,0.8136,0.8342,0.7999,0.8325,0.8804,0.8804,0.8804,0.8804,0.8804,0.8804,0.8804,0.8804,0.8584,0.8489,0.8751,0.8577,0.8489,0.8751,0.8571,0.8496,0.8758,0.8564,0.8502,0.8764,0.8804,0.8804,0.8811,0.9387,0.9814,0.9814,1.0415,1.0517,0.9865,0.9788,0.951,0.8831,0.8811,0.8811,0.8811,0.8811,0.9098,0.9708,0.8701,0.8354,0.8616,0.8616,0.8747,0.9028,0.9779,1.0281,1.0624,1.0624,1.1076,1.1773,1.1443,1.2222,1.3607,1.375,1.4214,1.4844,1.5254,1.541,1.5167,0.8824,0.8804,0.8804,0.8804,0.8804,0.8804,0.8804,0.8804,0.8804,0.8804,0.8804,0.8804,0.8804,0.8804,0.8804,0.8804,0.8804,0.8804,0.8804,0.8804,0.8804,0.8804,0.8804,0.8804,0.8804,0.8804,0.8804,0.8804,0.783,0.7101,0.6588,0.6367,0.6394,0.6642,0.7369,0.8103,0.8804,0.8804,0.8804,0.8804,0.8804,0.8804,0.8804,0.8804,0.8804,0.8798,0.8711,0.8677,0.8631,0.8337,0.8243,0.8203,0.7972,0.8136,0.8382,0.8295,0.851,0.8804,0.8804,0.8804,0.8804,0.8804,0.8804,0.8804,0.8804,0.8738,0.8704,0.8791,0.8738,0.8704,0.8791,0.8738,0.8704,0.8791,0.8738,0.8711,0.8798,0.8804,0.8982,0.9439,0.9692,0.9987,1.0466,1.0686,1.0517,0.9865,0.9361,0.9008,0.8804,0.9198,0.9325,0.9091,0.9312,0.9606,0.998,0.9489,0.9505,1.0009,1.0009,1.0055,1.0139,1.0929,1.135,1.1469,1.2027,1.2428,1.2626,1.2522,1.3105,1.4003,1.4071,1.454,1.5244,1.5371,1.541,1.5255,0.8804,0.8804,0.8804,0.8804,0.8804,0.8804,0.8804,0.8804,0.8804,0.8804,0.8804,0.8804,0.8804,0.8804,0.8804,0.8804,0.8804,0.8804,0.8804,0.8804,0.8804,0.8804,0.8804,0.8804,0.8804,0.8804,0.8804,0.8804,0.8076,0.7477,0.7047,0.7047,0.7047,0.7074,0.7803,0.8374,0.8804,0.8804,0.8804,0.8804,0.8804,0.8804,0.8804,0.8804,0.8804,0.8804,0.8804,0.8804,0.8784,0.8604,0.8569,0.849,0.8196,0.831,0.8549,0.8435,0.8577,0.8804,0.8804,0.8804,0.8804,0.8804,0.8804,0.8804,0.8804,0.8804,0.8804,0.8804,0.8804,0.8804,0.8804,0.8804,0.8804,0.8804,0.8804,0.8804,0.8804,0.9035,0.9335,0.9762,1.0269,1.0737,1.1166,1.1459,1.1233,1.0269,0.9712,0.9266,0.8978,0.9426,0.9599,0.9391,0.9593,0.9996,1.0576,1.0082,1.0124,1.0593,1.0593,1.0776,1.1076,1.1593,1.1958,1.2297,1.2795,1.3191,1.3455,1.3455,1.3944,1.4658,1.4658,1.4962,1.541,1.541,1.541,1.5294,0.8804,0.8804,0.8804,0.8804,0.8804,0.8804,0.8804,0.8804,0.8804,0.8804,0.8804,0.8804,0.8804,0.8804,0.8804,0.8804,0.8804,0.8804,0.8804,0.8804,0.8804,0.8804,0.8804,0.8804,0.8804,0.8804,0.8804,0.8804,0.8129,0.7777,0.7696,0.7777,0.7777,0.7723,0.848,0.8804,0.8804,0.8804,0.8804,0.8804,0.8804,0.8804,0.8804,0.8804,0.8804,0.8804,0.8804,0.8804,0.8804,0.8804,0.8804,0.8758,0.8523,0.8597,0.8758,0.8516,0.8604,0.8804,0.8804,0.8804,0.8804,0.8804,0.8804,0.8804,0.8804,0.8857,0.8883,0.8804,0.8857,0.8883,0.8804,0.8804,0.8804,0.8804,0.8804,0.8831,0.8883,0.9413,0.984,0.9969,1.1065,1.1839,1.1898,1.2452,1.228,1.099,1.0559,1.0068,0.9453,0.9712,0.9904,0.9911,0.9938,1.0413,1.1419,1.0703,1.0476,1.0807,1.0744,1.1139,1.1919,1.1981,1.242,1.31,1.3191,1.3636,1.4302,1.4302,1.4746,1.541,1.541,1.541,1.541,1.541,1.541,1.5294,0.8804,0.8804,0.8804,0.8804,0.8804,0.8804,0.8804,0.8804,0.8804,0.8804,0.8804,0.8804,0.8804,0.8804,0.8804,0.8804,0.8804,0.8804,0.8804,0.8804,0.8804,0.8804,0.8804,0.8804,0.8804,0.8804,0.8804,0.8804,0.8646,0.8268,0.7723,0.8295,0.8262,0.7723,0.848,0.8804,0.8804,0.8804,0.8804,0.8804,0.8804,0.8804,0.8804,0.8804,0.8804,0.8804,0.8804,0.8804,0.8804,0.8804,0.8804,0.8798,0.8731,0.8758,0.8798,0.8731,0.8758,0.8804,0.8804,0.8804,0.8804,0.8804,0.8804,0.8804,0.8804,0.9211,0.9439,0.891,0.9211,0.9413,0.891,0.8804,0.8804,0.8804,0.8804,0.8982,0.9517,0.9718,1.0192,1.1241,1.1616,1.203,1.2618,1.2286,1.1898,1.1616,1.104,1.0775,1.1003,1.1265,1.1463,1.1592,1.1836,1.207,1.2326,1.215,1.2208,1.2458,1.1834,1.1958,1.2757,1.3386,1.3786,1.3965,1.4599,1.4991,1.5138,1.5138,1.5235,1.541,1.541,1.541,1.541,1.541,1.541,1.5294,0.8804,0.8804,0.8804,0.8804,0.8804,0.8804,0.8804,0.8804,0.8804,0.8804,0.8804,0.8804,0.8804,0.8804,0.8804,0.8804,0.8804,0.8804,0.8804,0.8804,0.8804,0.8804,0.8804,0.8804,0.8804,0.8804,0.8804,0.8804,0.8804,0.8613,0.8235,0.8619,0.8593,0.8235,0.8619,0.8804,0.8804,0.8804,0.8804,0.8804,0.8804,0.8804,0.8804,0.8804,0.8804,0.8804,0.8804,0.8804,0.8804,0.8804,0.8804,0.8804,0.8804,0.8804,0.8804,0.8804,0.8804,0.8804,0.8804,0.8804,0.8804,0.8804,0.8804,0.8804,0.8804,0.9309,0.9692,0.9335,0.9814,1.0239,1.0095,0.9645,0.9463,1.0004,0.9355,0.9035,0.9718,1.009,1.0542,1.1241,1.1931,1.2476,1.2847,1.2559,1.2271,1.2128,1.193,1.1882,1.2017,1.229,1.246,1.2526,1.2688,1.2966,1.335,1.2966,1.3237,1.4115,1.2931,1.2787,1.3584,1.4004,1.4421,1.4805,1.5235,1.541,1.541,1.541,1.541,1.541,1.541,1.541,1.541,1.541,1.541,1.5352,0.8804,0.8804,0.8804,0.8804,0.8804,0.8804,0.8804,0.8804,0.8804,0.8804,0.8804,0.8804,0.8804,0.8804,0.8804,0.8804,0.8804,0.8804,0.8804,0.8804,0.8857,0.8962,0.8857,0.8857,0.8962,0.8857,0.8804,0.8804,0.8804,0.8804,0.8804,0.8804,0.8804,0.8804,0.8804,0.8804,0.8804,0.8804,0.8804,0.8804,0.8804,0.8804,0.8804,0.8804,0.8804,0.8804,0.8804,0.8804,0.8804,0.8804,0.8804,0.8804,0.8804,0.8804,0.8804,0.8804,0.8804,0.8804,0.8804,0.8883,0.8982,0.8982,0.9023,0.9064,0.9064,0.9527,0.9935,0.9814,1.0415,1.1057,1.1314,1.0613,1.0286,1.1218,1.0125,0.9387,1.0038,1.0618,1.1015,1.1149,1.2181,1.2905,1.2905,1.2905,1.2849,1.2687,1.2886,1.3002,1.2978,1.3199,1.3335,1.3394,1.3394,1.3726,1.4392,1.3726,1.4085,1.5381,1.4064,1.3756,1.4421,1.4421,1.4785,1.541,1.541,1.541,1.541,1.541,1.541,1.541,1.541,1.541,1.541,1.541,1.541,1.541,0.8804,0.8804,0.8804,0.8804,0.8804,0.8804,0.8804,0.8804,0.8804,0.8804,0.8804,0.8804,0.8804,0.8804,0.8804,0.8804,0.8804,0.8804,0.8804,0.8804,0.9061,0.964,0.9113,0.9087,0.9666,0.9113,0.8804,0.8804,0.8804,0.8804,0.8804,0.8804,0.8804,0.8804,0.8804,0.8804,0.8804,0.8804,0.8804,0.8804,0.8804,0.8804,0.8804,0.8804,0.8804,0.8804,0.8804,0.8804,0.8804,0.8804,0.8804,0.8804,0.8804,0.8804,0.8804,0.8804,0.8804,0.8804,0.8804,0.9211,0.9666,0.9666,0.9879,1.0085,1.0085,1.0376,1.0491,0.9917,1.0788,1.1509,1.0981,1.077,1.0711,1.0879,1.0694,1.0762,1.1441,1.1616,1.1898,1.2544,1.2774,1.2905,1.2905,1.2905,1.3032,1.3349,1.3401,1.3751,1.4447,1.4553,1.4716,1.507,1.5079,1.5147,1.5235,1.5147,1.5167,1.541,1.5167,1.5138,1.5235,1.5235,1.5294,1.541,1.541,1.541,1.541,1.541,1.541,1.541,1.541,1.541,1.541,1.541,1.541,1.541,0.8804,0.8804,0.8804,0.8804,0.8804,0.8804,0.8804,0.8804,0.8804,0.8804,0.8804,0.8804,0.8804,0.8804,0.8804,0.8804,0.8804,0.8804,0.8804,0.9159,0.9484,0.9788,0.9865,0.9891,0.9814,0.951,0.9185,0.8804,0.8804,0.8804,0.8804,0.8804,0.8804,0.8804,0.8804,0.8804,0.8804,0.8804,0.8804,0.8804,0.8804,0.8804,0.8804,0.8804,0.8804,0.8804,0.8804,0.8804,0.8804,0.8804,0.8804,0.8804,0.8804,0.9061,0.9361,0.9361,0.9361,0.9439,0.9814,0.9865,0.9955,1.0583,1.0854,1.1022,1.1256,1.1718,1.1885,1.1129,1.1744,1.2536,1.2949,1.2511,1.2202,1.2578,1.1835,1.1328,1.1742,1.1789,1.208,1.2798,1.2905,1.2905,1.2905,1.3096,1.3311,1.3496,1.3945,1.4385,1.4766,1.501,1.5215,1.5371,1.541,1.541,1.541,1.541,1.541,1.541,1.541,1.541,1.541,1.541,1.541,1.541,1.541,1.541,1.541,1.541,1.541,1.541,1.541,1.541,1.541,1.541,1.541,1.541]}]]